[[{"header":{"parameterUnit":"m.s-1","parameterCategory":1,"la1":30.6,"la2":28.766,"lo1":-90.7593,"lo2":-88.6598,"dy":0.0162,"dx":0.0183,"nx":116,"ny":114,"refTime":"2023-07-05T06:00:00:Z","depth":0,"parameterNumber":2,"parameterNumberName":"U-component_of_WINDS"},"data":[0.0,0.0,0.0,0.0,0.0,0.0,0.0,0.0,0.0,0.0,0.0,0.0,0.0,0.0,0.0,0.0,0.0,0.0,0.0,0.0,0.0,0.0,0.0,0.0,0.0,0.0,0.0,0.0,0.0,0.0,0.0,0.0,0.0,0.0,0.0,0.0,0.0,0.0,0.0,0.0,0.0,0.0,0.0,0.0,0.0,0.0,0.0,0.0,0.0,0.0,0.0,0.0,0.0,0.0,0.0,0.0,0.0,0.0,0.0,0.0,0.0,0.0,0.0,0.0,0.0,0.0,0.0,0.0,0.0,0.0,0.0,0.0,0.0,0.0,0.0,0.0,0.0,0.0,0.0,0.0,0.0,0.0,0.0,0.0,0.0,0.0,0.0,0.0,0.0,0.0,0.0,0.0,0.0,0.0,0.0,0.0,0.0,0.0,0.0,0.0,0.0,0.0,0.0,0.0,0.0,0.0,0.0,0.0,0.0,0.0,0.0,0.0,0.0,0.0,0.0,0.0,0.0,0.0,0.0,0.0,0.0,0.0,0.0,0.0,0.0,0.0,0.0,0.0,0.0,0.0,0.0,0.0,0.0,0.0,0.0,0.0,0.0,0.0,0.0,0.0,0.0,0.0,0.0,0.0,0.0,0.0,0.0,0.0,0.0,0.0,0.0,0.0,0.0,0.0,0.0,0.0,0.0,0.0,0.0,0.0,0.0,0.0,0.0,0.0,0.0,0.0,0.0,0.0,0.0,0.0,0.0,0.0,0.0,0.0,0.0,0.0,0.0,0.0,0.0,0.0,0.0,0.0,0.0,0.0,0.0,0.0,0.0,0.0,0.0,0.0,0.0,0.0,0.0,0.0,0.0,0.0,0.0,0.0,0.0,0.0,0.0,0.0,0.0,0.0,0.0,0.0,0.0,0.0,0.0,0.0,0.0,0.0,0.0,0.0,0.0,0.0,0.0,0.0,0.0,0.0,0.0,0.0,0.0,0.0,0.0,0.0,0.0,0.0,0.0,0.0,0.0,0.0,0.0,0.0,0.0,0.0,0.0,0.0,0.0,0.0,0.0,0.0,0.0,0.0,0.0,0.0,0.0,0.0,0.0,0.0,0.0,0.0,0.0,0.0,0.0,0.0,0.0,0.0,0.0,0.0,0.0,0.0,0.0,0.0,0.0,0.0,0.0,0.0,0.0,0.0,0.0,0.0,0.0,0.0,0.0,0.0,0.0,0.0,0.0,0.0,0.0,0.0,0.0,0.0,0.0,0.0,0.0,0.0,0.0,0.0,0.0,0.0,0.0,0.0,0.0,0.0,0.0,0.0,0.0,0.0,0.0,0.0,0.0,0.0,0.0,0.0,0.0,0.0,0.0,0.0,0.0,0.0,0.0,0.0,0.0,0.0,0.0,0.0,0.0,0.0,0.0,0.0,0.0,0.0,0.0,0.0,0.0,0.0,0.0,0.0,0.0,0.0,0.0,0.0,0.0,0.0,0.0,0.0,0.0,0.0,0.0,0.0,0.0,0.0,0.0,0.0,0.0,0.0,0.0,0.0,0.0,0.0,0.0,0.0,0.0,0.0,0.0,0.0,0.0,0.0,0.0,0.0,0.0,0.0,0.0,0.0,0.0,0.0,0.0,0.0,0.0,0.0,0.0,0.0,0.0,0.0,0.0,0.0,0.0,0.0,0.0,0.0,0.0,0.0,0.0,0.0,0.0,0.0,0.0,0.0,0.0,0.0,0.0,0.0,0.0,0.0,0.0,0.0,0.0,0.0,0.0,0.0,0.0,0.0,0.0,0.0,0.0,0.0,0.0,0.0,0.0,0.0,0.0,0.0,0.0,0.0,0.0,0.0,0.0,0.0,0.0,0.0,0.0,0.0,0.0,0.0,0.0,0.0,0.0,0.0,0.0,0.0,0.0,0.0,0.0,0.0,0.0,0.0,0.0,0.0,0.0,0.0,0.0,0.0,0.0,0.0,0.0,0.0,0.0,0.0,0.0,0.0,0.0,0.0,0.0,0.0,0.0,0.0,0.0,0.0,0.0,0.0,0.0,0.0,0.0,0.0,0.0,0.0,0.0,0.0,0.0,0.0,0.0,0.0,0.0,0.0,0.0,0.0,0.0,0.0,0.0,0.0,0.0,0.0,0.0,0.0,0.0,0.0,0.0,0.0,0.0,0.0,0.0,0.0,0.0,0.0,0.0,0.0,0.0,0.0,0.0,0.0,0.0,0.0,0.0,0.0,0.0,0.0,0.0,0.0,0.0,0.0,0.0,0.0,0.0,0.0,0.0,0.0,0.0,0.0,0.0,0.0,0.0,0.0,0.0,0.0,0.0,0.0,0.0,0.0,0.0,0.0,0.0,0.0,0.0,0.0,0.0,0.0,0.0,0.0,0.0,0.0,0.0,0.0,0.0,0.0,0.0,0.0,0.0,0.0,0.0,0.0,0.0,0.0,0.0,0.0,0.0,0.0,0.0,0.0,0.0,0.0,0.0,0.0,0.0,0.0,0.0,0.0,0.0,0.0,0.0,0.0,0.0,0.0,0.0,0.0,0.0,0.0,0.0,0.0,0.0,0.0,0.0,0.0,0.0,0.0,0.0,0.0,0.0,0.0,0.0,0.0,0.0,0.0,0.0,0.0,0.0,0.0,0.0,0.0,0.0,0.0,0.0,0.0,0.0,0.0,0.0,0.0,0.0,0.0,0.0,0.0,0.0,0.0,0.0,0.0,0.0,0.0,0.0,0.0,0.0,0.0,0.0,0.0,0.0,0.0,0.0,0.0,0.0,0.0,0.0,0.0,0.0,0.0,0.0,0.0,0.0,0.0,0.0,0.0,0.0,0.0,0.0,0.0,0.0,0.0,0.0,0.0,0.0,0.0,0.0,0.0,0.0,0.0,0.0,0.0,0.0,0.0,0.0,0.0,0.0,0.0,0.0,0.0,0.0,0.0,0.0,0.0,0.0,0.0,0.0,0.0,0.0,0.0,0.0,0.0,0.0,0.0,0.0,0.0,0.0,0.0,0.0,0.0,0.0,0.0,0.0,0.0,0.0,0.0,0.0,0.0,0.0,0.0,0.0,0.0,0.0,0.0,0.0,0.0,0.0,0.0,0.0,0.0,0.0,0.0,0.0,0.0,0.0,0.0,0.0,0.0,0.0,0.0,0.0,0.0,0.0,0.0,0.0,0.0,0.0,0.0,0.0,0.0,0.0,0.0,0.0,0.0,0.0,0.0,0.0,0.0,0.0,0.0,0.0,0.0,0.0,0.0,0.0,0.0,0.0,0.0,0.0,0.0,0.0,0.0,0.0,0.0,0.0,0.0,0.0,0.0,0.0,0.0,0.0,0.0,0.0,0.0,0.0,0.0,0.0,0.0,0.0,0.0,0.0,0.0,0.0,0.0,0.0,0.0,0.0,0.0,0.0,0.0,0.0,0.0,0.0,0.0,0.0,0.0,0.0,0.0,0.0,0.0,0.0,0.0,0.0,0.0,0.0,0.0,0.0,0.0,0.0,0.0,0.0,0.0,0.0,0.0,0.0,0.0,0.0,0.0,0.0,0.0,0.0,0.0,0.0,0.0,0.0,0.0,0.0,0.0,0.0,0.0,0.0,0.0,0.0,0.0,0.0,0.0,0.0,0.0,0.0,0.0,0.0,0.0,0.0,0.0,0.0,0.0,0.0,0.0,0.0,0.0,0.0,0.0,0.0,0.0,0.0,0.0,0.0,0.0,0.0,0.0,0.0,0.0,0.0,0.0,0.0,0.0,0.0,0.0,0.0,0.0,0.0,0.0,0.0,0.0,0.0,0.0,0.0,0.0,0.0,0.0,0.0,0.0,0.0,0.0,0.0,0.0,0.0,0.0,0.0,0.0,0.0,0.0,0.0,0.0,0.0,0.0,0.0,0.0,0.0,0.0,0.0,0.0,0.0,0.0,0.0,0.0,0.0,0.0,0.0,0.0,0.0,0.0,0.0,0.0,0.0,0.0,0.0,0.0,0.0,0.0,0.0,0.0,0.0,0.0,0.0,0.0,0.0,0.0,0.0,0.0,0.0,0.0,0.0,0.0,0.0,0.0,0.0,0.0,0.0,0.0,0.0,0.0,0.0,0.0,0.0,0.0,0.0,0.0,0.0,0.0,0.0,0.0,0.0,0.0,0.0,0.0,0.0,0.0,0.0,0.0,0.0,0.0,0.0,0.0,0.0,0.0,0.0,0.0,0.0,0.0,0.0,0.0,0.0,0.0,0.0,0.0,0.0,0.0,0.0,0.0,0.0,0.0,0.0,0.0,0.0,0.0,0.0,0.0,0.0,0.0,0.0,0.0,0.0,0.0,0.0,0.0,0.0,0.0,0.0,0.0,0.0,0.0,0.0,0.0,0.0,0.0,0.0,0.0,0.0,0.0,0.0,0.0,0.0,0.0,0.0,0.0,0.0,0.0,0.0,0.0,0.0,0.0,0.0,0.0,0.0,0.0,0.0,0.0,0.0,0.0,0.0,0.0,0.0,0.0,0.0,0.0,0.0,0.0,0.0,0.0,0.0,0.0,0.0,0.0,0.0,0.0,0.0,0.0,0.0,0.0,0.0,0.0,0.0,0.0,0.0,0.0,0.0,0.0,0.0,0.0,0.0,0.0,0.0,0.0,0.0,0.0,0.0,0.0,0.0,0.0,0.0,0.0,0.0,0.0,0.0,0.0,0.0,0.0,0.0,0.0,0.0,0.0,0.0,0.0,0.0,0.0,0.0,0.0,0.0,0.0,0.0,0.0,0.0,0.0,0.0,0.0,0.0,0.0,0.0,0.0,0.0,0.0,0.0,0.0,0.0,0.0,0.0,0.0,0.0,0.0,0.0,0.0,0.0,0.0,0.0,0.0,0.0,0.0,0.0,0.0,0.0,0.0,0.0,0.0,0.0,0.0,0.0,0.0,0.0,0.0,0.0,0.0,0.0,0.0,0.0,0.0,0.0,0.0,0.0,0.0,0.0,0.0,0.0,0.0,0.0,0.0,0.0,0.0,0.0,0.0,0.0,0.0,0.0,0.0,0.0,0.0,0.0,0.0,0.0,0.0,0.0,0.0,0.0,0.0,0.0,0.0,0.0,0.0,0.0,0.0,0.0,0.0,0.0,0.0,0.0,0.0,0.0,0.0,0.0,0.0,0.0,0.0,0.0,0.0,0.0,0.0,0.0,0.0,0.0,0.0,0.0,0.0,0.0,0.0,0.0,0.0,0.0,0.0,0.0,0.0,0.0,0.0,0.0,0.0,0.0,0.0,0.0,0.0,0.0,0.0,0.0,0.0,0.0,0.0,0.0,0.0,0.0,0.0,0.0,0.0,0.0,0.0,0.0,0.0,0.0,0.0,0.0,0.0,0.0,0.0,0.0,0.0,0.0,0.0,0.0,0.0,0.0,0.0,0.0,0.0,0.0,0.0,0.0,0.0,0.0,0.0,0.0,0.0,0.0,0.0,0.0,0.0,0.0,0.0,0.0,0.0,0.0,0.0,0.0,0.0,0.0,0.0,0.0,0.0,0.0,0.0,0.0,0.0,0.0,0.0,0.0,0.0,0.0,0.0,0.0,0.0,0.0,0.0,0.0,0.0,0.0,0.0,0.0,0.0,0.0,0.0,0.0,0.0,0.0,0.0,0.0,0.0,0.0,0.0,0.0,0.0,0.0,0.0,0.0,0.0,0.0,0.0,0.0,0.0,0.0,0.0,0.0,0.0,0.0,0.0,0.0,0.0,0.0,0.0,0.0,0.0,0.0,0.0,0.0,0.0,0.0,0.0,0.0,0.0,0.0,0.0,0.0,0.0,0.0,0.0,0.0,0.0,0.0,0.0,0.0,0.0,0.0,0.0,0.0,0.0,0.0,0.0,0.0,0.0,0.0,0.0,0.0,0.0,0.0,0.0,0.0,0.0,0.0,0.0,0.0,0.0,0.0,0.0,0.0,0.0,0.0,0.0,0.0,0.0,0.0,0.0,0.0,0.0,0.0,0.0,0.0,0.0,0.0,0.0,0.0,0.0,0.0,0.0,0.0,0.0,0.0,0.0,0.0,0.0,0.0,0.0,0.0,0.0,0.0,0.0,0.0,0.0,0.0,0.0,0.0,0.0,-0.5759,-0.4472,0.0,0.0,0.0,0.0,0.0,0.0,0.0,0.0,0.0,0.0,0.0,0.0,0.0,0.0,0.0,0.0,0.0,0.0,0.0,0.0,0.0,0.0,0.0,0.0,0.0,0.0,0.0,0.0,0.0,0.0,0.0,0.0,0.0,0.0,0.0,0.0,0.0,0.0,0.0,0.0,0.0,0.0,0.0,0.0,0.0,0.0,0.0,0.0,0.0,0.0,0.0,0.0,0.0,0.0,0.0,0.0,0.0,0.0,0.0,0.0,0.0,0.0,0.0,0.0,0.0,0.0,0.0,0.0,0.0,0.0,0.0,0.0,0.0,0.0,0.0,0.0,0.0,0.0,0.0,0.0,0.0,0.0,0.0,0.0,0.0,0.0,0.0,0.0,0.0,0.0,0.0,0.0,0.0,0.0,0.0,0.0,0.0,0.0,0.0,0.0,0.0,0.0,0.0,0.0,0.0,0.0,0.0,0.0,0.0,0.0,0.0,0.0,0.0,0.0,-0.5761,-0.4697,0.0,0.0,0.0,0.0,0.0,0.0,0.0,0.0,0.0,0.0,0.0,0.0,0.0,0.0,0.0,0.0,0.0,0.0,0.0,0.0,0.0,0.0,0.0,0.0,0.0,0.0,0.0,0.0,0.0,0.0,0.0,0.0,0.0,0.0,0.0,0.0,0.0,0.0,0.0,0.0,0.0,0.0,0.0,0.0,0.0,0.0,0.0,0.0,0.0,0.0,0.0,0.0,0.0,0.0,0.0,0.0,0.0,0.0,0.0,0.0,0.0,0.0,0.0,0.0,0.0,0.0,0.0,0.0,0.0,0.0,0.0,0.0,0.0,0.0,0.0,0.0,0.0,0.0,0.0,0.0,0.0,0.0,0.0,0.0,0.0,0.0,0.0,0.0,0.0,0.0,0.0,0.0,0.0,0.0,0.0,0.0,0.0,0.0,0.0,0.0,0.0,0.0,0.0,0.0,0.0,0.0,0.0,0.0,-1.0227,-0.9951,-0.9784,-0.8966,-0.7995,-0.6852,-0.533,-0.4528,-0.421,-0.3011,0.0,0.0,0.0,0.0,0.0,0.0,0.0,0.0,0.0,0.0,0.0,0.0,0.0,0.0,0.0,0.0,0.0,0.0,0.0,0.0,0.0,0.0,0.0,0.0,0.0,0.0,0.0,0.0,0.0,0.0,0.0,0.0,0.0,0.0,0.0,0.0,0.0,0.0,-2.492,-2.5385,-2.5552,-2.5493,0.0,0.0,0.0,0.0,0.0,0.0,0.0,0.0,0.0,0.0,0.0,0.0,0.0,0.0,0.0,0.0,0.0,0.0,0.0,0.0,0.0,0.0,0.0,0.0,0.0,0.0,0.0,0.0,0.0,0.0,0.0,0.0,0.0,0.0,0.0,0.0,0.0,0.0,0.0,0.0,0.0,0.0,0.0,0.0,-1.6517,-1.6266,0.0,0.0,0.0,0.0,0.0,0.0,0.0,0.0,0.0,0.0,0.0,0.0,0.0,-1.3039,-1.3164,-1.2414,-1.1858,-1.1354,-1.0949,-1.0903,-1.1263,-0.9492,-0.8701,-0.8501,-0.6022,0.0,-0.3103,-0.2882,0.0,0.0,0.0,0.0,0.0,0.0,0.0,0.0,0.0,0.0,0.0,0.0,0.0,0.0,0.0,0.0,0.0,0.0,0.0,0.0,0.0,0.0,0.0,0.0,0.0,0.0,0.0,0.0,0.0,0.0,0.0,0.0,0.0,0.0,0.0,0.0,-2.4353,-2.5325,-2.6091,-2.6318,-2.619,-2.5768,-2.4648,-2.3879,-2.3409,-2.2834,0.0,0.0,0.0,0.0,0.0,0.0,0.0,0.0,0.0,0.0,0.0,0.0,0.0,0.0,0.0,0.0,0.0,0.0,0.0,0.0,0.0,0.0,0.0,0.0,0.0,0.0,0.0,0.0,0.0,0.0,0.0,0.0,0.0,0.0,0.0,0.0,0.0,0.0,0.0,-1.5799,-1.6203,-1.5855,-1.5658,-1.5019,0.0,0.0,0.0,0.0,0.0,0.0,0.0,0.0,0.0,-1.5535,-1.5508,-1.5617,-1.5875,-1.5175,-1.4402,-1.3492,-1.2646,-1.1973,-1.1398,-1.009,-0.9389,-0.914,-0.6627,-0.5122,-0.4247,-0.3181,-0.2587,-0.2318,0.0,0.0,0.0,0.0,-0.2473,-0.2781,0.0,0.0,0.0,0.0,0.0,0.0,0.0,0.0,0.0,0.0,0.0,0.0,0.0,0.0,0.0,-2.639,0.0,0.0,0.0,0.0,0.0,0.0,0.0,0.0,0.0,0.0,0.0,0.0,-2.5346,-2.6346,-2.714,-2.7272,-2.7014,-2.645,-2.645,-2.5744,-2.4625,-2.3908,-2.3513,0.0,0.0,0.0,0.0,0.0,0.0,0.0,0.0,0.0,0.0,0.0,0.0,0.0,0.0,0.0,0.0,0.0,0.0,0.0,0.0,0.0,0.0,0.0,0.0,0.0,0.0,0.0,0.0,0.0,0.0,0.0,0.0,0.0,0.0,0.0,0.0,0.0,0.0,-1.619,-1.6525,-1.5929,-1.6129,-1.5834,0.0,0.0,0.0,0.0,0.0,0.0,-1.5289,-1.6111,-1.6708,-1.689,-1.7267,-1.7631,-1.7771,-1.7219,-1.6215,-1.4772,-1.3902,-1.281,-1.1625,-1.0497,-0.9774,-0.9284,-0.7283,-0.6157,-0.5602,-0.3674,-0.2787,-0.266,-0.2504,-0.2465,-0.2445,-0.238,-0.269,-0.3108,0.0,0.0,0.0,0.0,0.0,0.0,0.0,0.0,0.0,0.0,0.0,0.0,0.0,0.0,-2.5756,-2.6982,-2.6765,-2.6403,0.0,0.0,0.0,0.0,0.0,0.0,0.0,0.0,0.0,-2.4482,-2.6574,-2.7633,-2.7693,-2.8198,-2.8426,-2.8347,-2.8347,-2.7333,-2.5562,-2.4499,-2.4302,-2.4614,0.0,0.0,0.0,0.0,0.0,0.0,0.0,0.0,0.0,0.0,0.0,0.0,0.0,0.0,0.0,0.0,0.0,0.0,0.0,0.0,0.0,0.0,0.0,0.0,0.0,0.0,0.0,0.0,0.0,0.0,0.0,0.0,0.0,0.0,0.0,0.0,0.0,0.0,0.0,-1.7596,-1.8036,0.0,0.0,0.0,0.0,-1.4942,-1.5965,-1.6691,-1.685,-1.7845,-1.8574,-1.8801,-1.8442,-1.8053,-1.7345,-1.7199,-1.6038,-1.4045,-1.3909,-1.3189,-1.2063,-1.0307,-0.9473,-0.9439,-0.7536,-0.679,-0.6558,-0.4187,-0.2956,-0.2766,-0.3008,-0.3056,-0.2967,-0.2987,-0.3226,-0.3434,0.0,0.0,0.0,0.0,0.0,0.0,0.0,0.0,0.0,0.0,0.0,0.0,0.0,-2.6583,-2.7216,-2.8309,-2.787,-2.6973,-2.5589,0.0,0.0,0.0,0.0,0.0,0.0,0.0,-2.4735,-2.6069,-2.7188,-2.7897,-2.8246,-2.8775,-2.9015,-2.9027,-2.9376,-2.914,-2.8443,-2.6488,-2.5286,-2.4671,-2.3142,-2.1956,0.0,0.0,0.0,0.0,0.0,0.0,0.0,0.0,0.0,0.0,0.0,0.0,0.0,0.0,0.0,0.0,0.0,0.0,0.0,0.0,0.0,0.0,0.0,0.0,0.0,0.0,0.0,0.0,0.0,0.0,0.0,0.0,0.0,0.0,0.0,0.0,0.0,-1.8327,-1.8446,0.0,-1.6687,-1.6389,-1.6141,-1.5763,-1.7156,-1.8031,-1.7858,-1.859,-1.9031,-1.9155,-1.9217,-1.9201,-1.8871,-1.8836,-1.7995,-1.6466,-1.5514,-1.4232,-1.2881,-1.1451,-1.0751,-1.0501,-0.893,-0.832,-0.818,-0.6259,-0.4945,-0.3953,-0.3387,-0.3172,-0.3139,-0.3183,-0.3199,-0.3302,0.0,0.0,0.0,0.0,0.0,0.0,0.0,0.0,0.0,0.0,0.0,-2.4158,-2.6426,-2.7233,-2.7961,-2.8856,-2.8404,-2.7513,-2.6012,0.0,0.0,0.0,0.0,0.0,0.0,-2.4651,-2.5671,-2.6935,-2.7645,-2.8162,-2.8522,-2.8871,-2.9124,-2.9316,-2.9665,-2.9917,-3.0013,-2.8199,-2.6744,-2.5477,-2.3782,-2.2455,-2.1322,0.0,0.0,0.0,0.0,0.0,0.0,0.0,0.0,0.0,0.0,0.0,0.0,0.0,0.0,0.0,0.0,0.0,0.0,0.0,0.0,0.0,0.0,0.0,0.0,0.0,0.0,0.0,0.0,0.0,0.0,0.0,0.0,0.0,0.0,-1.8606,-1.9569,-1.8886,-1.8836,-1.8576,-1.7966,-1.737,-1.7014,-1.7023,-1.8058,-1.8844,-1.8844,-1.937,-1.959,-1.9697,-1.9871,-1.9962,-1.9849,-1.9713,-1.8991,-1.7787,-1.6744,-1.521,-1.3362,-1.248,-1.1769,-1.1118,-0.9975,-0.9501,-0.9465,-0.789,-0.6765,-0.5884,-0.4742,-0.423,-0.423,-0.3831,-0.3732,-0.3732,0.0,0.0,0.0,0.0,0.0,0.0,0.0,0.0,0.0,0.0,0.0,-2.4191,-2.6145,-2.7086,-2.7804,-2.8561,-2.8263,-2.7851,-2.739,-2.627,0.0,0.0,0.0,0.0,-2.4029,-2.5944,-2.6947,-2.6983,-2.8005,-2.8522,-2.8534,-2.8546,-2.8847,-2.9352,-2.9364,-2.9653,-3.0134,-2.9614,-2.8605,-2.7151,-2.5204,-2.3799,-2.2674,0.0,0.0,0.0,0.0,0.0,0.0,0.0,0.0,0.0,0.0,0.0,0.0,0.0,0.0,0.0,0.0,0.0,0.0,0.0,0.0,0.0,0.0,0.0,0.0,0.0,0.0,0.0,0.0,0.0,0.0,0.0,0.0,0.0,-1.7874,-1.9088,-1.9915,-1.9582,-1.9372,-1.9399,-1.9657,-1.8225,-1.7833,-1.8952,-1.8758,-1.8972,-1.9821,-2.0136,-2.0323,-2.0263,-2.027,-2.0155,-1.9815,-1.9482,-1.8765,-1.7572,-1.7572,-1.6138,-1.3465,-1.3255,-1.2366,-1.1052,-1.0595,-1.0444,-1.0309,-0.8906,-0.8364,-0.8245,-0.6877,-0.6423,-0.6323,-0.5231,-0.4834,-0.4634,0.0,0.0,0.0,0.0,0.0,0.0,0.0,0.0,0.0,0.0,-2.4038,-2.5345,-2.7232,-2.8287,-2.8872,-2.8787,-2.8349,-2.757,-2.6214,0.0,0.0,0.0,0.0,0.0,-2.6294,-2.6698,-2.7308,-2.8077,-2.8366,-2.8703,-2.9088,-2.9472,-2.9941,-3.0458,-3.0486,-3.056,-3.0614,-3.0159,-2.9347,-2.8128,-2.5579,-2.341,-2.155,0.0,0.0,0.0,0.0,0.0,0.0,0.0,0.0,0.0,0.0,0.0,0.0,0.0,0.0,0.0,0.0,0.0,0.0,0.0,0.0,0.0,0.0,0.0,0.0,0.0,0.0,0.0,0.0,0.0,0.0,0.0,-1.9799,-2.044,-1.9806,-2.0811,-2.1852,-2.2226,-2.1813,-2.1694,-2.2102,-2.1055,-2.0632,-2.1131,-2.07,-2.0725,-2.1474,-2.0779,-2.0301,-2.027,-1.9938,-1.9591,-1.9475,-1.9482,-1.9249,-1.8887,-1.7929,-1.6866,-1.5756,-1.3868,-1.2735,-1.1955,-1.0983,-1.0623,-1.0595,-0.9918,-0.9669,-0.9431,-0.7211,-0.6423,-0.6323,-0.6024,-0.5429,-0.4734,0.0,0.0,0.0,0.0,0.0,0.0,0.0,0.0,0.0,0.0,-2.4433,-2.5775,-2.7511,-2.8438,-2.8872,-2.8562,-2.7574,-2.6521,-2.5524,0.0,0.0,0.0,0.0,-2.5745,-2.7375,-2.7488,-2.8005,-2.8847,-2.8847,-2.8991,-2.9304,-2.9845,-3.0374,-3.0891,-3.0678,-3.0761,-3.0859,-3.0216,-2.9409,-2.8415,-2.6099,-2.4135,-2.2379,-2.0112,-1.9245,-1.9182,-1.8583,-1.8082,-1.7844,-1.7624,0.0,0.0,0.0,0.0,0.0,0.0,0.0,0.0,0.0,0.0,0.0,0.0,0.0,0.0,0.0,0.0,0.0,0.0,0.0,0.0,0.0,0.0,0.0,0.0,-2.068,-2.1469,-2.1713,-2.2245,-2.2962,-2.3979,-2.3152,-2.2978,-2.4233,-2.3029,-2.2418,-2.3034,-2.2096,-2.1638,-2.1851,-2.0838,-2.0155,-1.9931,-1.9707,-1.9475,-1.9366,-1.9366,-1.9366,-1.9366,-1.8648,-1.7827,-1.6839,-1.5465,-1.3958,-1.2545,-1.1894,-1.1304,-1.0672,-1.0391,-1.0233,0.0,0.0,0.0,0.0,0.0,-0.6129,-0.4834,0.0,0.0,0.0,0.0,0.0,0.0,0.0,0.0,0.0,0.0,0.0,-2.5709,-2.7138,-2.7878,-2.8089,-2.7795,-2.6197,-2.5195,0.0,0.0,0.0,-2.5229,-2.5987,-2.6841,-2.7765,-2.827,-2.8775,-2.9304,-2.9232,-2.9304,-2.9484,-2.9893,-3.0398,-3.0963,-3.0454,-3.0449,-3.0769,-2.9852,-2.9002,-2.81,-2.6537,-2.5329,-2.4206,-2.1066,-2.0058,-2.0263,-1.9584,-1.8666,-1.788,-1.8137,0.0,0.0,0.0,0.0,0.0,0.0,0.0,0.0,0.0,0.0,0.0,0.0,0.0,0.0,0.0,0.0,0.0,0.0,0.0,0.0,0.0,0.0,0.0,0.0,-2.1646,-2.2346,-2.3519,-2.3419,-2.3699,-2.5023,-2.3785,-2.3755,-2.6001,-2.441,-2.3618,-2.4514,-2.3199,-2.2184,-2.207,0.0,0.0,0.0,0.0,-1.9815,-1.9366,-1.9366,-1.9366,-1.9366,-1.9366,-1.8737,-1.7418,-1.7273,-1.5722,-1.3276,-1.3145,-1.2261,-1.1109,-1.0717,-1.0416,-1.0099,-0.9758,-0.9628,-0.9525,-0.8524,-0.6927,-0.5133,0.0,0.0,0.0,0.0,0.0,0.0,0.0,0.0,0.0,-2.3224,-2.4253,-2.5116,-2.5963,-2.7172,-2.7272,-2.5586,-2.5303,-2.4734,0.0,0.0,-2.5928,-2.6115,-2.7181,-2.794,-2.833,-2.8462,-2.8775,-2.9304,-2.8871,-2.9316,-3.0555,-3.0242,-3.0603,-3.1517,-3.0617,-3.0214,-3.0306,-2.9301,-2.8456,-2.7641,-2.636,-2.5421,-2.4368,-2.2143,-2.1319,-2.1282,-2.0541,-2.0154,-1.9842,-1.9265,-1.8597,-1.7938,-1.7162,0.0,0.0,0.0,0.0,0.0,0.0,0.0,0.0,0.0,0.0,0.0,0.0,0.0,0.0,0.0,0.0,0.0,0.0,0.0,0.0,-2.1879,-2.264,-2.351,-2.4418,-2.4748,-2.496,-2.5144,-2.5243,-2.5729,-2.6583,-2.5513,-2.5243,-2.6427,-2.465,-2.3871,-2.4437,-2.3424,-2.2297,-2.1167,-2.106,-2.0385,-1.9366,-1.9366,-1.9366,-1.9366,0.0,0.0,-1.8564,-1.7303,-1.6339,-1.558,-1.4391,-1.3748,-1.3367,-1.2312,-1.1067,-0.9916,-0.9709,-0.9628,-0.9529,-0.9327,-0.8524,-0.7425,0.0,0.0,0.0,0.0,0.0,0.0,0.0,0.0,0.0,0.0,-2.4616,-2.5292,-2.5684,-2.6192,-2.6103,-2.5099,-2.4702,0.0,0.0,-2.5453,-2.7047,-2.7696,-2.8531,-2.9076,-2.934,-2.879,-2.8895,-2.9689,-2.9424,-2.9845,-3.0867,-3.062,-3.0807,-3.1306,-3.0306,-2.9852,-2.976,-2.9128,-2.856,-2.806,-2.6699,-2.5814,-2.5036,-2.2868,-2.1906,-2.1686,-2.1273,-2.0869,-2.0457,-2.0044,-1.9432,-1.8743,-1.8019,-1.7685,-1.7343,0.0,0.0,0.0,0.0,0.0,0.0,0.0,0.0,0.0,0.0,0.0,0.0,0.0,0.0,-1.9627,-1.9816,0.0,-2.1497,-2.2722,-2.3413,-2.4207,-2.5225,-2.5537,-2.5687,-2.5787,-2.5922,-2.6254,-2.7003,-2.6728,-2.6636,-2.7196,-2.6131,-2.5439,-2.5552,-2.3772,-2.2429,-2.1747,-2.0802,-2.0046,-1.9366,-1.9366,-1.9366,-1.9366,-1.9366,-1.9292,-1.9138,-1.8408,-1.761,-1.6646,-1.5829,-1.4981,-1.4283,-1.2777,-1.137,-1.0144,-0.9965,-0.9786,-0.9628,-0.9628,-0.8924,-0.8021,0.0,0.0,0.0,0.0,0.0,0.0,0.0,0.0,0.0,0.0,0.0,-2.5328,-2.5428,-2.5057,-2.4691,0.0,0.0,0.0,0.0,-2.5923,-2.7917,-2.8781,-2.9601,-2.991,-2.9905,-2.9052,-2.9136,-3.0086,-3.0086,-3.041,-3.1036,-3.0832,-3.0765,-3.0859,-2.9943,-2.9485,-2.9485,-2.9035,-2.8746,-2.8456,-2.6938,-2.6074,-2.5312,-2.3148,-2.208,-2.1722,-2.164,-2.1145,-2.0512,-2.0429,-1.9971,-1.9277,-1.865,-1.8556,-1.8428,-1.6946,-1.7325,0.0,0.0,0.0,0.0,0.0,0.0,0.0,0.0,-1.9184,-1.937,-1.9014,-1.9621,-2.0223,-2.0458,-2.1321,-2.2353,-2.3556,-2.4189,-2.4876,-2.5931,-2.6078,-2.6157,-2.6296,-2.6245,-2.6421,-2.7286,-2.7491,-2.7512,-2.7632,-2.73,-2.6823,-2.6345,-2.4424,-2.3092,-2.2566,-2.1285,-2.0333,-1.9707,-1.9707,-1.9597,-1.9366,-1.9366,-1.9366,-1.9366,-1.9252,-1.8627,-1.752,-1.7247,-1.6261,-1.4718,-1.349,-1.2153,-1.1048,-1.0649,-1.0288,-1.0021,-0.9788,-0.9072,-0.8361,0.0,0.0,0.0,0.0,0.0,0.0,0.0,0.0,0.0,0.0,0.0,0.0,0.0,0.0,0.0,0.0,0.0,0.0,-2.3703,-2.6506,-2.8226,-2.829,-2.9525,-2.9756,-2.8754,-2.9003,-2.9496,-3.0086,-3.0086,-3.0603,-3.1565,-3.0743,-3.0526,-3.0859,-2.9943,-2.9485,-2.9485,-2.9035,-2.8362,-2.7652,-2.6411,-2.5341,-2.4166,-2.2769,-2.208,-2.1686,-2.131,-2.0897,-2.0466,-2.0118,-1.9934,-1.9787,-1.9286,-1.8999,-1.8614,-1.8053,-1.7789,-1.7602,-1.7389,-1.7764,-1.8156,-1.833,-1.8844,-1.9307,0.0,-2.0099,-2.032,-2.0255,-2.0897,-2.1484,-2.152,-2.2786,-2.4095,-2.4556,-2.5271,-2.594,-2.6444,-2.6518,-2.638,-2.6111,-2.6289,-2.6636,-2.6989,-2.7151,-2.7289,-2.7632,-2.7658,-2.7651,-2.7642,-2.7368,-2.6487,-2.4994,-2.483,-2.3512,-2.1067,-2.0952,-2.05,-1.9366,-1.9366,-1.9366,-1.9352,-1.8824,-1.8599,-1.8678,-1.8394,-1.7386,-1.5791,-1.563,-1.473,-1.3357,-1.2195,-1.1672,-1.1504,-1.0319,-0.9754,-0.9629,0.0,0.0,0.0,0.0,0.0,0.0,0.0,0.0,0.0,0.0,0.0,0.0,0.0,0.0,0.0,0.0,0.0,0.0,-2.3151,-2.5895,-2.7643,-2.8004,-2.8859,-2.9237,-2.904,-2.8875,-2.91,-2.9629,-2.9629,-3.017,-3.1204,-3.0565,-3.0479,-3.0859,-2.9943,-2.9485,-2.9485,-2.9035,-2.8408,-2.7757,-2.6444,-2.5297,-2.4136,-2.2298,-2.1167,-2.0514,-2.0402,-1.9861,0.0,0.0,-1.9072,-1.8889,-1.8944,-1.8843,-1.8586,-1.7944,-1.788,-1.8091,-1.8321,-1.8283,-1.845,-1.9108,-1.9476,-1.9769,-2.013,-2.0529,-2.081,-2.0872,-2.1704,-2.2354,-2.2354,-2.3382,-2.4363,-2.5023,-2.5399,-2.5839,-2.6499,-2.6178,-2.5812,-2.5637,-2.5573,-2.5918,-2.6726,-2.7262,-2.7731,-2.8094,-2.8367,-2.8471,-2.8471,-2.7652,-2.6749,-2.611,-2.448,-2.2921,-2.156,-2.0762,-2.0103,-1.9366,-1.9366,-1.9366,-1.9359,-1.9112,-1.8971,-1.8911,-1.8617,-1.7566,-1.6072,-1.6035,-1.5157,-1.3986,-1.3355,-1.3131,-1.266,-1.0697,-0.9884,-0.986,0.0,0.0,0.0,0.0,0.0,0.0,0.0,0.0,0.0,0.0,0.0,0.0,0.0,0.0,0.0,0.0,0.0,0.0,0.0,-2.4964,-2.657,-2.7164,-2.7938,0.0,-2.8963,-2.8809,-2.8919,-2.9304,-2.9593,-3.0122,-3.0879,-3.0513,-3.0596,-3.0859,-3.0034,-2.9669,-2.9658,-2.9157,-2.8719,-2.8105,-2.636,-2.5077,-2.3914,-2.1683,-2.0125,-1.9112,-1.9283,-1.8724,0.0,0.0,-1.8027,-1.7834,-1.8119,-1.8137,-1.7954,-1.7539,-1.7828,-1.8281,-1.8443,-1.8555,-1.8817,-1.9528,-1.9958,-2.0295,-2.0604,-2.0997,-2.1286,-2.1314,-2.208,-2.2683,-2.2683,-2.3538,-2.439,-2.5096,-2.539,-2.5738,-2.6334,-2.5812,-2.5326,-2.5225,-2.4959,-2.517,-2.616,-2.6976,-2.7655,-2.8177,-2.859,-2.8865,-2.8975,-2.7855,-2.7178,-2.7073,-2.4899,-2.3481,-2.2798,-2.1445,-2.0378,-1.9931,-1.9597,-1.9366,-1.9366,-1.9366,-1.9158,-1.8798,-1.8664,-1.7936,-1.6792,-1.6599,-1.5928,-1.4995,-1.4674,-1.4417,-1.3838,-1.1396,-1.0433,-1.026,0.0,0.0,0.0,0.0,0.0,0.0,0.0,0.0,0.0,0.0,0.0,0.0,0.0,0.0,0.0,0.0,0.0,0.0,0.0,-2.4012,-2.4976,-2.5334,-2.693,-2.7779,-2.7729,-2.8751,-2.928,-2.9304,-3.0326,-3.0843,-3.0891,-3.0868,-3.0937,-3.0859,-3.0397,-3.0216,-3.0181,-2.9598,-2.9137,-2.8612,-2.6186,-2.4471,-2.3076,-2.099,-1.9186,-1.7821,-1.8027,0.0,0.0,0.0,-1.6954,-1.6945,-1.6963,-1.6697,-1.6459,-1.7014,-1.747,-1.7617,-1.7232,-1.818,-1.9258,-1.9279,-2.0182,-2.1053,-2.1071,-2.1392,-2.1704,-2.1713,-2.2052,-2.2346,-2.2346,-2.3336,-2.4299,-2.473,-2.5436,-2.5949,-2.5977,-2.5628,-2.5225,-2.4849,-2.4785,-2.495,-2.5362,-2.6142,-2.6949,-2.7728,-2.8177,-2.8581,-2.8966,-2.8966,-2.8783,-2.8407,-2.787,-2.6873,-2.5335,-2.3723,-2.2312,-2.1174,-1.9931,-1.9366,-1.9366,-1.9366,-1.9052,-1.8517,-1.8791,-1.8584,-1.7935,-1.7928,-1.7742,-1.7364,-1.6293,-1.5587,-1.5012,-1.2693,-1.1661,-1.1157,0.0,0.0,0.0,0.0,0.0,0.0,0.0,0.0,0.0,0.0,0.0,0.0,0.0,0.0,0.0,0.0,0.0,0.0,0.0,-2.3256,-2.4037,-2.403,-2.5363,-2.6311,-2.6635,-2.7705,-2.8246,-2.8246,-2.8967,-2.9484,-2.9833,-2.9846,-3.0024,-3.0358,-2.9914,-2.9654,-2.9642,-2.912,-2.8596,-2.7951,-2.5402,-2.3877,-2.2729,-2.0161,-1.8618,-1.7782,0.0,0.0,0.0,0.0,-1.6309,-1.6147,-1.6538,-1.6538,-1.6522,-1.6997,-1.7491,-1.7972,-1.8477,-1.9182,-1.999,-2.0412,-2.0805,-2.1181,-2.1456,-2.164,-2.1658,-2.1374,-2.1604,-2.1798,-2.1528,-2.2274,-2.315,-2.383,-2.4664,-2.5362,-2.5885,-2.5619,-2.5225,-2.4831,-2.4537,-2.4418,-2.4546,-2.5537,-2.6509,-2.7315,-2.7746,-2.8159,-2.8572,-2.8838,-2.8801,-2.8407,-2.74,-2.6423,-2.5448,-2.3951,-2.2977,-2.2418,-2.1174,-2.0162,-1.9366,-1.9366,-1.9259,-1.9058,-1.8764,-1.8524,-1.831,-1.7909,-1.7675,-1.7562,-1.6945,-1.6587,-1.6094,-1.4406,-1.3556,-1.2943,0.0,0.0,0.0,0.0,0.0,0.0,0.0,0.0,0.0,0.0,0.0,0.0,0.0,0.0,0.0,0.0,0.0,0.0,0.0,0.0,-2.3058,-2.3253,-2.4171,-2.4952,-2.5629,-2.6519,-2.7015,-2.7005,-2.7468,-2.7928,-2.824,-2.8366,-2.8643,-2.8967,-2.8821,-2.8822,-2.8728,-2.8292,-2.786,-2.7198,-2.4886,-2.3262,-2.2039,-1.9756,-1.84,0.0,0.0,0.0,0.0,0.0,-1.5704,-1.5492,-1.5879,-1.6224,-1.6534,-1.6739,-1.7541,-1.8436,-1.8995,-1.9818,-2.0541,-2.1029,-2.1218,-2.1401,-2.1676,-2.1741,-2.1621,-2.12,-2.1135,-2.1118,-2.0948,-2.125,-2.1966,-2.2877,-2.3673,-2.4442,-2.5395,-2.5173,-2.4988,-2.4968,-2.4629,-2.4436,-2.4574,-2.5289,-2.6087,-2.6903,-2.7334,-2.7801,-2.8361,-2.8489,-2.8498,-2.8397,-2.7258,-2.6514,-2.6021,-2.4624,-2.3424,-2.2305,-2.1174,-2.0162,-1.9366,-1.9366,-1.9366,-1.9332,-1.8744,-1.849,-1.8444,-1.7836,-1.7582,-1.7562,-1.7375,-1.7061,-1.658,-1.5295,-1.4606,-1.3908,0.0,0.0,0.0,0.0,0.0,0.0,0.0,0.0,0.0,0.0,0.0,0.0,0.0,0.0,0.0,0.0,0.0,0.0,0.0,0.0,0.0,-2.2929,-2.3322,-2.3888,-2.4598,-2.5318,-2.5715,-2.575,-2.6093,-2.63,-2.6359,-2.6674,-2.6767,-2.6791,-2.7296,-2.7512,-2.7488,-2.7257,-2.6854,-2.6249,-2.4542,-2.2739,-2.1041,-1.9823,0.0,0.0,0.0,0.0,0.0,-1.569,-1.5274,-1.5046,-1.5084,-1.5766,-1.6542,-1.6343,-1.7567,-1.8927,-1.9088,-1.9938,-2.0865,-2.1053,-2.1447,-2.1731,-2.1713,-2.1704,-2.1566,-2.108,-2.0634,-2.041,-2.0363,-2.041,-2.0813,-2.208,-2.2732,-2.3494,-2.4641,-2.4482,-2.459,-2.5365,-2.5069,-2.4977,-2.5335,-2.539,-2.572,-2.6499,-2.6921,-2.7481,-2.826,-2.7957,-2.793,-2.8287,-2.7572,-2.7169,-2.7141,-2.5634,-2.3768,-2.1402,-2.0162,-1.9597,-1.9482,-1.9482,-1.9359,-1.9312,-1.8738,-1.8484,-1.8424,-1.7822,-1.7582,-1.7582,-1.7562,-1.7208,-1.66,-1.5576,-1.4838,-1.41,0.0,0.0,0.0,0.0,0.0,0.0,0.0,0.0,0.0,0.0,0.0,0.0,0.0,0.0,0.0,0.0,0.0,0.0,0.0,0.0,0.0,0.0,0.0,0.0,0.0,0.0,0.0,0.0,0.0,-2.5483,-2.5306,-2.5548,-2.5436,-2.5056,-2.5493,-2.55,-2.5264,-2.5603,-2.5411,-2.4767,0.0,-2.1862,-2.0815,0.0,0.0,0.0,0.0,0.0,-1.6775,-1.6255,-1.5959,-1.5949,-1.6431,-1.6835,-1.7252,-1.7816,-1.8666,-1.9565,-2.0133,-2.0911,-2.1456,-2.1548,-2.1658,-2.1649,-2.1337,-2.1273,-2.0983,-1.9906,-1.9858,-1.9744,-1.9147,-1.9798,-2.0688,-2.1627,-2.2659,-2.3763,-2.5099,-2.5432,-2.5663,-2.5766,-2.572,-2.5582,-2.539,-2.5637,-2.5894,-2.6105,-2.6509,-2.683,-2.704,-2.7499,-2.7545,-2.7068,-2.7132,-2.704,-2.6747,-2.6299,-2.5348,-2.388,-2.2636,-2.1631,-2.0723,-1.9822,-1.9245,-1.9018,-1.8651,-1.8364,-1.813,-1.7742,-1.7582,-1.7562,-1.7341,-1.7034,-1.668,-1.6163,-1.5758,-1.5248,0.0,0.0,0.0,0.0,0.0,0.0,0.0,0.0,0.0,0.0,0.0,0.0,0.0,0.0,0.0,0.0,0.0,0.0,0.0,0.0,0.0,0.0,0.0,0.0,0.0,0.0,0.0,0.0,0.0,0.0,0.0,-2.385,-2.352,-2.3339,-2.3638,-2.3641,-2.3493,0.0,0.0,0.0,0.0,0.0,0.0,0.0,0.0,0.0,0.0,0.0,-1.7504,-1.7428,-1.711,-1.6807,-1.7329,-1.784,-1.8326,-1.8976,-1.9612,-2.0244,-2.096,-2.1429,-2.1741,-2.183,-2.1682,-2.1355,-2.1209,-2.0893,-2.042,-1.9345,-1.9409,-1.936,-1.872,-1.9221,-2.0066,-2.0938,-2.1902,-2.3057,-2.4644,-2.5219,-2.5644,-2.6151,-2.6233,-2.6142,-2.5931,-2.6105,-2.6233,-2.6233,-2.6454,-2.6664,-2.6839,-2.7105,-2.7123,-2.6857,-2.6894,-2.6811,-2.6591,-2.6026,-2.5459,-2.4787,-2.3544,-2.2418,-2.1174,-2.0359,-1.9521,-1.8905,0.0,-1.8203,-1.8023,-1.7709,-1.7582,-1.7555,-1.7261,-1.6967,-1.6667,-1.638,-1.6086,-1.5642,0.0,0.0,0.0,0.0,0.0,0.0,0.0,0.0,0.0,0.0,0.0,0.0,0.0,0.0,0.0,0.0,0.0,0.0,0.0,0.0,0.0,0.0,0.0,0.0,0.0,0.0,0.0,0.0,0.0,0.0,0.0,0.0,0.0,0.0,0.0,0.0,0.0,0.0,0.0,0.0,0.0,0.0,0.0,0.0,0.0,0.0,0.0,0.0,-1.8443,-1.8806,-1.8398,-1.7783,-1.8337,-1.8938,-1.9561,-2.0144,-2.0627,-2.1043,-2.1521,-2.172,-2.183,-2.2097,-2.1683,-2.117,-2.1155,-2.0592,-1.9869,-1.9078,-1.9103,-1.9137,-1.8736,-1.8998,-1.9494,-2.0382,-2.0983,-2.2025,-2.3908,-2.4566,-2.5219,-2.6433,-2.6554,-2.6591,-2.6591,-2.6591,-2.6591,-2.6591,-2.6536,-2.6655,-2.6995,-2.6692,-2.6683,-2.7086,-2.6765,-2.6591,-2.6591,-2.5569,-2.5008,-2.5008,-2.3656,-2.241,-2.1388,-2.0725,-1.9893,-1.8838,-1.8283,-1.8023,-1.7963,-1.7695,-1.7582,-1.7555,-1.7301,-1.7001,-1.658,-1.6426,-1.6022,-1.5547,0.0,0.0,0.0,0.0,0.0,0.0,0.0,0.0,0.0,0.0,-2.4559,0.0,0.0,0.0,0.0,0.0,0.0,0.0,0.0,0.0,0.0,0.0,0.0,0.0,0.0,0.0,0.0,0.0,0.0,0.0,0.0,0.0,0.0,0.0,0.0,0.0,0.0,0.0,0.0,0.0,0.0,0.0,0.0,0.0,0.0,0.0,0.0,-1.9818,0.0,0.0,-1.9403,-1.9202,-2.071,-2.1084,-2.1091,-2.2314,-2.2162,-2.1721,-2.2127,-2.2296,-2.2264,-2.2353,-2.2042,-2.1542,-2.1024,-2.0261,-1.9324,-1.8377,-1.8639,-1.8986,-1.8626,-1.9575,-2.0638,-2.1231,-2.1675,-2.252,-2.3953,-2.4509,-2.5126,-2.5958,-2.638,-2.6591,-2.6591,-2.6591,-2.6591,-2.6591,-2.6261,-2.6096,-2.616,-2.6105,-2.6261,-2.6683,-2.6628,-2.6591,-2.6591,-2.6364,-2.6254,-2.6245,-2.4103,-2.2869,-2.2628,-2.0281,-1.9016,-1.8551,-1.8196,0.0,-1.7655,-1.7602,-1.7582,-1.7582,-1.7528,-1.7078,-1.6312,-1.6367,-1.5816,-1.5178,0.0,0.0,0.0,0.0,0.0,0.0,0.0,0.0,0.0,0.0,-2.4954,-2.4613,0.0,0.0,0.0,0.0,0.0,0.0,0.0,0.0,0.0,0.0,0.0,0.0,0.0,0.0,-2.3632,-2.3905,0.0,0.0,0.0,-2.2183,-2.1664,0.0,0.0,0.0,0.0,0.0,0.0,0.0,0.0,0.0,0.0,0.0,0.0,0.0,0.0,0.0,-2.0768,0.0,-2.0508,-2.0406,-2.1507,-2.1556,-2.1444,-2.2838,-2.2556,-2.1921,-2.2416,-2.253,-2.252,-2.3115,-2.238,-2.1518,-2.1756,-2.0793,-1.9655,-1.8919,-1.9512,-2.0006,-1.9273,-2.0019,-2.0822,-2.109,-2.1263,-2.1902,-2.3579,-2.4207,-2.4831,-2.5839,-2.6334,-2.6591,-2.6591,-2.6591,-2.6591,-2.6591,-2.6197,-2.605,-2.627,-2.6289,-2.638,-2.6582,-2.6591,-2.6591,-2.6591,-2.6591,-2.6481,-2.6261,-2.4479,-2.3272,-2.241,-2.0318,-1.8913,-1.8243,-1.7936,-1.7722,-1.7582,-1.7483,-1.7378,-1.7351,-1.6937,-1.6451,-1.6079,-1.5789,-1.5415,-1.5083,0.0,0.0,0.0,0.0,0.0,0.0,0.0,-2.5327,-2.5439,-2.5439,-2.5188,-2.4708,-2.3929,-2.4405,-2.4609,0.0,0.0,0.0,0.0,0.0,0.0,0.0,0.0,0.0,0.0,0.0,0.0,-2.4534,-2.3349,0.0,0.0,0.0,0.0,0.0,-2.138,-2.1198,0.0,0.0,0.0,0.0,0.0,-2.13,0.0,0.0,0.0,0.0,0.0,-2.163,-2.1806,-2.1824,-2.1609,-2.1373,-2.1845,-2.166,-2.1651,-2.3196,-2.2908,-2.2255,-2.294,-2.3047,-2.3038,-2.3714,-2.2715,-2.1765,-2.2421,-2.1417,-2.017,-1.9734,-2.0574,-2.1047,-2.011,-2.0549,-2.0973,-2.0871,-2.0797,-2.1335,-2.2861,-2.3674,-2.4535,-2.5669,-2.6233,-2.6591,-2.6591,-2.6591,-2.6591,-2.6591,-2.6279,-2.6197,-2.6444,-2.6536,-2.6591,-2.6591,-2.6591,-2.6591,-2.6591,-2.6591,-2.638,-2.5958,-2.4861,-2.3453,-2.1894,-2.0377,-1.9078,-1.8029,-1.7716,-1.7582,-1.7582,-1.7279,-1.7179,-1.7127,-1.6298,-1.596,-1.5746,-1.5253,-1.5038,-1.4885,0.0,0.0,0.0,0.0,0.0,0.0,0.0,-2.5412,-2.523,-2.523,-2.5118,-2.5021,-2.5024,-2.5107,-2.5232,0.0,0.0,0.0,0.0,0.0,0.0,0.0,0.0,0.0,0.0,0.0,0.0,-2.3631,-2.3339,0.0,0.0,0.0,0.0,0.0,0.0,-2.1771,-2.1792,-2.1358,0.0,0.0,0.0,0.0,0.0,0.0,0.0,0.0,0.0,-2.2965,-2.2531,-2.2945,-2.255,-2.2053,-2.2684,-2.2336,-2.2149,-2.4323,-2.3974,-2.3183,-2.4129,-2.4327,-2.4155,-2.3396,-2.3062,-2.2894,-2.2268,-2.1174,-2.0264,-2.0522,-2.0838,-2.0934,-2.0668,-2.1431,-2.1859,-2.1177,-2.1415,-2.1797,-2.1967,-2.3171,-2.4259,-2.484,-2.5894,-2.6591,-2.6591,-2.6591,-2.6591,-2.6591,-2.6554,-2.638,-2.6041,-2.638,-2.6591,-2.6591,-2.6591,-2.6591,-2.6591,-2.6591,-2.638,-2.5958,-2.4744,-2.3444,-2.1894,-2.0384,-1.9092,-1.8029,-1.7716,-1.7582,0.0,-1.7279,-1.7179,-1.7147,-1.6509,-1.5921,-1.5456,-1.5165,-1.4801,-1.4394,0.0,0.0,0.0,0.0,0.0,0.0,0.0,-2.5397,-2.523,-2.5369,-2.5188,-2.5005,-2.5061,-2.5174,-2.5342,0.0,0.0,0.0,0.0,0.0,0.0,0.0,0.0,0.0,0.0,0.0,-2.4861,-2.464,-2.4205,0.0,0.0,0.0,0.0,0.0,0.0,-2.1988,-2.2014,-2.2097,0.0,0.0,0.0,0.0,0.0,0.0,0.0,0.0,0.0,0.0,-2.3403,-2.3558,-2.3047,-2.2438,-2.2907,-2.2628,-2.2413,-2.3954,-2.3688,-2.3041,-2.3804,-2.4291,-2.4584,-2.4648,-2.409,-2.3567,-2.4073,-2.288,-2.1652,-2.1822,-2.2188,-2.2321,-2.1946,-2.1993,-2.1957,-2.151,-2.1163,-2.1052,-2.1346,-2.2181,-2.3114,-2.4259,-2.5321,-2.605,-2.6536,-2.6591,-2.6591,-2.6591,-2.6591,-2.6518,-2.6344,-2.6499,-2.6591,-2.6591,-2.6591,-2.6463,-2.6215,-2.6215,-2.5885,-2.5252,-2.4062,-2.2791,-2.1282,-2.0001,-1.8801,-1.7762,-1.7635,-1.7582,0.0,-1.7054,-1.6852,-1.6567,-1.5875,-1.5398,-1.5034,-1.4753,-1.4485,-1.4298,0.0,0.0,0.0,0.0,0.0,0.0,-2.5134,-2.5218,-2.5188,-2.5313,-2.5131,-2.5005,-2.5005,-2.5061,-2.523,-2.5453,0.0,0.0,0.0,0.0,0.0,0.0,0.0,0.0,0.0,0.0,-2.5441,-2.5137,-2.4773,-2.4394,0.0,0.0,-2.2816,-2.2423,0.0,0.0,0.0,0.0,0.0,0.0,0.0,0.0,0.0,0.0,0.0,0.0,0.0,0.0,0.0,0.0,0.0,-2.304,-2.322,-2.3046,0.0,-2.3699,-2.3537,-2.3251,-2.4079,-2.4687,-2.5123,-2.5445,-2.4988,-2.4525,-2.4969,-2.3982,-2.2919,-2.2874,-2.3125,-2.3271,-2.2811,-2.2494,-2.2125,-2.1565,-2.1023,-2.0766,-2.1011,-2.1451,-2.2254,-2.3398,-2.4188,-2.5015,-2.5977,-2.6415,-2.6591,-2.6591,-2.6591,-2.6591,-2.6591,-2.6591,-2.6591,-2.6591,-2.6591,-2.6389,-2.5968,-2.5958,-2.5564,-2.4785,-2.4034,-2.2784,-2.1293,-2.0261,-1.9131,-1.8094,-1.7687,-1.7483,0.0,-1.6753,-1.6396,-1.6091,-1.5413,-1.495,-1.4696,-1.4491,-1.437,-1.4298,0.0,0.0,0.0,0.0,0.0,0.0,0.0,-2.4681,-2.5005,-2.5005,-2.5005,-2.5005,-2.5005,-2.5005,-2.5005,-2.5005,0.0,0.0,0.0,0.0,0.0,0.0,0.0,0.0,0.0,0.0,-2.5232,-2.4609,-2.478,-2.4766,-2.4581,-2.4048,-2.3447,-2.2791,0.0,0.0,0.0,0.0,0.0,0.0,0.0,0.0,0.0,0.0,0.0,0.0,0.0,0.0,0.0,0.0,0.0,0.0,0.0,0.0,0.0,0.0,-2.3781,-2.4152,-2.5253,-2.597,-2.6189,-2.5201,-2.5611,-2.5836,-2.4261,-2.3879,-2.3729,-2.3593,-2.3509,-2.3283,-2.2969,-2.2909,-2.2531,-2.1325,-2.1262,-2.1282,-2.1001,-2.1281,-2.1678,-2.2288,-2.2573,-2.3314,-2.4604,-2.5848,-2.6591,-2.6591,-2.6591,0.0,-2.6591,-2.6591,-2.6591,-2.6591,-2.6591,-2.6389,-2.5968,-2.5958,-2.5564,-2.4785,-2.4785,-2.394,-2.2426,-2.1395,-2.0261,-1.9124,-1.7793,-1.7179,0.0,-1.6248,-1.5927,-1.5896,-1.5318,-1.495,-1.4714,-1.4714,-1.4533,-1.4298,0.0,0.0,0.0,0.0,0.0,0.0,0.0,-2.4302,-2.4363,-2.4363,-2.4363,-2.4363,-2.4363,-2.4523,-2.4708,-2.4835,0.0,0.0,0.0,0.0,0.0,0.0,0.0,0.0,0.0,0.0,0.0,-2.549,-2.5341,-2.5232,-2.4984,-2.4218,-2.3514,-2.2818,-2.2565,-2.2246,0.0,0.0,0.0,0.0,0.0,0.0,0.0,0.0,0.0,0.0,0.0,0.0,0.0,0.0,0.0,0.0,0.0,0.0,0.0,-2.3429,-2.3571,-2.3985,-2.4271,-2.5148,-2.5859,-2.521,-2.5672,-2.6103,-2.5033,-2.4518,-2.4227,-2.3961,-2.376,-2.3569,-2.3688,-2.3463,-2.3078,-2.2543,-2.2113,-2.1729,-2.1318,-2.1322,-2.1768,-2.3057,-2.4469,-2.5563,-2.5977,-2.6387,-2.6591,-2.6591,-2.6325,-2.616,-2.616,-2.5903,-2.5885,-2.6151,-2.616,-2.583,-2.5161,-2.5161,-2.4886,-2.4354,-2.3935,-2.2831,-2.1057,-2.0349,-1.9117,-1.745,-1.6847,-1.6669,-1.6804,-1.5919,-1.563,-1.5605,-1.5038,-1.4672,-1.4431,-1.4431,-1.4377,-1.4298,0.0,0.0,0.0,0.0,0.0,0.0,0.0,-2.3929,-2.4131,-2.4131,-2.4131,-2.4118,-2.4176,-2.4305,-2.4421,-2.4593,0.0,0.0,0.0,0.0,0.0,0.0,0.0,0.0,0.0,0.0,-2.5784,-2.5564,-2.5536,-2.5369,-2.5104,-2.4514,-2.37,-2.2724,-2.267,-2.2207,0.0,0.0,0.0,0.0,0.0,0.0,-2.4008,0.0,0.0,0.0,0.0,0.0,0.0,0.0,0.0,0.0,0.0,0.0,0.0,0.0,-2.3541,-2.4013,-2.4174,-2.5119,-2.6019,-2.5873,-2.6206,-2.6392,-2.5702,-2.5088,-2.4615,-2.4445,-2.402,-2.376,-2.4008,-2.37,-2.3271,-2.2919,-2.2298,-2.1954,-2.2047,-2.1514,-2.1507,-2.2695,-2.4354,-2.5413,-2.5413,-2.5872,-2.6133,-2.6133,-2.5885,-2.5674,-2.5518,-2.5427,-2.5344,-2.528,-2.5573,-2.5427,-2.4785,-2.4785,-2.4574,-2.4152,-2.3637,-2.2501,-2.1049,-2.0033,-1.874,-1.718,-1.6497,-1.6154,0.0,-1.5531,-1.5251,-1.5132,-1.4874,-1.4545,-1.431,-1.4419,-1.4389,-1.4298,0.0,0.0,0.0,0.0,0.0,0.0,0.0,0.0,0.0,0.0,-2.3989,-2.4073,-2.4234,-2.4157,-2.4157,0.0,0.0,0.0,0.0,0.0,0.0,0.0,0.0,0.0,0.0,-2.5564,-2.5619,-2.5061,-2.5313,-2.5313,-2.5005,-2.4835,-2.4019,-2.2682,-2.2777,-2.2193,0.0,0.0,0.0,0.0,0.0,0.0,0.0,0.0,0.0,0.0,0.0,0.0,0.0,0.0,0.0,0.0,0.0,0.0,0.0,0.0,0.0,0.0,0.0,-2.5654,-2.6465,-2.6954,-2.7018,-2.6819,-2.6217,-2.5534,0.0,-2.4975,-2.4398,-2.3891,-2.3891,-2.3641,-2.321,-2.2628,-2.2063,-2.2092,-2.3155,-2.2121,-2.1332,-2.1598,-2.282,-2.3636,-2.358,-2.4618,-2.5335,-2.5372,-2.5289,-2.5096,-2.4757,-2.5032,-2.4849,-2.4088,-2.4831,-2.5078,-2.4739,-2.4739,-2.4537,-2.4152,-2.3637,-2.2811,-2.1887,-2.0341,-1.8942,0.0,-1.6407,-1.5741,0.0,-1.4898,-1.4696,-1.4714,-1.4696,-1.4527,-1.4328,-1.4594,-1.4521,-1.4298,0.0,0.0,0.0,0.0,0.0,0.0,0.0,0.0,0.0,0.0,-2.3098,-2.3424,-2.3734,-2.3878,-2.4041,0.0,0.0,0.0,0.0,0.0,0.0,0.0,0.0,0.0,0.0,-2.5784,-2.5839,-2.5674,-2.53,-2.5075,-2.5005,-2.4505,-2.3835,-2.3083,-2.3083,0.0,0.0,0.0,0.0,0.0,0.0,0.0,0.0,0.0,0.0,0.0,-2.4305,-2.4247,0.0,0.0,0.0,0.0,0.0,0.0,0.0,0.0,-2.3569,-2.4118,-2.4255,0.0,-2.5936,-2.6129,-2.6778,-2.7063,0.0,-2.561,-2.5436,-2.4883,-2.4099,-2.3641,-2.3995,-2.37,-2.3463,-2.3688,-2.3318,-2.3319,-2.421,-2.4336,-2.3801,-2.2583,-2.391,-2.4748,-2.4305,-2.4701,-2.5041,-2.5353,-2.45,-2.407,-2.429,-2.3804,-2.3437,-2.3244,-2.3721,-2.4079,-2.4299,-2.4299,-2.4253,-2.4152,-2.3637,-2.2299,-2.0444,-1.9627,-1.8123,-1.6097,-1.5487,0.0,-1.5166,-1.4594,-1.4521,-1.4696,-1.4479,-1.4358,-1.4304,-1.437,-1.4352,-1.4298,0.0,0.0,0.0,0.0,0.0,0.0,0.0,0.0,0.0,0.0,0.0,0.0,0.0,0.0,0.0,0.0,0.0,0.0,0.0,0.0,0.0,0.0,0.0,0.0,0.0,-2.5699,-2.5644,-2.5093,-2.5037,-2.5005,-2.5005,-2.4492,-2.4059,-2.3575,-2.3212,0.0,0.0,0.0,0.0,0.0,-2.4182,0.0,0.0,0.0,0.0,0.0,-2.435,-2.4292,0.0,-2.4524,-2.4922,-2.5275,0.0,0.0,0.0,0.0,-2.345,-2.3875,-2.3988,-2.4871,-2.589,-2.6138,-2.6622,-2.6778,-2.6065,-2.5534,-2.5081,-2.4783,-2.3965,-2.345,-2.3995,-2.3786,-2.371,-2.4193,-2.3925,-2.3793,-2.4188,-2.4893,-2.4909,-2.353,-2.4249,-2.4712,-2.435,-2.4288,-2.4299,-2.4519,-2.3749,-2.329,-2.3308,-2.3088,-2.2868,-2.2667,-2.2966,-2.3382,-2.3602,-2.3785,-2.3785,-2.3602,-2.2806,-2.1387,-1.9567,-1.8782,-1.7211,-1.5131,-1.4992,0.0,-1.4714,-1.4419,-1.4389,-1.4509,-1.4358,-1.4298,-1.4298,-1.4298,-1.4298,-1.4298,0.0,0.0,0.0,0.0,0.0,0.0,0.0,0.0,0.0,0.0,0.0,0.0,0.0,0.0,0.0,0.0,0.0,0.0,0.0,0.0,0.0,0.0,0.0,-2.5328,-2.4653,-2.5464,-2.5369,-2.4313,-2.483,-2.5116,-2.5197,-2.4734,-2.4356,-2.4081,-2.3366,0.0,0.0,0.0,0.0,0.0,-2.4279,0.0,0.0,0.0,0.0,0.0,0.0,0.0,0.0,-2.4262,-2.4883,-2.5524,-2.4557,0.0,0.0,0.0,0.0,0.0,-2.3865,-2.4796,-2.5892,-2.653,-2.6544,-2.6478,-2.6465,-2.546,-2.4589,-2.4638,-2.3882,-2.3343,-2.3922,-2.3834,-2.3841,-2.4502,-2.4501,-2.4303,-2.4058,-2.49,-2.5219,-2.4254,-2.405,-2.4022,-2.4008,-2.3556,-2.3382,-2.3446,-2.2939,-2.2546,-2.2337,-2.2602,-2.2602,-2.2245,-2.2639,-2.2738,-2.2674,-2.3226,-2.329,-2.2866,-2.1986,-2.0611,-1.9018,-1.8072,-1.6547,-1.4714,0.0,0.0,-1.4298,-1.4298,-1.4298,-1.4298,-1.4298,-1.4298,-1.4298,-1.4298,-1.4298,-1.4298,0.0,0.0,0.0,0.0,0.0,0.0,0.0,0.0,0.0,0.0,0.0,0.0,0.0,0.0,0.0,0.0,0.0,0.0,0.0,0.0,0.0,0.0,0.0,-2.5314,-2.5356,-2.5687,-2.5701,-2.5301,-2.5397,-2.5673,-2.6142,-2.5037,-2.4368,-2.4084,-2.4081,-2.4033,-2.3966,-2.4393,-2.47,-2.4813,-2.4637,0.0,0.0,0.0,0.0,0.0,0.0,0.0,0.0,-2.478,-2.4949,-2.5066,-2.4896,0.0,0.0,0.0,0.0,0.0,-2.3667,-2.4469,-2.5562,-2.6466,-2.671,-2.6735,-2.6883,-2.5986,-2.5039,-2.4632,-2.3903,-2.3422,-2.3704,-2.3601,-2.3773,-2.4786,-2.5777,-2.619,-2.5493,-2.5579,-2.5186,-2.3914,-2.3419,-2.3047,-2.2908,-2.264,-2.2667,-2.2921,-2.2346,-2.2043,-2.2309,-2.2071,-2.1896,-2.1823,-2.2208,-2.2263,-2.1924,-2.2574,-2.2921,-2.2857,-2.2366,-2.0987,-1.9018,-1.8452,-1.6929,-1.4714,0.0,-1.4558,-1.4298,-1.4298,-1.4298,-1.4298,-1.4298,-1.4298,-1.4298,-1.4298,-1.4298,-1.4298,0.0,0.0,0.0,0.0,0.0,0.0,0.0,0.0,0.0,0.0,0.0,0.0,0.0,0.0,0.0,0.0,0.0,0.0,0.0,0.0,0.0,0.0,-2.5658,-2.5646,-2.5106,-2.5616,-2.5576,-2.4983,-2.5149,-2.5381,-2.574,-2.5339,-2.4716,-2.3883,-2.4517,-2.442,-2.387,-2.4346,-2.4607,-2.4778,0.0,0.0,0.0,0.0,0.0,0.0,0.0,0.0,0.0,0.0,-2.4713,-2.4909,-2.4416,0.0,0.0,0.0,0.0,0.0,-2.3133,-2.3854,-2.4861,-2.5396,-2.6,-2.6364,-2.6143,-2.5611,-2.5028,-2.4443,-2.3763,-2.3443,-2.3976,-2.3825,-2.3916,-2.5083,-2.6165,-2.6375,-2.5126,-2.4934,-2.4556,-2.3491,-2.3111,-2.2931,-2.2825,-2.2456,-2.2401,-2.2593,-2.2071,-2.1814,-2.1997,-2.1832,-2.1741,-2.1741,-2.1915,-2.1735,-2.1365,-2.1735,-2.1915,-2.1823,-2.1168,-1.9837,-1.811,-1.7558,-1.6339,-1.4491,0.0,-1.4419,-1.4298,-1.4298,-1.4298,-1.4298,-1.4298,-1.4298,-1.4298,-1.4298,-1.4298,-1.4298,0.0,0.0,0.0,0.0,0.0,0.0,0.0,0.0,0.0,0.0,0.0,0.0,0.0,0.0,0.0,0.0,0.0,0.0,0.0,0.0,-2.5585,-2.541,-2.6047,-2.598,-2.4952,-2.5506,-2.5451,-2.4722,-2.5011,-2.5131,-2.5174,-2.5535,-2.5065,-2.3811,-2.4633,-2.4523,-2.3698,-2.4178,-2.4478,-2.4563,0.0,0.0,0.0,0.0,0.0,0.0,0.0,0.0,0.0,0.0,0.0,0.0,0.0,0.0,0.0,-2.3276,-2.3271,-2.3343,-2.2862,-2.3418,-2.4192,-2.414,0.0,-2.5779,-2.5685,-2.5419,-2.505,-2.4731,-2.4169,-2.3839,-2.423,-2.408,-2.4232,-2.5154,-2.5965,-2.6086,-2.4944,-2.4395,-2.3877,-2.3329,-2.2911,-2.2716,-2.274,-2.2437,-2.219,-2.219,-2.1906,-2.1741,-2.1741,-2.1741,-2.1741,-2.1741,-2.1741,-2.1463,-2.0997,-2.0907,-2.0817,-2.0817,-2.0002,-1.8796,-1.7296,-1.6857,-1.5724,-1.4298,-1.4298,-1.4298,-1.4298,-1.4298,-1.4298,-1.4298,-1.4298,-1.4298,-1.4298,-1.4298,-1.4298,-1.4298,0.0,0.0,0.0,0.0,0.0,0.0,0.0,0.0,0.0,0.0,0.0,0.0,0.0,0.0,0.0,0.0,0.0,0.0,0.0,0.0,-2.5293,-2.5032,-2.589,-2.6088,-2.5439,-2.5481,-2.5481,-2.5439,-2.5481,-2.5313,-2.5018,-2.5619,-2.5231,-2.4047,-2.4292,-2.4323,-2.4239,-2.4465,-2.462,-2.4549,-2.4363,0.0,0.0,0.0,0.0,0.0,0.0,0.0,0.0,0.0,0.0,0.0,0.0,0.0,-2.3454,-2.3416,-2.3271,-2.313,-2.3142,-2.3668,-2.4018,-2.3282,-2.3754,-2.4871,-2.6491,-2.5975,-2.5301,-2.5912,-2.5563,-2.4909,-2.4184,-2.439,-2.4684,-2.4718,-2.5318,-2.5753,-2.6019,-2.4534,-2.359,-2.388,-2.264,-2.1906,-2.2327,-2.2006,-2.1777,-2.1777,-2.175,-2.1741,-2.1741,-2.1741,-2.1741,-2.1741,-2.1741,-2.1463,-2.0997,-2.0555,-2.0382,-2.0382,-1.9828,-1.8796,-1.7296,-1.6857,-1.5724,-1.4298,-1.4298,-1.4298,-1.4298,-1.4298,-1.4298,-1.4298,-1.4298,-1.4298,-1.4298,-1.4298,-1.4298,-1.4298,0.0,0.0,0.0,0.0,0.0,0.0,0.0,0.0,0.0,0.0,0.0,0.0,0.0,0.0,0.0,0.0,0.0,0.0,0.0,0.0,-2.5758,-2.5425,-2.616,-2.6259,-2.5757,-2.5743,-2.5883,-2.6174,-2.5876,-2.5632,-2.5329,-2.5239,-2.4834,-2.4112,-2.4434,-2.4434,-2.4216,-2.4376,-2.4376,-2.4287,-2.4216,-2.4216,0.0,0.0,0.0,0.0,0.0,0.0,0.0,0.0,-2.3936,-2.3747,0.0,-2.333,-2.3343,-2.3042,-2.303,-2.2994,-2.2676,-2.3101,-2.3502,-2.2678,-2.3245,0.0,0.0,-2.5419,-2.5552,-2.5612,-2.5849,-2.5676,-2.465,-2.4873,-2.4878,-2.4258,-2.4924,-2.5185,-2.4211,-2.3464,-2.292,-2.2631,-2.2082,-2.1796,-2.1942,-2.1823,-2.1741,-2.1741,-2.1741,-2.1741,-2.1741,-2.1741,-2.1741,-2.1741,-2.1741,-2.1463,-2.0997,-2.0555,-2.0102,-1.9828,-1.9371,-1.8535,-1.7498,-1.6857,-1.6008,-1.4962,-1.449,-1.4298,-1.4298,-1.4298,-1.4298,-1.4298,-1.4298,-1.4298,-1.4298,-1.4298,-1.4298,-1.4298,0.0,0.0,0.0,0.0,0.0,0.0,0.0,0.0,0.0,0.0,0.0,0.0,0.0,0.0,0.0,0.0,0.0,0.0,0.0,0.0,-2.5816,-2.5536,-2.616,-2.6357,-2.5907,-2.5893,-2.6092,-2.6493,-2.6075,-2.5675,-2.5311,-2.4909,-2.4492,-2.4112,-2.4447,-2.439,-2.4112,-2.4247,-2.4203,-2.4112,-2.4157,-2.4157,0.0,0.0,0.0,0.0,0.0,0.0,0.0,0.0,-2.376,-2.345,0.0,-2.2969,-2.2969,-2.2555,-2.2665,-2.2812,-2.2452,-2.2678,-2.2903,-2.2585,0.0,0.0,-2.4184,-2.5088,-2.5825,-2.6008,-2.6299,-2.6166,-2.498,-2.513,-2.507,-2.3939,-2.441,-2.4478,-2.2969,-2.2627,-2.2264,-2.1741,-2.1741,-2.1741,-2.1741,-2.1741,-2.1741,-2.1741,-2.1741,-2.1741,-2.1741,-2.1741,-2.1741,-2.1741,-2.1553,-2.1275,-2.0817,-2.0283,-1.9828,-1.9371,-1.9012,-1.845,-1.7692,-1.6958,-1.6204,-1.5337,-1.458,-1.4298,-1.4298,-1.4298,-1.4298,-1.4298,-1.4298,-1.4298,-1.4298,-1.4298,-1.4298,-1.4298,0.0,0.0,0.0,0.0,0.0,0.0,0.0,0.0,0.0,0.0,0.0,0.0,0.0,0.0,0.0,0.0,0.0,0.0,0.0,-2.5095,-2.5338,-2.5201,-2.5947,-2.6216,-2.5907,-2.5893,-2.6036,-2.6293,-2.6004,-2.5588,-2.5005,-2.4637,-2.4363,-2.4112,-2.4112,-2.4112,-2.4112,-2.4247,-2.4203,-2.4112,-2.4261,-2.4203,-2.4125,0.0,0.0,0.0,0.0,0.0,0.0,0.0,-2.3509,-2.3271,0.0,0.0,-2.2359,-2.1987,-2.2111,-2.2418,-2.2619,-2.2415,-2.2325,-2.3097,-2.3271,0.0,-2.4129,-2.5088,-2.6134,-2.7423,-2.7131,-2.6229,-2.4899,-2.5065,-2.5004,-2.3876,-2.3731,-2.3551,-2.2882,-2.2176,-2.1741,-2.1741,-2.1741,-2.1741,-2.1741,-2.1741,-2.1741,-2.1741,-2.1741,-2.1741,-2.1741,-2.1741,-2.1741,-2.1741,-2.1275,-2.0826,-2.0292,-1.9828,-1.9371,-1.8827,-1.8827,-1.845,-1.7692,-1.6958,-1.6197,-1.5337,-1.458,-1.4298,-1.4298,-1.4298,-1.4298,-1.4298,-1.4298,-1.4298,-1.4298,-1.4298,-1.4298,-1.4298,0.0,0.0,0.0,0.0,0.0,0.0,0.0,0.0,0.0,0.0,0.0,0.0,0.0,0.0,0.0,0.0,0.0,0.0,0.0,-2.4895,-2.5024,-2.5174,-2.5408,-2.5604,-2.5605,-2.5881,-2.6228,-2.6637,-2.6062,-2.5747,-2.5615,-2.4691,-2.4157,-2.4112,-2.4112,-2.4112,-2.4112,-2.4157,-2.4171,-2.4151,-2.4603,-2.476,-2.4713,0.0,0.0,0.0,0.0,0.0,0.0,0.0,0.0,0.0,-2.2371,0.0,-2.1987,-2.1663,-2.1714,-2.1812,-2.1371,-2.2078,-2.2799,-2.2324,-2.3397,-2.4531,-2.4389,-2.5121,-2.606,-2.7091,-2.6526,-2.5779,-2.539,-2.5132,-2.4644,-2.3387,-2.3543,-2.3367,-2.2176,-2.182,-2.1741,-2.1741,-2.1741,-2.1741,-2.1741,-2.1741,-2.1741,-2.1741,-2.1741,-2.1741,-2.1741,-2.1741,-2.1741,-2.1741,-2.1275,-2.0907,-2.0817,-2.0002,-1.9554,-1.9371,-1.9012,-1.8735,-1.845,-1.7145,-1.6487,-1.6197,-1.4867,-1.4298,-1.4298,-1.4298,-1.4298,-1.4298,-1.4298,-1.4298,-1.4298,-1.4298,-1.4298,-1.4298,0.0,0.0,0.0,0.0,0.0,0.0,0.0,0.0,0.0,0.0,0.0,0.0,0.0,0.0,0.0,0.0,0.0,0.0,0.0,0.0,-2.4835,-2.5118,-2.5174,-2.53,-2.5494,-2.5656,-2.5878,-2.6161,-2.5778,-2.5472,-2.5347,-2.4503,-2.4112,-2.4112,-2.4112,-2.4112,-2.4112,-2.4157,-2.4157,-2.421,-2.4773,-2.4938,-2.4827,0.0,0.0,0.0,0.0,0.0,0.0,0.0,0.0,0.0,-2.18,0.0,-2.1383,-2.1516,-2.1423,-2.1464,-2.1727,-2.2191,-2.2578,-2.2674,-2.3421,-2.414,-2.4276,-2.5187,-2.6223,-2.6724,-2.6542,-2.6118,-2.5779,-2.5387,-2.4735,-2.3494,-2.3363,-2.3038,-2.182,-2.1741,-2.1741,-2.1741,-2.1741,-2.1741,-2.1741,-2.1741,-2.1741,-2.1741,-2.1741,-2.1741,-2.1741,-2.1741,-2.1642,-2.1463,-2.1006,-2.0637,-2.0456,-1.9637,-1.9279,-1.9279,-1.8912,-1.8827,-1.8735,-1.7613,-1.6857,-1.6487,-1.4962,-1.4298,-1.4298,-1.4298,-1.4298,-1.4298,-1.4298,-1.4298,-1.4298,-1.4298,-1.4298,-1.4298,0.0,0.0,0.0,0.0,0.0,0.0,0.0,0.0,0.0,0.0,0.0,0.0,0.0,0.0,0.0,0.0,0.0,0.0,0.0,0.0,-2.4734,-2.4948,-2.5118,-2.5244,-2.5383,-2.5244,-2.5174,-2.5118,-2.5258,-2.5069,-2.4523,-2.4268,-2.4191,-2.4191,-2.4191,-2.4191,-2.4191,-2.4274,-2.4292,-2.4345,-2.4747,-2.4741,-2.4625,-2.4786,0.0,0.0,0.0,0.0,0.0,0.0,0.0,0.0,-2.1083,-2.07,-2.066,-2.1305,-2.1277,-2.132,-2.296,-2.2526,-2.197,-2.3632,-2.3401,-2.3028,-2.4009,-2.5283,-2.6257,-2.6386,-2.6755,-2.6801,-2.5968,-2.56,-2.5062,-2.3887,-2.3212,-2.253,-2.182,-2.1741,-2.1741,-2.1741,-2.1741,-2.1741,-2.1741,-2.1741,-2.1741,-2.1741,-2.1741,-2.1741,-2.1741,-2.1651,-2.1454,-2.0988,-2.0464,-2.0011,-1.9637,-1.9104,-1.8827,-1.8827,-1.8827,-1.8827,-1.8735,-1.8071,-1.7232,-1.6393,-1.4962,-1.4298,-1.4298,-1.4298,-1.4298,-1.4298,-1.4298,-1.4298,-1.4298,-1.4298,-1.4298,-1.4298,0.0,0.0,0.0,0.0,0.0,0.0,0.0,0.0,0.0,0.0,0.0,0.0,0.0,0.0,0.0,0.0,0.0,0.0,0.0,0.0,-2.4778,-2.4835,-2.4892,-2.4835,-2.4708,-2.4835,-2.4778,-2.4465,-2.4642,-2.4642,-2.4523,-2.4734,-2.4792,-2.4792,-2.4792,-2.4792,-2.4753,-2.4354,-2.4203,-2.4345,-2.4627,-2.4736,-2.4645,-2.4336,-2.4113,0.0,0.0,0.0,0.0,0.0,0.0,0.0,-2.0764,-2.0442,-2.0194,-2.0052,-2.0731,-2.1417,-2.0989,-2.2023,-2.3167,-2.3003,-2.3441,-2.3977,-2.4239,-2.4592,-2.4968,-2.5273,-2.5745,-2.5895,-2.5221,-2.5115,-2.4594,-2.3222,-2.2882,-2.253,-2.182,-2.1741,-2.1741,-2.1741,-2.1741,-2.1741,-2.1741,-2.1741,-2.1741,-2.1741,-2.1741,-2.1741,-2.1741,-2.1365,-2.1087,-2.0997,-2.0184,-1.9737,-1.9637,-1.9104,-1.8827,0.0,-1.8827,-1.8827,-1.8735,-1.8071,-1.6936,-1.5629,-1.4675,-1.4298,-1.4298,-1.4298,-1.4298,-1.4298,-1.4298,-1.4298,-1.4298,-1.4298,-1.4298,-1.4298,0.0,0.0,0.0,0.0,0.0,0.0,0.0,0.0,0.0,0.0,0.0,0.0,0.0,0.0,0.0,0.0,0.0,0.0,0.0,0.0,0.0,0.0,-2.4593,-2.4478,-2.4536,-2.4492,-2.439,-2.4203,-2.4478,-2.4478,-2.4319,-2.4472,-2.4557,-2.4557,-2.4557,-2.4557,-2.4543,-2.4243,-2.4099,-2.4067,-2.44,-2.4464,-2.4232,-2.4052,-2.3803,-2.3466,-2.2764,0.0,0.0,0.0,0.0,0.0,0.0,0.0,-1.99,-2.006,-2.0346,-2.0775,-2.1203,-2.2004,-2.2689,-2.28,-2.3224,-2.3685,-2.3685,-2.3743,-2.3919,-2.4282,-2.4968,-2.5376,-2.4946,-2.4594,-2.3993,-2.2969,-2.253,-2.2176,-2.1731,-2.1741,-2.1741,-2.1741,-2.1741,-2.1741,-2.1741,-2.1741,-2.1741,-2.1741,-2.1741,-2.1741,-2.1741,-2.1266,-2.0907,-2.0645,-2.0002,-1.9463,-1.9188,-1.892,-1.8827,-1.8827,-1.8827,-1.8827,-1.8735,-1.7699,-1.6763,-1.5913,-1.4771,-1.4298,-1.4298,-1.4298,-1.4298,-1.4298,-1.4298,-1.4298,-1.4298,-1.4298,-1.4298,-1.4298,0.0,0.0,0.0,0.0,0.0,0.0,0.0,0.0,0.0,0.0,0.0,0.0,0.0,0.0,0.0,0.0,0.0,0.0,0.0,0.0,0.0,0.0,-2.4376,-2.4261,-2.4447,-2.4229,-2.4054,-2.3995,-2.446,-2.4546,-2.4197,-2.4406,-2.451,-2.4557,-2.4452,-2.4413,-2.44,-2.4132,-2.3923,-2.3832,-2.4067,-2.3965,-2.3688,-2.3714,-2.3368,-2.2884,-2.2604,-2.1975,-2.1262,-2.1071,0.0,0.0,0.0,0.0,-1.9613,-2.0175,-2.0079,-2.0111,-2.1701,-2.1876,-2.1849,-2.2783,-2.3001,-2.3001,-2.3001,-2.3001,-2.3143,-2.3624,-2.4353,-2.4859,-2.4661,-2.4018,-2.3377,-2.2706,-2.2087,-2.1741,-2.1741,-2.1741,-2.1741,-2.1741,-2.1741,-2.1713,-2.164,-2.1695,-2.1704,-2.163,-2.1695,-2.1741,-2.1741,-2.1266,-2.0817,-2.0292,-1.9828,-1.9371,-1.8827,-1.8827,-1.8827,-1.8827,-1.8827,-1.8827,-1.8735,-1.7419,-1.6676,-1.6487,-1.4962,-1.4298,-1.4298,-1.4298,-1.4298,-1.4298,-1.4298,-1.4298,-1.4298,-1.4298,-1.4298,-1.4298,0.0,0.0,0.0,0.0,0.0,0.0,0.0,0.0,0.0,0.0,0.0,0.0,0.0,0.0,0.0,0.0,0.0,0.0,-2.4948,0.0,0.0,-2.4067,-2.4332,-2.4261,-2.3747,-2.3995,-2.3936,-2.3688,-2.4326,-2.4693,-2.4663,-2.5612,-2.6219,-2.6308,-2.5811,-2.5602,-2.5462,-2.4232,-2.3747,-2.3734,-2.3286,-2.314,-2.3138,-2.2739,-2.2407,-2.2075,-2.1901,-2.1336,-2.07,-2.07,-2.0248,0.0,0.0,0.0,-1.9208,-1.9271,-1.9857,-2.0425,-2.0228,-2.0981,-2.1972,-2.2796,-2.3001,-2.3001,-2.3001,-2.3001,-2.3143,-2.3624,-2.3688,-2.3544,-2.3345,-2.314,-2.2706,-2.1998,-2.1731,-2.1741,-2.1741,-2.1741,-2.1741,-2.1741,-2.1741,-2.1594,-2.1227,-2.152,-2.1585,-2.1218,-2.153,-2.1741,-2.1741,-2.1266,-2.0817,-2.0292,-1.9828,-1.9371,-1.8827,-1.8827,-1.8827,-1.8827,-1.8827,-1.8827,-1.8735,-1.7971,-1.7232,-1.6487,-1.4962,-1.4298,-1.4298,-1.4298,-1.4298,-1.4298,-1.4298,-1.4298,-1.4298,-1.4298,-1.4298,-1.4298,0.0,0.0,0.0,0.0,0.0,0.0,0.0,0.0,0.0,0.0,0.0,0.0,0.0,0.0,0.0,-2.4677,-2.4835,-2.5097,-2.548,-2.5307,-2.5029,-2.4655,-2.4642,-2.4367,-2.3772,-2.3819,-2.3747,-2.3628,-2.4574,-2.506,-2.5073,-2.6297,-2.6622,-2.6177,-2.5942,-2.5579,-2.5104,-2.4416,-2.3837,-2.3378,-2.3138,-2.2887,-2.2672,-2.2591,-2.2217,-2.1643,-2.1429,-2.0816,-2.0107,-2.0064,-1.966,-1.9142,-1.9274,0.0,0.0,0.0,-1.9343,-1.9672,-2.0205,-2.1058,-2.1975,-2.2807,-2.3001,-2.3001,-2.3001,-2.3001,-2.3056,-2.3274,-2.315,-2.3067,-2.3119,-2.2988,-2.2688,-2.1872,-2.1741,-2.1741,-2.1741,-2.1741,-2.1741,-2.1741,-2.1741,-2.1667,-2.1475,-2.141,-2.131,-2.1117,-2.1071,-2.1154,-2.1374,-2.0943,-2.0517,-2.0283,-1.9828,-1.9371,-1.8827,-1.8827,-1.8827,-1.8827,-1.8827,-1.8827,-1.8735,-1.8071,-1.7318,-1.6581,-1.5439,-1.4675,-1.4298,-1.4298,-1.4298,-1.4298,-1.4298,-1.4298,-1.4298,-1.4298,-1.4298,-1.4298,0.0,0.0,0.0,0.0,0.0,0.0,0.0,0.0,0.0,0.0,0.0,0.0,0.0,0.0,0.0,0.0,-2.4892,-2.5206,-2.5729,-2.5373,-2.5124,-2.5069,-2.4745,-2.4365,-2.3903,-2.376,-2.3628,-2.3628,-2.4602,-2.5153,-2.532,-2.6517,-2.6739,-2.6115,-2.5972,-2.5519,-2.4839,-2.4451,-2.3824,-2.303,-2.2911,-2.2633,-2.2315,-2.2337,-2.195,-2.1341,-2.1048,-2.0413,-1.9743,-1.9581,-1.9208,-1.8875,-1.9065,-1.9075,0.0,0.0,0.0,-1.8981,-2.0128,-2.0726,-2.1206,-2.2421,-2.2581,-2.2548,-2.2947,-2.3001,-2.3001,-2.3001,-2.2907,-2.2767,-2.2766,-2.2758,-2.2441,-2.1549,-2.1511,-2.1575,-2.1575,-2.1667,-2.1741,-2.1741,-2.1741,-2.1695,-2.1585,-2.1392,-2.1218,-2.1117,-2.0934,-2.0952,-2.1255,-2.0826,-2.0438,-2.0283,-1.9828,-1.9371,-1.8827,-1.8827,-1.8827,-1.8827,-1.8827,-1.8827,-1.8827,-1.8172,-1.7387,-1.6469,-1.569,-1.4962,-1.4298,-1.4298,-1.4298,-1.4298,-1.4298,-1.4298,-1.4298,-1.4298,-1.4298,-1.4298,0.0,0.0,0.0,0.0,0.0,0.0,0.0,0.0,0.0,0.0,0.0,0.0,-2.4558,-2.5055,-2.5279,-2.5003,-2.5005,-2.5148,-2.5388,-2.4882,-2.4582,-2.4728,-2.432,0.0,-2.3891,-2.3891,-2.376,-2.3628,-2.4157,-2.4719,-2.5307,-2.6117,-2.6646,-2.6925,-2.6332,-2.5781,-2.5217,-2.4192,-2.3406,-2.2885,-2.2285,-2.2173,-2.2255,-2.1698,-2.1322,-2.1081,-2.0687,-2.0175,-1.9702,-1.9421,-1.9208,-1.9075,-1.9075,-1.9075,-1.9075,0.0,0.0,0.0,-1.94,-1.9079,-1.9079,-2.1341,-2.1413,-2.1378,-2.272,-2.3001,-2.3001,-2.3001,-2.3023,-2.2735,-2.1987,-2.1703,-2.1332,-2.066,-2.0897,-2.1135,-2.1135,-2.1484,-2.1741,-2.1741,-2.1741,-2.1575,-2.1181,-2.1484,-2.1539,-2.1135,-2.1456,-2.1686,-2.1704,-2.1239,-2.0799,-2.0292,-1.9828,-1.9371,-1.8827,-1.8827,-1.8827,-1.8827,-1.8827,-1.8827,-1.8812,-1.8387,-1.75,-1.6232,-1.5591,-1.4962,-1.4298,-1.4298,-1.4298,-1.4298,-1.4298,-1.4298,-1.4298,-1.4298,-1.4298,-1.4298,0.0,0.0,0.0,0.0,0.0,0.0,0.0,0.0,0.0,0.0,0.0,0.0,0.0,-2.4606,-2.4762,-2.4848,-2.4765,-2.4891,-2.5362,-2.5038,-2.4896,-2.5099,-2.5068,-2.4903,-2.4593,-2.4249,-2.4058,0.0,-2.431,-2.4564,-2.4769,-2.5612,-2.5974,-2.5909,-2.6063,-2.5677,-2.472,-2.4066,-2.3406,-2.2714,-2.2332,-2.2053,-2.1778,-2.143,-2.1021,-2.0689,-2.0285,-1.9944,-1.953,-1.9308,-1.9121,-1.8942,-1.9075,-1.9075,-1.9065,-1.8808,-1.8607,-1.865,-1.9221,-1.8871,-1.871,-2.0048,-2.0621,-2.0942,-2.1063,-2.1744,-2.2402,-2.2402,-2.2402,-2.2229,-2.1541,-2.1551,-2.1452,-2.0643,-2.064,-2.0723,-2.0723,-2.086,-2.0952,-2.0952,-2.0952,-2.0998,-2.1099,-2.1016,-2.0998,-2.1099,-2.1016,-2.0898,-2.0889,-2.0722,-2.0384,-1.9911,-1.9729,-1.9371,-1.8827,-1.8827,-1.8716,-1.8486,-1.8486,-1.8486,-1.8486,-1.8359,-1.7864,-1.715,-1.6432,-1.5334,-1.4045,-1.4045,-1.4141,-1.4298,-1.4298,-1.4298,-1.4298,-1.4298,-1.4298,-1.4298,0.0,0.0,0.0,0.0,0.0,0.0,0.0,0.0,0.0,0.0,0.0,0.0,0.0,0.0,-2.4633,-2.4677,-2.4465,-2.4601,-2.5243,-2.4826,-2.468,-2.5112,-2.497,-2.4756,-2.4494,-2.4139,-2.3948,0.0,0.0,0.0,0.0,-2.5094,-2.5316,-2.5307,-2.5294,-2.4897,-2.4137,-2.3865,-2.3282,-2.2407,-2.2173,-2.1745,-2.1196,-2.093,-2.0615,-2.0166,-1.9981,-1.9766,-1.9576,-1.9435,-1.9303,-1.9168,-1.9219,-1.9199,-1.8998,-1.8684,-1.8549,-1.8542,-1.8901,-1.8446,-1.818,-1.9191,-1.9653,-2.0019,-2.0123,-2.0913,-2.1611,-2.1766,-2.1797,-2.1634,-2.1011,-2.1104,-2.1004,-2.0227,-2.0228,-2.0319,-2.0319,-2.0429,-2.0567,-2.0704,-2.0594,-2.0677,-2.1071,-2.075,-2.0622,-2.0888,-2.0796,0.0,-2.0412,-2.0377,-2.0026,-1.9363,-1.9371,-1.9188,-1.8827,-1.8708,-1.8533,-1.8295,-1.8184,-1.812,-1.812,-1.8009,-1.778,-1.7355,-1.6803,-1.5715,-1.4409,-1.4133,-1.4087,-1.4171,-1.4262,-1.4244,-1.4177,-1.4262,-1.4298,-1.4298,0.0,0.0,0.0,0.0,0.0,0.0,0.0,0.0,0.0,-2.3403,0.0,0.0,0.0,0.0,0.0,-2.4505,-2.4234,-2.4308,-2.4896,-2.4116,-2.3932,-2.4667,-2.3888,-2.3488,-2.3607,-2.3488,-2.3475,0.0,0.0,0.0,0.0,0.0,-2.473,-2.523,-2.4041,-2.3478,-2.3478,-2.3629,-2.3008,-2.191,-2.1655,-2.1163,-2.0482,-2.0272,-1.9994,-1.9647,-1.9753,-1.9805,-1.9795,-1.9805,-1.9785,-1.9756,-1.9534,-1.9291,-1.9075,-1.8875,-1.8684,-1.8482,0.0,0.0,0.0,-1.8607,-1.8498,-1.8518,-2.0086,-2.0555,-2.0696,-2.1054,-2.1155,-2.0934,-2.0323,-2.0167,-2.001,-1.9381,-1.965,-1.9907,-1.9907,-2.0246,-2.0622,-2.1007,-2.0723,-2.0659,-2.1053,-2.0741,-2.0521,-2.0539,-2.0888,-2.0848,-2.043,-2.0266,-1.9828,-1.8812,-1.8819,-1.8827,-1.8812,-1.847,-1.8287,-1.8263,-1.7922,-1.7755,-1.7747,-1.7437,-1.7126,-1.68,-1.65,-1.601,-1.533,-1.4663,-1.4141,-1.3942,-1.4201,-1.4141,-1.3948,-1.4201,-1.4298,-1.4298,0.0,0.0,0.0,0.0,0.0,0.0,0.0,0.0,0.0,0.0,0.0,0.0,-2.3949,-2.423,-2.436,-2.4189,-2.3897,-2.3811,-2.3978,-2.3526,-2.351,-2.4153,-2.3965,-2.4016,-2.4482,-2.4029,-2.3827,0.0,0.0,0.0,0.0,0.0,0.0,0.0,-2.3487,-2.312,-2.2887,-2.2825,-2.2356,-2.1733,-2.1666,-2.13,-2.073,-2.032,-2.0286,-2.0328,-2.0173,-1.9929,-1.9845,-2.0028,-1.9645,-1.9087,-1.9032,-1.9044,-1.9008,-1.8674,-1.8549,-1.8414,-1.8144,0.0,0.0,0.0,0.0,0.0,-1.7891,-1.8706,-1.9561,-1.998,-2.0245,-2.0391,-2.0235,-2.0167,-2.001,-1.9381,-1.9402,-1.9476,-1.9476,-1.9567,-1.9677,-1.9787,-1.9971,-2.0246,-2.064,-2.0585,-2.064,0.0,-2.0706,-2.043,-1.9912,-1.9455,-1.8983,-1.8454,-1.8692,-1.87,-1.8446,-1.8351,-1.8049,-1.7556,-1.7461,-1.7413,-1.7421,-1.7572,-1.7739,-1.7885,-1.75,-1.6846,-1.5948,-1.5126,-1.4553,-1.4195,-1.4268,-1.425,-1.4195,-1.4268,-1.4298,-1.4298,0.0,0.0,0.0,0.0,0.0,0.0,0.0,0.0,0.0,0.0,0.0,0.0,-2.3641,-2.4012,-2.4157,-2.3923,-2.3556,-2.3378,-2.3378,-2.3198,-2.3288,-2.3627,-2.364,-2.3791,-2.4117,-2.3803,-2.364,-2.3775,0.0,0.0,0.0,0.0,0.0,0.0,0.0,0.0,-2.2396,-2.2099,-2.1714,-2.1354,-2.1338,-2.1047,-2.0554,-2.0296,-2.0325,-2.0426,-2.0266,-2.0073,-1.9999,-2.0286,-1.9829,-1.9172,-1.9162,-1.9046,-1.8808,-1.8684,-1.8549,-1.8347,-1.8212,-1.7745,-1.735,-1.7178,0.0,0.0,-1.7426,-1.8061,-1.8778,-1.9354,-1.9674,-1.9854,-1.9854,-1.9854,-1.9696,-1.9381,-1.9301,-1.9301,-1.9301,-1.9301,-1.9366,-1.954,-1.9622,-1.9824,-2.0237,-2.0273,-2.0365,-2.0594,-2.0666,-2.0492,-1.9966,-1.9265,-1.8732,-1.8526,-1.8724,-1.8653,-1.8303,-1.8152,-1.7811,-1.7278,-1.7127,-1.7135,-1.7286,-1.7477,-1.7834,-1.8311,-1.8047,-1.7469,-1.6569,-1.612,-1.5133,-1.3996,-1.4214,-1.4226,-1.4147,-1.4256,-1.4298,-1.4298,0.0,0.0,0.0,0.0,0.0,0.0,0.0,0.0,0.0,0.0,0.0,-2.2994,-2.3371,-2.3872,-2.4045,-2.3548,-2.3258,-2.3078,-2.3078,-2.3078,-2.3078,-2.3078,-2.3078,-2.3078,-2.3078,-2.3078,-2.3198,-2.3403,0.0,0.0,0.0,0.0,0.0,0.0,0.0,0.0,-2.1978,-2.1502,-2.1106,-2.0792,-2.079,-2.0521,-2.0052,-2.0148,-2.0197,-2.0236,-2.0236,-2.0216,-2.0226,-2.0389,-2.0112,-1.9657,-1.9683,-1.9214,-1.868,-1.8704,-1.858,-1.8329,-1.8279,-1.7988,-1.7647,-1.7529,-1.7285,0.0,-1.7807,-1.7954,-1.8146,-1.8935,-1.91,-1.9118,-1.9164,-1.9173,-1.9173,-1.9173,-1.9201,-1.9256,-1.9292,-1.9301,-1.9439,-1.9815,-1.9567,-1.9522,-1.9897,-1.9934,-1.9934,-1.9934,-2.0537,-2.0703,-2.0206,-1.9355,-1.8812,-1.8772,-1.8804,-1.8653,-1.8303,-1.7946,-1.7604,-1.7278,-1.6905,-1.6905,-1.7223,-1.7262,-1.7628,-1.824,-1.8279,-1.783,-1.7168,-1.7213,-1.5756,-1.3653,-1.4151,-1.4206,-1.3936,-1.4201,-1.4298,-1.4298,-2.4042,0.0,0.0,0.0,0.0,0.0,0.0,0.0,0.0,-2.242,-2.2592,-2.2887,-2.3405,-2.322,-2.3033,-2.3042,-2.2969,-2.2969,-2.3078,-2.3078,-2.3078,-2.3078,-2.3078,-2.3078,-2.3078,-2.3078,-2.3198,-2.3403,0.0,0.0,0.0,0.0,0.0,0.0,0.0,0.0,0.0,-2.0921,-2.0576,-2.0304,-2.0213,-2.0019,-1.9835,-1.9905,-2.0213,-2.0526,-2.0526,-2.0377,-2.0127,-1.9871,-1.99,-1.9994,-1.9261,-1.9313,-1.9394,-1.8614,-1.8449,-1.8437,-1.7939,-1.7657,-1.7461,-1.7314,-1.6992,0.0,-1.7097,-1.6899,-1.689,-1.7688,-1.7844,-1.7954,-1.8293,-1.8357,-1.8357,-1.8357,-1.8623,-1.8935,-1.9256,-1.9301,-1.9329,-1.9421,-1.965,-1.9842,-1.9916,-1.9934,-1.9934,-1.9934,-2.0039,-1.9791,-1.9287,-1.9397,-1.9141,-1.8414,-1.8676,-1.8653,-1.8303,-1.7946,-1.7604,-1.7278,-1.6905,-1.677,-1.6849,-1.7143,-1.7501,-1.789,-1.8176,-1.778,-1.6921,-1.7109,-1.6028,-1.4347,-1.4679,-1.4409,-1.3936,-1.4201,-1.4298,-1.4298,-2.3034,0.0,0.0,0.0,0.0,0.0,0.0,0.0,-2.2235,-2.2173,-2.2589,-2.2934,-2.3083,-2.3269,-2.3281,-2.3055,-2.3017,-2.3017,-2.3078,-2.3078,-2.3078,-2.3078,-2.3078,-2.3078,-2.3078,-2.3078,-2.3198,-2.3403,0.0,0.0,0.0,0.0,0.0,0.0,0.0,0.0,-2.049,-1.9911,-1.9365,-1.8983,-1.9592,-2.0062,-2.0327,-2.0232,-2.0518,-2.0869,-2.0644,-2.0507,-2.0377,-2.0161,-1.9944,-1.9728,-1.9574,-1.9357,-1.909,-1.8586,-1.8536,-1.8465,-1.789,-1.7588,-1.747,-1.7392,-1.7027,0.0,0.0,-1.7046,-1.7073,-1.7678,-1.7642,-1.7559,-1.777,-1.7651,-1.7578,-1.7779,-1.8155,-1.8485,-1.8687,-1.9054,-1.9301,-1.9301,-1.9494,-1.9613,-1.9613,-1.9806,-2.0008,-2.0209,-1.9907,-1.9678,-1.9365,-1.9281,-1.9109,-1.8565,-1.8732,-1.8653,-1.8303,-1.812,-1.7858,-1.7517,-1.7175,-1.7183,-1.7509,-1.735,-1.7556,-1.8033,-1.8033,-1.7659,-1.7016,-1.7193,-1.6543,-1.5388,-1.5015,-1.4724,-1.4397,-1.4291,-1.4214,-1.4123,-2.2259,-2.2247,0.0,0.0,0.0,0.0,0.0,0.0,-2.2209,-2.2068,-2.2702,-2.3101,-2.291,-2.3567,-2.3879,-2.3529,-2.3392,-2.3292,-2.3314,-2.3128,-2.3078,-2.3078,-2.2924,-2.2915,-2.3288,-2.3088,-2.3097,-2.3403,0.0,0.0,0.0,0.0,0.0,0.0,0.0,0.0,-1.9561,-1.9147,-1.8546,-1.8014,-1.9213,-1.9845,-2.0131,-2.0213,-2.0469,-2.083,-2.0635,-2.0566,-2.0537,-2.0371,-1.9912,-1.9414,-1.959,-1.9262,-1.8818,-1.8416,-1.8424,-1.8501,-1.7781,-1.752,-1.7401,-1.7401,-1.7116,-1.6991,0.0,0.0,0.0,-1.7706,-1.744,-1.7147,-1.7147,-1.689,-1.678,-1.7092,-1.7504,-1.7779,-1.7779,-1.8394,0.0,-1.9054,-1.921,-1.9265,-1.9191,-1.9414,-1.9807,-2.0365,-1.9919,-1.9701,-1.9718,-1.9381,-1.9011,-1.8819,-1.8827,-1.8692,-1.8406,-1.8335,-1.8152,-1.7866,-1.7533,-1.7628,-1.8081,-1.7533,-1.758,-1.8089,-1.7803,-1.7525,-1.7278,-1.7278,-1.6985,-1.6297,-1.5514,-1.514,-1.4855,-1.4576,-1.4254,-1.4008,-2.2432,-2.2383,0.0,0.0,0.0,0.0,0.0,0.0,-2.1977,-2.2567,-2.2867,-2.32,-2.361,-2.3891,-2.423,-2.4858,-2.4452,-2.4099,-2.3929,-2.3427,-2.3078,-2.3078,-2.2196,-2.2372,-2.3866,-2.2924,-2.2707,-2.3403,0.0,0.0,0.0,0.0,0.0,0.0,-2.0511,-1.9687,-1.8562,-1.9305,-1.9374,-1.9154,-1.9301,-1.8742,0.0,-1.8574,-1.9131,-1.96,-2.0312,-2.0566,-2.0449,-1.9687,-1.9619,-1.959,-1.8135,-1.8633,-1.9399,-1.7745,-1.7954,-1.8518,-1.752,-1.7107,-1.6978,-1.6978,-1.6908,-1.6917,-1.6963,0.0,-1.6468,-1.6514,0.0,-1.589,-1.589,0.0,0.0,-1.589,-1.6248,-1.6523,-1.6523,-1.6968,-1.7592,-1.8174,-1.8871,-1.9164,-1.8815,-1.8652,-1.8997,-1.9943,-1.9417,-1.9295,-1.9684,-1.9655,-1.9371,-1.8819,-1.8827,-1.8812,-1.8764,-1.8454,-1.8279,-1.8232,-1.7882,-1.7604,-1.7397,-1.731,-1.7326,-1.7397,-1.735,-1.7318,-1.7278,-1.7278,-1.7088,-1.6617,-1.6526,-1.5875,-1.5047,-1.524,-1.4848,-1.4256,-2.18,-2.1737,-2.1612,0.0,0.0,0.0,0.0,0.0,-2.202,-2.2474,-2.2573,-2.2783,-2.3152,-2.3228,-2.3698,-2.4822,-2.4335,-2.3977,-2.4017,-2.3452,-2.2849,-2.2209,-2.2046,-2.2146,-2.2535,-2.2397,-2.2493,-2.2921,-2.2233,0.0,0.0,0.0,0.0,0.0,-1.9354,-1.8923,-1.8689,-1.8997,-1.8672,0.0,0.0,-1.8095,0.0,-1.9053,-1.9873,-2.0078,-2.0439,-2.0566,-2.0508,0.0,-1.9648,0.0,-1.9219,-1.8867,-1.8329,-1.782,-1.7884,-1.79,-1.6912,-1.7047,-1.7287,-1.6688,-1.6908,-1.7064,-1.6358,-1.6257,-1.6248,-1.6001,0.0,0.0,0.0,0.0,0.0,0.0,-1.5835,-1.5955,-1.5955,-1.664,-1.7176,-1.7528,0.0,0.0,-1.8339,-1.8702,-1.9113,-1.954,-1.9323,-1.9245,-1.935,-1.9314,-1.9146,-1.8812,-1.8827,-1.8827,-1.8827,-1.8478,-1.8295,-1.8295,-1.7747,-1.7509,-1.7548,-1.7143,-1.708,-1.7262,-1.7056,-1.6961,-1.6961,-1.6961,-1.7,-1.708,-1.7032,-1.6439,-1.5609,-1.5463,-1.4924,-1.4176,-2.1198,-2.1221,-2.1221,-2.1221,0.0,0.0,0.0,-2.1608,-2.182,-2.2211,-2.2359,-2.2481,-2.2763,-2.3242,-2.4072,-2.5211,-2.4912,-2.4626,-2.4682,-2.3703,-2.2912,-2.2422,-2.2058,-2.1958,-2.2171,-2.2121,-2.2026,-2.1968,-2.1366,0.0,0.0,0.0,0.0,0.0,0.0,-1.8315,-1.8768,-1.8864,-1.8452,-1.785,-1.8547,-1.8375,-1.7959,-1.959,-2.0361,-2.0566,-2.0566,-2.0566,-2.0527,-2.0293,-1.9668,0.0,-1.9678,-1.9043,-1.8086,-1.8113,-1.809,-1.7881,-1.6779,-1.7047,-1.7394,-1.6554,-1.6652,-1.6798,-1.6037,-1.601,-1.6056,-1.5753,-1.546,0.0,0.0,0.0,-1.4983,-1.545,0.0,-1.5487,-1.5386,-1.6067,-1.6598,-1.6686,-1.6816,0.0,0.0,-1.8252,-1.8706,-1.8893,-1.8925,-1.8932,-1.8956,-1.8922,-1.8841,-1.8669,-1.878,-1.8827,-1.8827,-1.8478,-1.8295,-1.8287,-1.7699,-1.7493,-1.762,-1.7111,-1.6976,-1.7111,-1.6849,-1.673,-1.673,-1.673,-1.6889,-1.7127,-1.7127,-1.6783,-1.6222,-1.5943,-1.5239,-1.4474,-2.1066,-2.1221,-2.1221,-2.14,-2.1549,-2.1761,-2.1862,-2.1436,-2.1293,-2.1865,-2.2173,-2.2553,-2.2959,-2.4664,-2.6021,-2.6646,-2.6813,-2.6789,-2.6414,-2.4343,-2.3615,-2.4669,-2.2146,-2.1719,-2.3866,-2.2347,-2.1156,-2.0447,-2.0402,0.0,0.0,0.0,0.0,0.0,-1.8387,-1.8299,-1.8195,-1.8967,-1.9438,-1.9647,-1.9798,-2.0098,-2.0361,0.0,-1.9844,-2.0566,-2.0566,0.0,0.0,-1.9609,-1.957,0.0,0.0,0.0,0.0,0.0,0.0,-1.8929,0.0,0.0,0.0,-1.6596,0.0,0.0,0.0,-1.5991,-1.5707,-1.5689,-1.568,-1.567,-1.5689,-1.567,-1.5533,-1.5175,-1.512,0.0,0.0,-1.4859,-1.5228,-1.5698,-1.596,-1.6292,0.0,-1.6965,-1.7295,-1.7904,-1.7911,-1.8065,-1.8562,-1.8523,-1.8368,-1.8303,-1.8645,-1.8827,-1.8827,-1.8478,-1.8295,-1.8295,-1.793,-1.7588,-1.7294,-1.727,-1.7072,-1.6754,-1.6738,-1.673,-1.673,-1.673,-1.6746,-1.6754,-1.6754,-1.6664,-1.6668,-1.6662,-1.6183,-1.5363,-2.1066,-2.136,-2.1498,-2.1285,-2.1348,-2.1486,-2.1862,-2.1558,-2.1837,-2.3332,-2.3225,-2.3545,-2.4939,-2.5635,-2.6408,-2.7528,-2.7267,-2.6889,-2.649,-2.5071,-2.4092,-2.3666,-2.2447,-2.199,-2.2495,-2.153,-2.0709,-2.0009,-1.9182,0.0,0.0,0.0,0.0,0.0,0.0,-1.8605,-1.8947,-1.9448,-1.9629,-1.9438,0.0,-1.9516,-1.9671,0.0,-2.0312,-2.0566,-2.0566,-2.0566,0.0,-2.0225,-1.9853,-1.9521,-1.9658,-1.9219,-1.864,-1.8769,-1.872,0.0,0.0,0.0,-1.8304,-1.6592,0.0,0.0,0.0,0.0,-1.5955,-1.5414,-1.5505,-1.5771,-1.6056,-1.5661,-1.534,-1.5469,-1.5056,-1.4722,0.0,-1.4725,-1.4887,-1.5037,-1.5487,-1.5889,-1.6026,0.0,-1.7397,-1.8017,-1.8267,-1.8434,-1.8628,-1.854,-1.846,-1.8279,-1.8414,-1.8589,-1.8827,-1.8478,-1.8184,-1.7946,-1.7612,-1.7262,-1.6921,-1.6921,-1.6849,-1.673,-1.673,-1.673,-1.673,-1.673,-1.673,-1.673,-1.673,-1.673,-1.668,-1.6666,-1.6239,-1.5553,-2.1066,-2.136,-2.1498,-2.136,-2.1209,-2.1206,-2.159,-2.1211,-2.162,-2.3579,-2.3545,-2.4014,-2.5921,-2.6454,-2.7046,-2.7974,-2.7801,-2.7388,-2.6721,-2.5711,-2.4718,-2.3916,-2.3253,-2.2896,-2.2778,-2.1968,-2.0928,-1.9785,-1.8895,-1.8228,0.0,0.0,0.0,0.0,0.0,-1.8537,-1.9234,-1.958,-1.9717,-1.9736,0.0,-1.9736,0.0,0.0,-2.0381,-2.007,0.0,-2.0566,-2.0566,-2.0566,-2.0195,-1.9844,-2.0391,-1.9814,-1.9023,-1.9432,-1.9329,-1.8912,-1.8234,-1.8592,0.0,-1.7346,-1.7614,0.0,-1.5982,0.0,-1.6376,0.0,-1.5716,-1.5945,-1.6807,-1.6056,-1.5441,-1.5845,-1.5239,-1.4722,0.0,-1.4775,-1.4715,-1.4715,-1.4937,-1.5251,-1.5597,-1.6211,-1.6946,-1.798,-1.8206,-1.8309,0.0,-1.8354,-1.8286,-1.8089,-1.8232,-1.847,-1.8827,-1.8478,-1.8184,-1.7954,-1.7501,-1.7159,-1.6921,-1.6794,-1.673,-1.673,-1.673,-1.673,-1.673,-1.673,-1.673,-1.673,-1.673,-1.673,-1.673,-1.673,-1.6319,-1.565,-2.1032,-2.1187,-2.1262,-2.1588,-2.1228,-2.0936,-2.1044,-2.0606,-2.0926,-2.2862,-2.332,-2.4173,-2.6025,-2.7282,-2.7989,-2.7989,-2.86,-2.8424,-2.7167,-2.6208,-2.5607,-2.5461,-2.4555,-2.428,-2.4808,-2.3505,-2.1777,-1.9714,-1.9315,0.0,0.0,0.0,0.0,0.0,-1.7609,-1.8168,-1.8976,-1.9214,-1.9785,-2.0566,-2.0566,-2.0537,-2.0508,-2.0547,-1.9954,-1.9248,-2.0254,-2.0566,-2.0566,-2.0566,-2.0566,-2.0566,-2.0566,-2.0566,-2.0566,-2.0342,-2.0342,-2.0091,-1.9283,-1.8786,-1.8555,-1.8665,0.0,0.0,0.0,0.0,-1.6963,0.0,0.0,-1.6266,-1.7789,-1.678,-1.5835,-1.6193,-1.5588,-1.5059,-1.5027,-1.4843,-1.4715,-1.4734,-1.4345,-1.4399,-1.5369,-1.5301,-1.5981,-1.7723,-1.7653,-1.7705,0.0,-1.7953,-1.7798,-1.7818,-1.8089,-1.8446,-1.8796,-1.8486,-1.8319,-1.8287,-1.762,-1.7294,-1.7262,-1.6905,-1.6746,-1.6762,-1.6746,-1.6746,-1.6762,-1.6746,-1.673,-1.673,-1.673,-1.673,-1.673,-1.673,-1.6319,-1.5733,-2.0369,-2.0719,-2.1026,-2.1087,-2.0932,-2.0709,-2.0535,-2.1212,-2.2404,-2.4394,-2.5518,-2.6797,-2.86,-2.9113,-2.9288,-2.9288,-2.949,-2.9089,-2.7886,-2.7231,-2.6666,-2.6264,-2.5197,-2.4746,-2.4936,-2.269,-2.1033,-2.0053,-1.8463,0.0,-1.685,0.0,0.0,0.0,0.0,-1.794,-1.8757,-1.915,-1.9785,-2.0566,-2.0566,-2.0176,-1.9603,0.0,-1.9954,-1.9248,-2.0254,-2.0566,-2.0566,-2.0566,-2.0566,-2.0566,-2.0566,-2.0566,-2.0566,-2.0566,-2.0489,-2.044,-2.0082,-2.01,-1.9963,-1.8789,-1.8788,-1.8692,0.0,0.0,0.0,0.0,0.0,0.0,0.0,0.0,-1.5991,-1.5496,-1.5167,-1.4974,-1.4793,-1.4843,-1.4965,-1.5144,-1.514,-1.498,-1.4671,-1.523,-1.6034,-1.7095,-1.7633,-1.7935,-1.7997,0.0,0.0,-1.7475,-1.7731,-1.8073,-1.843,-1.8605,-1.8557,-1.8295,-1.785,-1.7517,-1.7262,-1.6905,-1.6881,-1.7127,-1.6849,-1.6889,-1.7119,-1.6849,-1.673,-1.673,-1.673,-1.673,-1.673,-1.673,-1.6566,-1.6402,-2.022,-2.0757,-2.1084,-2.0995,-2.1337,-2.1516,-2.1224,-2.1392,-2.2384,-2.4616,-2.5754,-2.6893,-2.8536,-2.9352,-2.9792,-2.9792,-2.9792,-2.9202,-2.7676,-2.761,-2.718,-2.607,-2.5737,-2.5602,-2.5656,-2.3833,-2.2171,-2.0614,-1.936,-1.7941,-1.6497,0.0,0.0,0.0,0.0,-1.7395,-1.7988,-1.8945,-1.957,-2.0039,-2.042,-2.0273,0.0,-2.0381,-2.0264,-1.9827,-2.0391,-2.0566,-2.0566,-2.0566,-2.0566,-2.0566,-2.0566,-2.0566,-2.0566,-2.0566,-2.0566,-2.0566,-2.0489,-2.0526,-2.0426,-1.9657,-1.964,-1.9539,-1.836,-1.8534,-1.8797,0.0,-1.8201,-1.8146,0.0,0.0,-1.578,-1.4974,-1.4952,-1.4911,-1.4715,-1.4843,-1.4996,-1.4981,-1.5122,-1.4997,-1.439,-1.5429,-1.6378,-1.6959,-1.7495,0.0,0.0,0.0,-1.7259,-1.6794,-1.7437,-1.7946,-1.8295,-1.8653,-1.8724,-1.8526,-1.8009,-1.7676,-1.7477,-1.6969,-1.6849,-1.7032,-1.6826,-1.6849,-1.7024,-1.6818,-1.673,-1.673,-1.673,-1.673,-1.673,-1.673,-1.673,-1.673,-2.0492,-2.1035,-2.1424,-2.1175,-2.2121,-2.2847,-2.2722,-2.1995,-2.2262,-2.4598,-2.5468,-2.6263,-2.7507,-2.8913,-2.9767,-2.9691,-2.9679,-2.8913,-2.7155,-2.7648,-2.7247,-2.5585,-2.6133,-2.6533,-2.6533,-2.569,-2.3916,-2.1239,-2.0773,-1.8949,0.0,0.0,0.0,0.0,-1.6345,-1.6796,-1.7331,-1.8708,-1.9355,-1.9521,-2.0264,-2.0566,-2.0566,-2.0566,-2.0566,-2.0566,-2.0566,-2.0566,-2.0566,-2.0566,-2.0566,-2.0566,-2.0566,-2.0566,-2.0566,-2.0566,-2.0566,-2.0566,-2.0566,-2.0498,-2.0439,-2.0745,-2.05,-2.0074,-1.972,-1.9802,-1.9824,-1.9457,-1.888,-1.8724,0.0,0.0,-1.5652,-1.4808,-1.4986,-1.5232,-1.5032,-1.5172,-1.5172,-1.486,-1.5049,0.0,-1.4526,-1.5776,-1.6669,-1.689,-1.7189,0.0,0.0,0.0,-1.6983,-1.6349,-1.7331,-1.7922,-1.8232,0.0,-1.8804,-1.8748,-1.8089,-1.7747,-1.7683,-1.7032,-1.6762,-1.6802,-1.6754,-1.6762,-1.6802,-1.6754,-1.673,-1.673,-1.673,-1.673,-1.673,-1.673,-1.673,-1.673,-2.1315,-2.1667,-2.1685,-2.1392,-2.2481,-2.3658,-2.4546,-2.5327,-2.5975,-2.6594,-2.8,-2.9063,-2.9327,-2.9616,-2.9603,-2.9114,-2.9089,-2.8574,-2.7356,-2.7369,-2.7092,-2.6339,-2.6402,-2.6533,-2.6533,-2.5115,-2.3409,-2.1342,-2.0141,-1.8034,-1.5206,0.0,0.0,-1.4754,-1.5096,-1.6373,-1.8238,-1.8971,0.0,-2.0361,-2.0508,-2.0566,-2.0566,-2.0566,-2.0566,-2.0566,-2.0566,-2.0566,-2.0566,-2.0566,-2.0566,-2.0566,-2.0566,-2.0566,-2.0566,-2.0566,-2.0566,-2.0566,-2.0566,-2.0566,-2.0508,-2.0439,-2.0213,-1.9878,-1.9655,-1.9802,-1.9907,-1.9833,-1.9971,-1.9962,-1.9494,0.0,0.0,-1.5661,-1.6178,-1.6689,-1.668,-1.6689,-1.6689,-1.6622,-1.6619,-1.6294,-1.5688,-1.598,-1.6142,-1.5927,-1.6285,0.0,0.0,0.0,0.0,0.0,-1.7552,0.0,0.0,0.0,-1.8684,-1.839,-1.7969,-1.7628,-1.735,-1.6929,-1.6897,-1.7167,-1.6865,-1.6905,-1.7159,-1.6857,-1.673,-1.673,-1.673,-1.673,-1.673,-1.673,-1.673,-1.673,-2.2222,-2.2115,-2.2071,-2.2735,-2.3928,0.0,0.0,-2.764,-2.8125,-2.7335,-2.7923,-2.8424,-2.8499,-2.9277,-2.9566,-2.8976,-2.8925,-2.8461,-2.7356,-2.7281,-2.703,-2.6546,-2.6533,-2.6533,-2.6533,-2.579,-2.4079,-2.129,-2.0692,-1.8522,-1.4998,0.0,0.0,-1.4393,-1.5226,-1.6291,0.0,0.0,0.0,-1.9941,-2.0391,-2.0566,-2.0566,-2.0566,-2.0566,-2.0566,-2.0566,-2.0566,-2.0566,-2.0566,-2.0566,-2.0566,-2.0566,-2.0566,-2.0566,-2.0566,-2.0566,-2.0566,-2.0566,-2.0566,-2.0566,-2.0489,-2.0264,-2.0108,-1.9951,-2.0192,-2.0338,-2.0135,-2.0485,-2.0512,-1.9485,-1.8485,0.0,0.0,0.0,-1.6865,-1.695,-1.7047,-1.7047,-1.6978,-1.6853,-1.6483,-1.5937,-1.5753,-1.5689,-1.5817,-1.6083,0.0,0.0,0.0,0.0,0.0,0.0,0.0,0.0,0.0,0.0,-1.8295,-1.7938,-1.7596,-1.7262,-1.6905,-1.6833,-1.6984,-1.681,-1.6833,-1.6984,-1.681,-1.673,-1.673,-1.673,-1.673,-1.673,-1.673,-1.673,-1.673,-2.318,-2.2895,-2.2979,-2.4382,-2.5586,-2.6751,-2.7765,-2.9,-2.9315,-2.7984,-2.7748,-2.7676,-2.7821,-2.8888,-2.9377,-2.88,-2.8649,-2.816,-2.7168,-2.7105,-2.6917,-2.6546,-2.6533,-2.6533,-2.6533,-2.6533,-2.4927,-2.169,-2.1556,0.0,0.0,-1.5625,-1.5215,0.0,0.0,0.0,0.0,0.0,-1.9394,-1.9619,-2.0293,-2.0566,-2.0566,-2.0566,-2.0566,-2.0566,-2.0566,-2.0566,-2.0566,-2.0566,-2.0566,-2.0566,-2.0566,-2.0566,-2.0566,-2.0566,-2.0566,-2.0566,-2.0566,-2.0566,-2.0566,-2.0566,-2.0411,-2.0264,-2.0264,-2.0519,-2.0652,-2.0419,-2.0856,-2.0869,-1.9659,-1.899,0.0,0.0,0.0,0.0,-1.7367,-1.7484,-1.7528,-1.7303,-1.6996,-1.6649,-1.6252,-1.5845,-1.5743,-1.6058,-1.6158,0.0,-1.6515,0.0,0.0,0.0,0.0,-1.8258,-1.8169,0.0,-1.8696,-1.8184,-1.7906,-1.7556,-1.7151,-1.6865,-1.673,-1.673,-1.673,-1.673,-1.673,-1.673,-1.673,-1.673,-1.673,-1.673,-1.673,-1.673,-1.673,-1.673,-2.4112,-2.4426,-2.5007,0.0,0.0,-2.7777,-2.8024,-2.9063,-2.9729,-2.9578,-2.9553,-2.9553,-2.9553,-2.9227,-2.8787,-2.8235,-2.772,-2.718,-2.6647,-2.6596,-2.6584,-2.6533,-2.6533,-2.6533,-2.6533,-2.6533,-2.5432,-2.3292,-2.2313,-2.0369,0.0,0.0,0.0,0.0,0.0,0.0,0.0,-1.9146,-1.9736,-2.0459,-2.0527,-2.0566,-2.0566,-2.0566,-2.0566,-2.0566,-2.0566,-2.0566,-2.0566,-2.0566,-2.0566,-2.0566,-2.0566,-2.0566,-2.0566,-2.0566,-2.0566,-2.0566,-2.0566,-2.0566,-2.0566,-2.0566,-2.0411,-2.0264,-2.0264,-2.0301,-2.0391,-2.0717,-2.1194,-2.131,-2.0099,-2.0099,-1.9925,0.0,0.0,0.0,0.0,-1.9072,-1.8944,-1.8586,-1.8192,-1.7789,-1.7367,-1.6972,-1.6752,-1.6789,-1.6147,0.0,0.0,0.0,0.0,-1.7708,0.0,-1.7796,-1.7624,-1.884,-1.8929,-1.7819,-1.7787,-1.7421,-1.6786,-1.6746,-1.673,-1.673,-1.673,-1.673,-1.673,-1.673,-1.673,-1.673,-1.673,-1.673,-1.673,-1.673,-1.673,-1.673,0.0,0.0,0.0,0.0,0.0,0.0,0.0,-2.9503,-2.9792,-2.9792,-2.9792,-2.9792,-2.9792,-2.9578,-2.9089,-2.8185,-2.7896,-2.7406,-2.6584,-2.6533,-2.6533,-2.6533,-2.6533,-2.6533,-2.6533,-2.6533,-2.5629,-2.3923,-2.2185,0.0,0.0,0.0,0.0,0.0,0.0,-1.835,-1.917,-1.9834,-2.0254,-2.0566,-2.0566,-2.0566,-2.0566,-2.0566,-2.0566,-2.0566,-2.0566,-2.0566,-2.0566,-2.0566,-2.0566,-2.0566,-2.0566,-2.0566,-2.0566,-2.0566,-2.0566,-2.0566,-2.0566,-2.0566,-2.0566,-2.0566,-2.0566,-2.0489,-2.0489,-2.0521,-2.0633,-2.0702,-2.1052,-2.1209,-2.0723,-2.0383,-2.009,-1.9842,0.0,0.0,0.0,-1.9677,-1.9522,-1.9118,-1.857,-1.8184,-1.8008,-1.7417,-1.7047,0.0,0.0,0.0,0.0,0.0,0.0,-1.797,0.0,-1.8608,-1.8498,-1.8938,-1.8651,-1.7771,-1.7771,-1.7405,-1.673,-1.673,-1.673,-1.673,-1.673,-1.673,-1.673,-1.673,-1.6857,-1.704,-1.6818,-1.6873,-1.7032,-1.6818,-1.673,-1.673,-2.7254,0.0,-2.6937,0.0,-2.8462,-2.8725,-2.9666,-2.9792,-2.9792,-2.9792,-2.9792,-2.9792,-2.9792,-2.9503,-2.8976,-2.8172,-2.7808,-2.7293,-2.6584,-2.6533,-2.6533,-2.6533,-2.6533,0.0,-2.6533,-2.6533,-2.5995,-2.4876,-2.2893,0.0,0.0,0.0,0.0,0.0,-1.8788,-1.9277,-1.9623,-2.0312,-2.0566,-2.0566,-2.0566,-2.0566,-2.0566,-2.0566,-2.0566,-2.0566,-2.0566,-2.0566,-2.0566,-2.0566,-2.0566,-2.0566,-2.0566,-2.0566,-2.0566,-2.0566,-2.0566,-2.0566,-2.0566,-2.0566,-2.0566,-2.0566,-2.0566,-2.0566,-2.0566,-2.075,-2.0895,-2.0888,-2.1155,-2.1379,-2.1291,-2.064,-2.0228,-2.0622,0.0,0.0,0.0,-1.9934,-1.9687,-1.9104,-1.8591,-1.8304,-1.8304,-1.7803,-1.7469,0.0,0.0,0.0,0.0,0.0,0.0,0.0,0.0,0.0,-1.881,-1.8921,-1.8651,-1.7771,-1.7771,-1.7405,-1.673,-1.673,-1.673,-1.673,-1.673,-1.673,-1.673,-1.673,-1.6881,-1.7104,-1.6953,-1.6984,-1.7104,-1.6953,-1.6826,-1.673,-2.7911,-2.795,-2.8313,-2.9578,-2.9779,-2.9779,-2.9792,-2.9792,-2.9792,-2.9792,-2.9792,-2.9792,-2.9792,-2.88,-2.8122,-2.8109,-2.7105,-2.6546,-2.6533,-2.6533,-2.6533,0.0,0.0,-2.6533,-2.6533,-2.6533,-2.6521,-2.644,0.0,0.0,-2.3928,0.0,-1.9373,-1.9049,-1.9058,-1.9681,-2.0547,-2.0557,-2.0566,-2.0566,-2.0566,-2.0566,-2.0566,-2.0566,-2.0566,-2.0566,-2.0566,-2.0566,-2.0566,-2.0566,-2.0566,-2.0566,-2.0566,-2.0566,-2.0566,-2.0566,-2.0566,-2.0566,-2.0566,-2.0566,-2.0566,-2.0566,-2.0566,-2.0566,-2.0566,-2.074,-2.1039,-2.1447,-2.1789,-2.1998,-2.1731,-2.1062,-2.064,-2.1034,0.0,0.0,0.0,-1.9934,-1.9476,-1.8471,-1.8313,-1.8304,-1.8304,-1.8295,-1.823,0.0,0.0,0.0,0.0,0.0,0.0,-1.8301,-1.8514,0.0,-1.8127,-1.9101,-1.9003,-1.7771,-1.7771,-1.7405,-1.673,-1.673,-1.673,-1.673,-1.673,-1.673,-1.673,-1.673,-1.6738,-1.6778,-1.7135,-1.7056,-1.6786,-1.7143,-1.704,-1.673,-2.9214,-2.9252,-2.9301,-2.9729,-2.9792,-2.9792,-2.9792,-2.9792,-2.9792,-2.9792,-2.9792,-2.9641,-2.9252,-2.8888,-2.836,0.0,-2.7218,-2.6866,0.0,-2.6533,-2.6533,-2.6533,-2.6533,-2.6533,-2.6533,-2.6533,-2.6533,-2.6533,0.0,0.0,0.0,-2.1109,-2.0715,-2.1331,-2.0611,-2.0485,-2.0819,-2.0654,-2.0566,-2.0566,-2.0566,-2.0566,-2.0566,-2.0566,-2.0566,-2.0566,-2.0566,-2.0566,-2.0566,-2.0566,-2.0566,-2.0566,-2.0566,-2.0566,-2.0566,-2.0566,-2.0566,-2.0566,-2.0566,-2.0566,-2.0566,-2.0566,-2.0566,-2.0566,-2.0566,-2.075,-2.0991,-2.1453,-2.156,-2.159,-2.1581,-2.1185,-2.0961,-2.1089,-2.0668,0.0,-2.0328,0.0,-1.9677,-1.9068,-1.8994,-1.8994,-1.8994,-1.8994,0.0,0.0,0.0,0.0,0.0,0.0,0.0,0.0,-1.8801,0.0,-1.9205,-1.8889,-1.841,-1.7763,-1.754,-1.7191,-1.673,-1.673,-1.673,-1.673,-1.673,-1.673,-1.673,-1.673,-1.6881,-1.7096,-1.6961,-1.6984,-1.7088,-1.6953,-1.6833,-1.673,-2.9792,-2.9792,-2.9792,-2.9792,-2.9792,-2.9792,-2.9792,-2.9792,-2.9792,-2.9792,-2.9603,-2.9252,-2.8687,-2.8436,0.0,-2.7344,-2.7092,-2.6829,-2.6546,-2.6533,-2.6533,-2.6533,-2.6533,-2.6533,-2.6533,-2.6533,0.0,-2.6533,-2.5142,-2.4029,-2.3097,-2.2525,-2.2284,-2.236,-2.17,-2.1272,-2.0984,-2.0886,-2.0809,-2.0809,-2.0809,-2.0809,-2.0809,-2.0809,-2.0809,-2.0731,-2.0731,-2.0654,-2.0566,-2.0566,-2.0566,-2.0566,-2.0566,-2.0566,-2.0566,-2.0566,-2.0566,-2.0566,-2.0566,-2.0566,-2.0566,-2.0566,-2.0566,-2.0605,-2.0781,-2.0956,-2.1124,-2.1457,-2.1542,-2.1568,-2.1472,-2.1161,-2.0934,-2.108,-2.0649,-2.0301,-2.0301,0.0,-1.9659,-1.9012,0.0,0.0,0.0,-1.892,-1.8837,0.0,0.0,0.0,0.0,0.0,0.0,-1.9154,-1.9437,0.0,-1.947,-1.884,-1.8234,-1.758,-1.7239,-1.6953,-1.673,-1.673,-1.673,-1.673,-1.673,-1.673,-1.673,-1.673,-1.6873,-1.7064,-1.6976,-1.6992,-1.7064,-1.6969,-1.6849,-1.673,-2.9792,-2.9792,-2.9779,0.0,-2.9729,0.0,-2.9679,-2.9679,-2.9679,-2.9679,-2.9202,-2.8662,-2.8109,-2.7595,-2.7268,-2.7231,0.0,0.0,0.0,-2.6533,-2.6533,-2.6533,-2.6533,-2.6533,-2.6533,-2.6533,-2.6533,-2.6533,-2.6339,-2.5828,-2.5087,-2.4862,-2.3975,-2.251,-2.2435,-2.2004,-2.1205,-2.1215,-2.1205,-2.1205,-2.1205,-2.1205,-2.1205,-2.1205,-2.1061,-2.0906,-2.0906,-2.0741,-2.0566,-2.0566,-2.0566,-2.0566,-2.0566,-2.0566,-2.0566,-2.0566,-2.0566,-2.0566,-2.0566,-2.0566,-2.0566,-2.0566,-2.0566,-2.0674,-2.1094,-2.1191,-2.1228,-2.1409,-2.1663,-2.1712,-2.1472,-2.09,-2.0677,-2.1044,-2.0438,-1.9934,-1.9934,-1.9907,-1.9457,0.0,0.0,0.0,-1.8397,-1.8397,-1.8609,0.0,0.0,0.0,0.0,0.0,-1.9426,-1.9791,-2.0164,-1.993,-1.9018,-1.8977,-1.8335,-1.7239,-1.6897,-1.673,-1.673,-1.673,-1.673,-1.673,-1.673,-1.673,-1.673,-1.673,-1.673,-1.677,-1.7104,-1.7032,-1.6778,-1.7111,-1.7024,-1.673,0.0,0.0,-2.9654,-2.9214,-2.9139,-2.8988,-2.8561,-2.8499,-2.8499,-2.8499,-2.8386,-2.8097,-2.7544,-2.7369,-2.7118,-2.676,-2.6596,-2.6533,-2.6533,-2.6533,-2.6533,-2.6533,-2.6533,-2.6533,-2.6533,-2.6533,-2.6533,-2.6533,-2.6465,-2.6327,-2.6094,-2.5441,-2.4636,-2.3683,-2.2947,-2.2145,-2.1436,-2.1282,-2.1205,-2.1205,-2.1205,-2.1205,-2.1205,-2.1205,-2.1061,-2.0906,-2.0906,-2.0741,-2.0566,-2.0566,-2.0566,-2.0566,-2.0566,-2.0566,-2.0566,-2.0566,-2.0566,-2.0566,-2.0566,-2.0566,-2.0566,-2.0566,-2.0566,-2.0596,-2.0703,-2.0723,-2.085,-2.1218,-2.1317,-2.1457,-2.1683,-2.1302,-2.0998,-2.1089,-2.0438,-1.9934,-1.9934,-1.965,-1.9338,0.0,-1.9086,-1.9086,-1.9086,-1.9086,-1.8911,0.0,0.0,0.0,0.0,-1.904,-1.946,-1.9889,-1.9647,-1.9478,-1.9558,-1.8654,-1.7717,-1.6857,-1.6778,-1.673,-1.673,-1.673,-1.673,-1.673,-1.673,-1.673,-1.673,-1.673,-1.673,-1.6746,-1.6826,-1.681,-1.6746,-1.6833,-1.681,-1.673,-2.9352,-2.9202,-2.9001,-2.8938,-2.8725,-2.8448,-2.8147,-2.8109,-2.8109,-2.8109,-2.7883,-2.7607,-2.7318,-2.7055,-2.6791,-2.6559,-2.6533,-2.6533,-2.6533,-2.6533,-2.6533,-2.6533,-2.6533,-2.6533,-2.6533,-2.6533,-2.6533,-2.6533,-2.6533,-2.6533,-2.6465,-2.6025,-2.5441,-2.4636,-2.412,-2.3265,-2.2176,-2.2101,-2.1807,-2.1512,-2.1512,-2.1512,-2.1425,-2.1359,-2.1205,-2.1061,-2.0906,-2.0741,-2.0566,-2.0566,-2.0566,-2.0566,-2.0566,-2.0566,-2.0566,-2.0566,-2.0566,-2.0566,-2.0566,-2.0566,-2.0566,-2.0566,-2.0566,-2.0566,-2.0566,-2.0566,-2.0635,-2.0879,-2.0966,-2.1085,-2.122,-2.0904,-2.0651,-2.0567,-1.9742,-1.9228,-1.9595,-1.9136,-1.8898,-1.9256,-1.9301,-1.9301,-1.9301,-1.9301,-1.9118,-1.8745,-1.8852,0.0,-1.8727,-1.9063,-1.9494,-1.9916,-1.9842,-1.9729,-1.9478,-1.8225,-1.7338,-1.673,-1.673,-1.673,-1.673,-1.673,-1.673,-1.673,-1.673,-1.673,-1.673,-1.673,-1.673,-1.673,-1.673,-1.673,-1.673,-1.673,-1.673,-1.673,-2.8712,-2.8499,-2.8323,-2.8624,-2.836,-2.8047,-2.7883,-2.7858,-2.7858,-2.7858,-2.7444,-2.7155,-2.7155,-2.6741,-2.6533,-2.6533,-2.6533,-2.6533,-2.6533,-2.6533,-2.6533,-2.6533,-2.6533,-2.6533,-2.6533,-2.6533,-2.6533,-2.6533,-2.6533,-2.6533,-2.6533,-2.6533,-2.6094,-2.5312,-2.5312,-2.4515,-2.3139,-2.3075,-2.2628,-2.1959,-2.1883,-2.1807,-2.1807,-2.1578,-2.1359,-2.1205,-2.0984,-2.0741,-2.0566,-2.0566,-2.0566,-2.0566,-2.0566,-2.0566,-2.0566,-2.0566,-2.0566,-2.0566,-2.0566,-2.0566,-2.0566,-2.0566,-2.0566,-2.0566,-2.0566,-2.0566,-2.0566,-2.0566,-2.0769,-2.0838,-2.0657,-2.0404,-2.0123,-1.9769,-1.8935,-1.8495,-1.9045,0.0,-1.855,-1.9219,-1.9301,-1.9301,-1.9301,-1.9301,-1.9301,-1.9301,-1.9301,-1.9301,-1.9301,-1.9301,-1.9467,-1.9824,-2.0163,-1.9919,-1.9007,-1.7907,-1.7096,-1.673,-1.673,-1.673,-1.673,-1.673,-1.673,-1.673,-1.673,-1.673,-1.673,-1.673,-1.673,-1.673,-1.673,-1.673,-1.673,-1.673,-1.673,-1.673,-2.821,-2.8536,-2.8536,-2.7682,-2.7846,-2.7795,-2.6854,-2.6716,-2.6716,-2.6716,-2.671,-2.659,-2.659,-2.6584,-2.6533,-2.6533,-2.6533,-2.6533,-2.6533,-2.6533,-2.6533,-2.6533,-2.6533,-2.6533,-2.6533,-2.6533,-2.6533,-2.6533,-2.6533,-2.6533,-2.6533,-2.6533,-2.6094,-2.5312,-2.5312,-2.4791,-2.3902,-2.3276,-2.2927,-2.2777,-2.2101,-2.1807,-2.1807,-2.1578,-2.1359,-2.1205,-2.0984,-2.0741,-2.0566,-2.0566,-2.0566,-2.0566,-2.0566,-2.0566,-2.0566,-2.0566,-2.0566,-2.0566,-2.0566,-2.0566,-2.0566,-2.0566,-2.0566,-2.0566,-2.0566,-2.0566,-2.0566,-2.0566,-2.0769,-2.0838,-2.0657,-2.0404,-1.9938,-1.9017,-1.9017,-1.8926,-1.8385,0.0,-1.9164,-1.9283,-1.9301,-1.9301,-1.9301,-1.9301,-1.9301,-1.9301,-1.9301,-1.9301,-1.9301,-1.9301,-1.9329,-1.9393,-1.9457,-1.9093,-1.8211,-1.757,-1.7096,-1.673,-1.673,-1.673,-1.673,-1.673,-1.673,-1.673,-1.673,-1.673,-1.673,-1.673,-1.673,-1.673,-1.673,-1.673,-1.673,-1.673,-1.673,-1.673,-2.7607,-2.7632,-2.7532,-2.7318,-2.7256,-2.7042,-2.6609,-2.6533,-2.6533,-2.6533,-2.6533,-2.6533,-2.6533,-2.6533,-2.6533,-2.6533,-2.6533,-2.6533,-2.6533,-2.6533,-2.6533,-2.6533,-2.6533,-2.6533,-2.6533,-2.6533,-2.6533,-2.6533,-2.6533,-2.6533,-2.6533,-2.6533,-2.6314,-2.5955,-2.5955,-2.5511,-2.4707,-2.4371,-2.379,-2.3001,-2.2628,-2.2176,-2.1807,-2.1436,-2.1282,-2.1128,-2.0809,-2.0654,-2.0566,-2.0566,-2.0566,-2.0566,-2.0566,-2.0566,-2.0566,-2.0566,-2.0566,-2.0566,-2.0566,-2.0566,-2.0566,-2.0566,-2.0566,-2.0566,-2.0566,-2.0566,-2.0566,-2.0566,-2.0654,-2.0642,-2.0315,-2.0235,-1.9944,-1.9169,-1.8902,0.0,0.0,-1.8705,-1.8825,-1.9256,-1.9301,-1.9301,-1.9301,-1.9301,-1.9301,-1.9301,-1.9301,-1.9301,-1.9301,-1.9301,-1.9301,-1.9301,-1.903,-1.8635,-1.804,-1.7513,-1.7096,-1.673,-1.673,-1.673,-1.673,-1.673,-1.673,-1.673,-1.673,-1.673,-1.673,-1.673,-1.673,-1.673,-1.673,-1.673,-1.673,-1.673,-1.673,-1.673,-2.7272,-2.7119,-2.6936,-2.7112,-2.6854,-2.6603,-2.6546,-2.6533,-2.6533,-2.6533,-2.6533,-2.6533,-2.6533,-2.6533,-2.6533,-2.6533,-2.6533,-2.6533,-2.6533,-2.6533,-2.6533,-2.6533,-2.6395,-2.6395,-2.6533,-2.6327,-2.6395,-2.6533,-2.6533,-2.6533,-2.6533,-2.6533,-2.6533,-2.6533,-2.6533,-2.6176,-2.5594,-2.5382,-2.4587,-2.3508,-2.335,-2.2767,-2.2025,-2.1645,-2.1425,-2.1205,-2.0809,-2.0654,-2.0654,-2.0644,-2.0566,-2.0566,-2.0566,-2.0566,-2.0566,-2.0566,-2.0566,-2.0566,-2.0566,-2.0566,-2.0566,-2.0566,-2.0566,-2.0566,-2.0566,-2.0566,-2.0566,-2.0566,-2.0566,-2.0489,-2.0098,-2.0098,-1.9953,-1.921,0.0,0.0,0.0,-1.8669,-1.8623,-1.9228,-1.9301,-1.9301,-1.9301,-1.9301,-1.9301,-1.9301,-1.9301,-1.9301,-1.9301,-1.9301,-1.9301,-1.9301,-1.8786,-1.8323,-1.7959,-1.7424,-1.7008,-1.673,-1.673,-1.673,-1.673,-1.673,-1.673,-1.673,-1.673,-1.673,-1.673,-1.673,-1.673,-1.673,-1.673,-1.673,-1.673,-1.673,-1.673,-1.673,-2.7603,-2.7874,-2.7864,-2.6741,-2.6917,-2.7055,-2.6609,-2.6533,-2.6533,-2.6533,-2.6533,-2.6533,-2.6533,-2.6533,-2.6533,-2.6533,-2.6533,-2.6533,-2.6533,-2.6533,-2.6533,-2.6533,-2.595,-2.5912,-2.6521,-2.5937,-2.5925,-2.6533,-2.6533,-2.6533,-2.6533,-2.6533,-2.6533,-2.6533,-2.6533,-2.6452,-2.6383,-2.5594,-2.5241,-2.5087,-2.4348,-2.3548,-2.2927,-2.267,-2.2155,-2.1436,-2.1051,-2.0906,-2.0829,-2.0654,-2.0566,-2.0566,-2.0566,-2.0566,-2.0566,-2.0566,-2.0566,-2.0566,-2.0566,-2.0566,-2.0566,-2.0566,-2.0566,-2.0566,-2.0566,-2.0566,-2.0566,-2.0566,-2.0566,-2.0566,-2.0342,-2.0108,-1.9618,-1.862,0.0,0.0,-1.8311,-1.8788,-1.9237,-1.9292,-1.9301,-1.9301,-1.9301,-1.9301,-1.9301,-1.9301,-1.9301,-1.9301,-1.9301,-1.9301,-1.9301,-1.9301,-1.846,-1.8066,-1.804,-1.7172,-1.6762,-1.673,-1.673,-1.673,-1.673,-1.673,-1.673,-1.673,-1.673,-1.673,-1.673,-1.673,-1.673,-1.673,-1.673,-1.673,-1.673,-1.673,-1.673,-1.673,-2.8182,-2.829,-2.812,-2.7268,-2.7275,-2.7216,-2.6559,-2.6533,-2.6533,-2.6533,-2.6533,-2.6533,-2.6533,-2.6533,-2.6533,-2.6533,-2.6533,-2.637,-2.595,-2.5925,-2.5925,-2.5925,-2.541,-2.5222,-2.5435,-2.5548,-2.5699,-2.5925,-2.6289,-2.6533,-2.6533,-2.6533,-2.6533,-2.6533,-2.6533,-2.6533,-2.6465,-2.6164,-2.5746,-2.5241,-2.4933,-2.4348,-2.3621,-2.2957,-2.251,-2.2155,-2.1349,-2.1061,-2.1051,-2.0974,-2.0896,-2.0819,-2.0819,-2.0731,-2.0566,-2.0566,-2.0566,-2.0566,-2.0566,-2.0566,-2.0566,-2.0566,-2.0566,-2.0566,-2.0566,-2.0566,-2.0566,-2.0566,-2.0566,-2.0566,-2.0342,-2.0333,-2.0071,-1.9294,0.0,-1.9515,-1.8898,-1.9118,-1.9301,-1.9301,-1.9301,-1.9301,-1.9301,-1.9301,-1.9301,-1.9301,-1.9301,-1.9301,-1.9301,-1.9301,-1.9301,-1.9301,-1.8763,-1.8282,-1.804,-1.7392,-1.6984,-1.673,-1.673,-1.673,-1.673,-1.673,-1.673,-1.673,-1.673,-1.673,-1.673,-1.673,-1.673,-1.673,-1.673,-1.673,-1.673,-1.673,-1.673,-1.673,-2.8889,-2.8826,-2.8634,-2.792,-2.7802,-2.767,-2.7229,-2.6973,-2.6782,-2.6782,-2.6658,-2.6533,-2.6533,-2.6533,-2.6533,-2.6533,-2.6533,-2.6214,-2.5636,-2.5285,-2.5172,-2.5347,-2.4845,-2.4644,-2.482,-2.5172,-2.5435,-2.5598,-2.6176,-2.6533,-2.6533,-2.6533,-2.6533,-2.6533,-2.6533,-2.6533,-2.6533,-2.6533,-2.6176,-2.5676,-2.5676,-2.5217,-2.442,-2.3756,-2.339,-2.3021,-2.2004,-2.1645,-2.1492,-2.1205,-2.0974,-2.0819,-2.0819,-2.0731,-2.0566,-2.0566,-2.0566,-2.0566,-2.0566,-2.0566,-2.0566,-2.0566,-2.0566,-2.0566,-2.0566,-2.0566,-2.0566,-2.0566,-2.0566,-2.0566,-2.042,-2.0498,-2.0333,-1.9872,-1.9794,-1.9706,-1.9469,-1.9301,-1.9301,-1.9301,-1.9301,-1.9301,-1.9301,-1.9301,-1.9301,-1.9301,-1.9301,-1.9301,-1.9301,-1.9301,-1.9301,-1.9301,-1.8922,-1.8451,-1.804,-1.7635,-1.7147,-1.673,-1.673,-1.673,-1.673,-1.673,-1.673,-1.673,-1.673,-1.673,-1.673,-1.673,-1.673,-1.673,-1.673,-1.673,-1.673,-1.673,-1.673,-1.673,-2.9747,-2.9623,-2.9359,-2.8634,-2.8492,-2.8492,-2.8492,-2.792,-2.7484,-2.7484,-2.6905,-2.6521,-2.6521,-2.6521,-2.6521,-2.6508,-2.6508,-2.6201,-2.5624,-2.4582,-2.4243,-2.4782,-2.4293,-2.4243,-2.4795,-2.4808,-2.5071,-2.5586,-2.6163,-2.6521,-2.6521,-2.6521,-2.6521,-2.6533,-2.6533,-2.6533,-2.6533,-2.6533,-2.6533,-2.6533,-2.6533,-2.6025,-2.5312,-2.5312,-2.4791,-2.3963,-2.3021,-2.2585,-2.2285,-2.1272,-2.0809,-2.0644,-2.0566,-2.0566,-2.0566,-2.0566,-2.0566,-2.0566,-2.0566,-2.0566,-2.0566,-2.0566,-2.0566,-2.0566,-2.0566,-2.0566,-2.0566,-2.0566,-2.0566,-2.0566,-2.0566,-2.042,-2.0264,-2.0274,-1.9882,-1.9566,-1.9566,-1.939,-1.9301,-1.9301,-1.9301,-1.9301,-1.9301,-1.9301,-1.9301,-1.9301,-1.9301,-1.9301,-1.9301,-1.9301,-1.9301,-1.9301,-1.8922,-1.8451,-1.804,-1.7635,-1.7147,-1.673,-1.673,-1.673,-1.673,-1.673,-1.673,-1.673,-1.673,-1.673,-1.673,-1.673,-1.673,-1.673,-1.673,-1.673,-1.673,-1.673,-1.673,-1.673,-3.0326,-3.0312,-3.0054,-2.9421,-2.9282,-2.9093,-2.8556,-2.8298,-2.8182,-2.8182,-2.8051,-2.7709,-2.7338,-2.6896,-2.6479,-2.5949,-2.5547,-2.5071,-2.4506,-2.418,-2.3891,-2.3653,-2.3416,-2.3464,-2.3566,-2.4042,-2.4318,-2.4481,-2.5034,-2.5498,-2.585,-2.585,-2.6063,-2.6533,-2.6533,-2.6533,-2.6533,-2.6533,-2.6533,-2.6533,-2.6533,-2.6383,-2.6094,-2.5523,-2.5158,-2.4862,-2.3975,-2.3672,-2.3452,-2.2521,-2.2069,-2.169,-2.0867,-2.0566,-2.0566,-2.0566,-2.0566,-2.0566,-2.0566,-2.0566,-2.0566,-2.0566,-2.0566,-2.0566,-2.0566,-2.0566,-2.0566,-2.0566,-2.0566,-2.0566,-2.0566,-2.0566,-2.0508,-2.0499,-2.014,-1.9818,-1.9786,-1.9494,-1.9301,-1.9301,-1.9301,-1.9301,-1.9301,-1.9301,-1.9301,-1.9301,-1.9301,-1.9301,-1.9301,-1.9301,-1.9301,-1.9301,-1.9152,-1.8754,-1.804,-1.7635,-1.7147,-1.673,-1.673,-1.673,-1.673,-1.673,-1.673,-1.673,-1.673,-1.673,-1.673,-1.673,-1.673,-1.673,-1.673,-1.673,-1.673,-1.673,-1.673,-1.673,-3.0568,-3.0568,-3.0447,-3.0068,-3.0007,-2.987,-2.9407,-2.9079,-2.8953,-2.8953,-2.8493,-2.8044,-2.7642,-2.7059,-2.6516,-2.6096,-2.5327,-2.4583,-2.4017,-2.3791,-2.3502,-2.309,-2.3078,-2.3078,-2.3078,-2.3703,-2.4004,-2.4004,-2.4556,-2.5084,-2.5598,-2.5598,-2.59,-2.6533,-2.6533,-2.6533,-2.6533,-2.6533,-2.6533,-2.6508,-2.6214,-2.6319,-2.6427,-2.5709,-2.5404,-2.5359,-2.4779,-2.4364,-2.407,-2.3396,-2.2798,-2.2209,-2.1108,-2.0731,-2.0731,-2.0644,-2.0566,-2.0566,-2.0566,-2.0566,-2.0566,-2.0566,-2.0566,-2.0566,-2.0566,-2.0566,-2.0566,-2.0566,-2.0566,-2.0566,-2.0566,-2.0566,-2.0635,-2.068,-2.0226,-1.9935,-2.0033,-1.9558,-1.9301,-1.9301,-1.9301,-1.9301,-1.9301,-1.9301,-1.9301,-1.9301,-1.9301,-1.9301,-1.9301,-1.9301,-1.9301,-1.9301,-1.8984,-1.8505,-1.804,-1.7392,-1.6984,-1.673,-1.673,-1.673,-1.673,-1.673,-1.673,-1.673,-1.673,-1.673,-1.673,-1.673,-1.673,-1.673,-1.673,-1.673,-1.673,-1.673,-1.673,-1.673,-3.0568,-3.0568,-3.0568,-3.0568,-3.0568,-3.0568,-3.0568,-3.0068,-2.9685,-2.9685,-2.8581,-2.7762,-2.7707,-2.7074,-2.6633,-2.6519,-2.5535,-2.468,-2.404,-2.3477,-2.3188,-2.3078,-2.3078,-2.3078,-2.3078,-2.3653,-2.3916,-2.3916,-2.4418,-2.4958,-2.5523,-2.5523,-2.5837,-2.6445,-2.6508,-2.6496,-2.6445,-2.6508,-2.6533,-2.6483,-2.5824,-2.5912,-2.6395,-2.5799,-2.5598,-2.5594,-2.5469,-2.4999,-2.4374,-2.3959,-2.3084,-2.2145,-2.1205,-2.0906,-2.0829,-2.0644,-2.0566,-2.0566,-2.0566,-2.0566,-2.0566,-2.0566,-2.0566,-2.0566,-2.0566,-2.0566,-2.0566,-2.0566,-2.0596,-2.0625,-2.0625,-2.0625,-2.0703,-2.0957,-2.0362,-1.9944,-2.0233,-1.9666,-1.9301,-1.9301,-1.9301,-1.9301,-1.9301,-1.9301,-1.9301,-1.9301,-1.9301,-1.9301,-1.9301,-1.9301,-1.9301,-1.9301,-1.8505,-1.8121,-1.804,-1.7221,-1.6812,-1.673,-1.673,-1.673,-1.673,-1.673,-1.673,-1.673,-1.673,-1.673,-1.673,-1.673,-1.673,-1.673,-1.673,-1.673,-1.673,-1.673,-1.673,-1.673,-3.0568,-3.0568,-3.0568,-3.0568,-3.0568,-3.0568,-3.0568,-3.0507,-3.0387,-3.0387,-2.9645,-2.9013,-2.8512,-2.7455,-2.6538,-2.6092,-2.532,-2.4679,-2.4118,-2.3933,-2.3602,-2.309,-2.3078,-2.3078,-2.3078,-2.3263,-2.3326,-2.3326,-2.3439,-2.4017,-2.4996,-2.4996,-2.5272,-2.5799,-2.6264,-2.6214,-2.5812,-2.6264,-2.6533,-2.6483,-2.5824,-2.5674,-2.5774,-2.5649,-2.5598,-2.5674,-2.6115,-2.6171,-2.5783,-2.429,-2.266,-2.1205,-2.0984,-2.0819,-2.0654,-2.0644,-2.0566,-2.0566,-2.0566,-2.0566,-2.0566,-2.0566,-2.0566,-2.0566,-2.0566,-2.0566,-2.0566,-2.0566,-2.084,-2.1094,-2.1094,-2.0915,-2.0995,-2.1522,-2.0498,-1.9808,-2.0366,-1.976,-1.9301,-1.9301,-1.9301,-1.9301,-1.9301,-1.9301,-1.9301,-1.9301,-1.9301,-1.9301,-1.9301,-1.9301,-1.9301,-1.9301,-1.9143,-1.8665,-1.804,-1.7797,-1.7383,-1.673,-1.673,-1.673,-1.673,-1.673,-1.673,-1.673,-1.673,-1.673,-1.673,-1.673,-1.673,-1.673,-1.673,-1.673,-1.673,-1.673,-1.673,-1.673,-3.051,-3.0642,-3.0702,-3.0628,-3.0642,-3.0702,-3.0628,-3.0568,-3.0568,-3.0568,-3.0016,-2.9377,-2.8753,-2.7808,-2.6887,-2.6085,-2.5603,-2.5131,-2.465,-2.4511,-2.4209,-2.3616,-2.3603,-2.3424,-2.3138,-2.3078,-2.3078,-2.3078,-2.3078,-2.3577,-2.4431,-2.4431,-2.4707,-2.5247,-2.5799,-2.5887,-2.5636,-2.6214,-2.6533,-2.6483,-2.5824,-2.5762,-2.5975,-2.5699,-2.5598,-2.5674,-2.6251,-2.6289,-2.5766,-2.4413,-2.3045,-2.1796,-2.1507,-2.1128,-2.0731,-2.0644,-2.0566,-2.0566,-2.0566,-2.0566,-2.0518,-2.0303,-2.041,-2.0566,-2.0566,-2.0566,-2.0625,-2.084,-2.1074,-2.1299,-2.1504,-2.1286,-2.126,-2.1873,-2.0693,-1.9925,-2.0578,-1.9896,-1.9301,-1.9301,-1.9301,-1.9301,-1.9301,-1.9301,-1.9301,-1.9301,-1.9127,-1.91,-1.9292,-1.9127,-1.9109,-1.9292,-1.9073,-1.8674,-1.804,-1.7797,-1.7392,-1.673,-1.673,-1.673,-1.673,-1.673,-1.673,-1.673,-1.673,-1.673,-1.673,-1.673,-1.673,-1.673,-1.673,-1.673,-1.673,-1.673,-1.673,-1.673,-3.0031,-3.0265,-3.0309,-3.0279,-3.0367,-3.0513,-3.0598,-3.0555,-3.0571,-3.0687,-3.0075,-2.9435,-2.8866,-2.8068,-2.7277,-2.6394,-2.6096,-2.5825,-2.5398,-2.5175,-2.4851,-2.4292,-2.4292,-2.3943,-2.3305,-2.3245,-2.3185,-2.3078,-2.3078,-2.3427,-2.4004,-2.4004,-2.4293,-2.4845,-2.536,-2.5598,-2.5636,-2.6214,-2.6533,-2.6471,-2.5737,-2.5749,-2.6113,-2.5536,-2.5322,-2.5398,-2.5975,-2.5727,-2.4939,-2.4402,-2.3525,-2.2695,-2.2392,-2.1731,-2.1041,-2.0876,-2.0663,-2.0449,-2.0449,-2.04,-2.0264,-1.9893,-2.0185,-2.0566,-2.0566,-2.0566,-2.0693,-2.1143,-2.1289,-2.1435,-2.1719,-2.152,-2.1525,-2.2148,-2.1053,-2.0316,-2.0847,-2.0042,-1.9463,-1.9311,-1.9301,-1.9301,-1.9301,-1.9301,-1.9301,-1.9301,-1.8999,-1.8926,-1.9191,-1.8953,-1.8935,-1.9191,-1.8966,-1.8523,-1.804,-1.7635,-1.7229,-1.673,-1.673,-1.673,-1.673,-1.673,-1.673,-1.673,-1.673,-1.673,-1.673,-1.673,-1.673,-1.673,-1.673,-1.673,-1.673,-1.673,-1.673,-1.673,-2.84,-2.8389,-2.8455,-2.898,-2.9097,-2.9549,-3.0601,-3.0426,-3.0381,-3.0955,-3.0425,-2.9763,-2.9116,-2.7968,-2.7218,-2.7063,-2.6563,-2.6229,-2.6176,-2.5673,-2.5231,-2.5063,-2.5063,-2.4738,-2.3956,-2.3943,-2.3662,-2.3078,-2.3078,-2.3427,-2.4004,-2.4004,-2.4293,-2.4845,-2.536,-2.5598,-2.5636,-2.6214,-2.6533,-2.6445,-2.5335,-2.4971,-2.4983,-2.4418,-2.4217,-2.428,-2.4845,-2.4435,-2.3692,-2.4077,-2.3444,-2.2623,-2.2985,-2.2467,-2.169,-2.1614,-2.0893,-2.0,-2.0,-1.9736,-1.9443,-1.9385,-1.9971,-2.0566,-2.0566,-2.0566,-2.0693,-2.1143,-2.1533,-2.1699,-2.1387,-2.1719,-2.2053,-2.2169,-2.1539,-2.0976,-2.0922,-2.0466,-1.9956,-1.9347,-1.9301,-1.9301,-1.9301,-1.9301,-1.9301,-1.9301,-1.9256,-1.91,-1.8806,-1.9063,-1.9091,-1.8806,-1.9049,-1.8834,-1.804,-1.7959,-1.7546,-1.673,-1.673,-1.673,-1.673,-1.673,-1.673,-1.673,-1.673,-1.673,-1.673,-1.673,-1.673,-1.673,-1.673,-1.673,-1.673,-1.673,-1.673,-1.673,-2.7483,-2.7556,-2.7659,-2.7803,-2.8263,-2.8704,-2.9222,-2.944,-2.9658,-2.9938,-3.0041,-2.9702,-2.8685,-2.7727,-2.7233,-2.7284,-2.7011,-2.6841,-2.6893,-2.6563,-2.6229,-2.5837,-2.5783,-2.5508,-2.4851,-2.4509,-2.4118,-2.3767,-2.3305,-2.3263,-2.3514,-2.3514,-2.364,-2.3904,-2.4456,-2.4707,-2.4732,-2.5297,-2.5548,-2.5498,-2.5021,-2.482,-2.4795,-2.4556,-2.4456,-2.4456,-2.4393,-2.4223,-2.4115,-2.4268,-2.3845,-2.3183,-2.3765,-2.3254,-2.236,-2.1907,-2.1394,-2.0863,-2.0426,-2.0146,-2.0,-2.0,-2.0478,-2.0937,-2.0937,-2.0937,-2.1064,-2.1514,-2.1748,-2.1826,-2.1631,-2.1627,-2.1719,-2.1961,-2.1173,-2.0495,-2.0731,-2.0167,-1.9592,-1.9329,-1.9301,-1.9301,-1.9301,-1.9301,-1.9301,-1.9301,-1.91,-1.899,-1.9036,-1.8999,-1.8999,-1.9036,-1.921,-1.8904,-1.804,-1.804,-1.7546,-1.673,-1.673,-1.673,-1.673,-1.673,-1.673,-1.673,-1.673,-1.673,-1.673,-1.673,-1.673,-1.673,-1.673,-1.673,-1.6714,-1.6516,-1.6563,-1.673]},{"header":{"parameterUnit":"m.s-1","parameterCategory":1,"la1":30.6,"la2":28.766,"lo1":-90.7593,"lo2":-88.6598,"dy":0.0162,"dx":0.0183,"nx":116,"ny":114,"refTime":"2023-07-05T06:00:00:Z","depth":0,"parameterNumber":3,"parameterNumberName":"V-component_of_WINDS"},"data":[0.0,0.0,0.0,0.0,0.0,0.0,0.0,0.0,0.0,0.0,0.0,0.0,0.0,0.0,0.0,0.0,0.0,0.0,0.0,0.0,0.0,0.0,0.0,0.0,0.0,0.0,0.0,0.0,0.0,0.0,0.0,0.0,0.0,0.0,0.0,0.0,0.0,0.0,0.0,0.0,0.0,0.0,0.0,0.0,0.0,0.0,0.0,0.0,0.0,0.0,0.0,0.0,0.0,0.0,0.0,0.0,0.0,0.0,0.0,0.0,0.0,0.0,0.0,0.0,0.0,0.0,0.0,0.0,0.0,0.0,0.0,0.0,0.0,0.0,0.0,0.0,0.0,0.0,0.0,0.0,0.0,0.0,0.0,0.0,0.0,0.0,0.0,0.0,0.0,0.0,0.0,0.0,0.0,0.0,0.0,0.0,0.0,0.0,0.0,0.0,0.0,0.0,0.0,0.0,0.0,0.0,0.0,0.0,0.0,0.0,0.0,0.0,0.0,0.0,0.0,0.0,0.0,0.0,0.0,0.0,0.0,0.0,0.0,0.0,0.0,0.0,0.0,0.0,0.0,0.0,0.0,0.0,0.0,0.0,0.0,0.0,0.0,0.0,0.0,0.0,0.0,0.0,0.0,0.0,0.0,0.0,0.0,0.0,0.0,0.0,0.0,0.0,0.0,0.0,0.0,0.0,0.0,0.0,0.0,0.0,0.0,0.0,0.0,0.0,0.0,0.0,0.0,0.0,0.0,0.0,0.0,0.0,0.0,0.0,0.0,0.0,0.0,0.0,0.0,0.0,0.0,0.0,0.0,0.0,0.0,0.0,0.0,0.0,0.0,0.0,0.0,0.0,0.0,0.0,0.0,0.0,0.0,0.0,0.0,0.0,0.0,0.0,0.0,0.0,0.0,0.0,0.0,0.0,0.0,0.0,0.0,0.0,0.0,0.0,0.0,0.0,0.0,0.0,0.0,0.0,0.0,0.0,0.0,0.0,0.0,0.0,0.0,0.0,0.0,0.0,0.0,0.0,0.0,0.0,0.0,0.0,0.0,0.0,0.0,0.0,0.0,0.0,0.0,0.0,0.0,0.0,0.0,0.0,0.0,0.0,0.0,0.0,0.0,0.0,0.0,0.0,0.0,0.0,0.0,0.0,0.0,0.0,0.0,0.0,0.0,0.0,0.0,0.0,0.0,0.0,0.0,0.0,0.0,0.0,0.0,0.0,0.0,0.0,0.0,0.0,0.0,0.0,0.0,0.0,0.0,0.0,0.0,0.0,0.0,0.0,0.0,0.0,0.0,0.0,0.0,0.0,0.0,0.0,0.0,0.0,0.0,0.0,0.0,0.0,0.0,0.0,0.0,0.0,0.0,0.0,0.0,0.0,0.0,0.0,0.0,0.0,0.0,0.0,0.0,0.0,0.0,0.0,0.0,0.0,0.0,0.0,0.0,0.0,0.0,0.0,0.0,0.0,0.0,0.0,0.0,0.0,0.0,0.0,0.0,0.0,0.0,0.0,0.0,0.0,0.0,0.0,0.0,0.0,0.0,0.0,0.0,0.0,0.0,0.0,0.0,0.0,0.0,0.0,0.0,0.0,0.0,0.0,0.0,0.0,0.0,0.0,0.0,0.0,0.0,0.0,0.0,0.0,0.0,0.0,0.0,0.0,0.0,0.0,0.0,0.0,0.0,0.0,0.0,0.0,0.0,0.0,0.0,0.0,0.0,0.0,0.0,0.0,0.0,0.0,0.0,0.0,0.0,0.0,0.0,0.0,0.0,0.0,0.0,0.0,0.0,0.0,0.0,0.0,0.0,0.0,0.0,0.0,0.0,0.0,0.0,0.0,0.0,0.0,0.0,0.0,0.0,0.0,0.0,0.0,0.0,0.0,0.0,0.0,0.0,0.0,0.0,0.0,0.0,0.0,0.0,0.0,0.0,0.0,0.0,0.0,0.0,0.0,0.0,0.0,0.0,0.0,0.0,0.0,0.0,0.0,0.0,0.0,0.0,0.0,0.0,0.0,0.0,0.0,0.0,0.0,0.0,0.0,0.0,0.0,0.0,0.0,0.0,0.0,0.0,0.0,0.0,0.0,0.0,0.0,0.0,0.0,0.0,0.0,0.0,0.0,0.0,0.0,0.0,0.0,0.0,0.0,0.0,0.0,0.0,0.0,0.0,0.0,0.0,0.0,0.0,0.0,0.0,0.0,0.0,0.0,0.0,0.0,0.0,0.0,0.0,0.0,0.0,0.0,0.0,0.0,0.0,0.0,0.0,0.0,0.0,0.0,0.0,0.0,0.0,0.0,0.0,0.0,0.0,0.0,0.0,0.0,0.0,0.0,0.0,0.0,0.0,0.0,0.0,0.0,0.0,0.0,0.0,0.0,0.0,0.0,0.0,0.0,0.0,0.0,0.0,0.0,0.0,0.0,0.0,0.0,0.0,0.0,0.0,0.0,0.0,0.0,0.0,0.0,0.0,0.0,0.0,0.0,0.0,0.0,0.0,0.0,0.0,0.0,0.0,0.0,0.0,0.0,0.0,0.0,0.0,0.0,0.0,0.0,0.0,0.0,0.0,0.0,0.0,0.0,0.0,0.0,0.0,0.0,0.0,0.0,0.0,0.0,0.0,0.0,0.0,0.0,0.0,0.0,0.0,0.0,0.0,0.0,0.0,0.0,0.0,0.0,0.0,0.0,0.0,0.0,0.0,0.0,0.0,0.0,0.0,0.0,0.0,0.0,0.0,0.0,0.0,0.0,0.0,0.0,0.0,0.0,0.0,0.0,0.0,0.0,0.0,0.0,0.0,0.0,0.0,0.0,0.0,0.0,0.0,0.0,0.0,0.0,0.0,0.0,0.0,0.0,0.0,0.0,0.0,0.0,0.0,0.0,0.0,0.0,0.0,0.0,0.0,0.0,0.0,0.0,0.0,0.0,0.0,0.0,0.0,0.0,0.0,0.0,0.0,0.0,0.0,0.0,0.0,0.0,0.0,0.0,0.0,0.0,0.0,0.0,0.0,0.0,0.0,0.0,0.0,0.0,0.0,0.0,0.0,0.0,0.0,0.0,0.0,0.0,0.0,0.0,0.0,0.0,0.0,0.0,0.0,0.0,0.0,0.0,0.0,0.0,0.0,0.0,0.0,0.0,0.0,0.0,0.0,0.0,0.0,0.0,0.0,0.0,0.0,0.0,0.0,0.0,0.0,0.0,0.0,0.0,0.0,0.0,0.0,0.0,0.0,0.0,0.0,0.0,0.0,0.0,0.0,0.0,0.0,0.0,0.0,0.0,0.0,0.0,0.0,0.0,0.0,0.0,0.0,0.0,0.0,0.0,0.0,0.0,0.0,0.0,0.0,0.0,0.0,0.0,0.0,0.0,0.0,0.0,0.0,0.0,0.0,0.0,0.0,0.0,0.0,0.0,0.0,0.0,0.0,0.0,0.0,0.0,0.0,0.0,0.0,0.0,0.0,0.0,0.0,0.0,0.0,0.0,0.0,0.0,0.0,0.0,0.0,0.0,0.0,0.0,0.0,0.0,0.0,0.0,0.0,0.0,0.0,0.0,0.0,0.0,0.0,0.0,0.0,0.0,0.0,0.0,0.0,0.0,0.0,0.0,0.0,0.0,0.0,0.0,0.0,0.0,0.0,0.0,0.0,0.0,0.0,0.0,0.0,0.0,0.0,0.0,0.0,0.0,0.0,0.0,0.0,0.0,0.0,0.0,0.0,0.0,0.0,0.0,0.0,0.0,0.0,0.0,0.0,0.0,0.0,0.0,0.0,0.0,0.0,0.0,0.0,0.0,0.0,0.0,0.0,0.0,0.0,0.0,0.0,0.0,0.0,0.0,0.0,0.0,0.0,0.0,0.0,0.0,0.0,0.0,0.0,0.0,0.0,0.0,0.0,0.0,0.0,0.0,0.0,0.0,0.0,0.0,0.0,0.0,0.0,0.0,0.0,0.0,0.0,0.0,0.0,0.0,0.0,0.0,0.0,0.0,0.0,0.0,0.0,0.0,0.0,0.0,0.0,0.0,0.0,0.0,0.0,0.0,0.0,0.0,0.0,0.0,0.0,0.0,0.0,0.0,0.0,0.0,0.0,0.0,0.0,0.0,0.0,0.0,0.0,0.0,0.0,0.0,0.0,0.0,0.0,0.0,0.0,0.0,0.0,0.0,0.0,0.0,0.0,0.0,0.0,0.0,0.0,0.0,0.0,0.0,0.0,0.0,0.0,0.0,0.0,0.0,0.0,0.0,0.0,0.0,0.0,0.0,0.0,0.0,0.0,0.0,0.0,0.0,0.0,0.0,0.0,0.0,0.0,0.0,0.0,0.0,0.0,0.0,0.0,0.0,0.0,0.0,0.0,0.0,0.0,0.0,0.0,0.0,0.0,0.0,0.0,0.0,0.0,0.0,0.0,0.0,0.0,0.0,0.0,0.0,0.0,0.0,0.0,0.0,0.0,0.0,0.0,0.0,0.0,0.0,0.0,0.0,0.0,0.0,0.0,0.0,0.0,0.0,0.0,0.0,0.0,0.0,0.0,0.0,0.0,0.0,0.0,0.0,0.0,0.0,0.0,0.0,0.0,0.0,0.0,0.0,0.0,0.0,0.0,0.0,0.0,0.0,0.0,0.0,0.0,0.0,0.0,0.0,0.0,0.0,0.0,0.0,0.0,0.0,0.0,0.0,0.0,0.0,0.0,0.0,0.0,0.0,0.0,0.0,0.0,0.0,0.0,0.0,0.0,0.0,0.0,0.0,0.0,0.0,0.0,0.0,0.0,0.0,0.0,0.0,0.0,0.0,0.0,0.0,0.0,0.0,0.0,0.0,0.0,0.0,0.0,0.0,0.0,0.0,0.0,0.0,0.0,0.0,0.0,0.0,0.0,0.0,0.0,0.0,0.0,0.0,0.0,0.0,0.0,0.0,0.0,0.0,0.0,0.0,0.0,0.0,0.0,0.0,0.0,0.0,0.0,0.0,0.0,0.0,0.0,0.0,0.0,0.0,0.0,0.0,0.0,0.0,0.0,0.0,0.0,0.0,0.0,0.0,0.0,0.0,0.0,0.0,0.0,0.0,0.0,0.0,0.0,0.0,0.0,0.0,0.0,0.0,0.0,0.0,0.0,0.0,0.0,0.0,0.0,0.0,0.0,0.0,0.0,0.0,0.0,0.0,0.0,0.0,0.0,0.0,0.0,0.0,0.0,0.0,0.0,0.0,0.0,0.0,0.0,0.0,0.0,0.0,0.0,0.0,0.0,0.0,0.0,0.0,0.0,0.0,0.0,0.0,0.0,0.0,0.0,0.0,0.0,0.0,0.0,0.0,0.0,0.0,0.0,0.0,0.0,0.0,0.0,0.0,0.0,0.0,0.0,0.0,0.0,0.0,0.0,0.0,0.0,0.0,0.0,0.0,0.0,0.0,0.0,0.0,0.0,0.0,0.0,0.0,0.0,0.0,0.0,0.0,0.0,0.0,0.0,0.0,0.0,0.0,0.0,0.0,0.0,0.0,0.0,0.0,0.0,0.0,0.0,0.0,0.0,0.0,0.0,0.0,0.0,0.0,0.0,0.0,0.0,0.0,0.0,0.0,0.0,0.0,0.0,0.0,0.0,0.0,0.0,0.0,0.0,0.0,0.0,0.0,0.0,0.0,0.0,0.0,0.0,0.0,0.0,0.0,0.0,0.0,0.0,0.0,0.0,0.0,0.0,0.0,0.0,0.0,0.0,0.0,0.0,0.0,0.0,0.0,0.0,0.0,0.0,0.0,0.0,0.0,0.0,0.0,0.0,0.0,0.0,0.0,0.0,0.0,0.0,0.0,0.0,0.0,0.0,0.0,0.0,0.0,0.0,0.0,0.0,0.0,0.0,0.0,0.0,0.0,0.0,0.0,0.0,0.0,0.0,0.0,0.0,0.0,0.0,0.0,0.0,0.0,0.0,0.0,0.0,0.0,0.0,0.0,0.0,0.0,0.0,0.0,0.0,0.0,0.0,0.0,0.0,0.0,0.0,0.0,0.0,0.0,0.0,0.0,0.0,0.0,0.0,0.0,0.0,0.0,0.0,0.0,0.0,0.0,0.0,0.0,0.0,0.0,0.0,0.0,0.0,0.0,-4.1635,-4.083,0.0,0.0,0.0,0.0,0.0,0.0,0.0,0.0,0.0,0.0,0.0,0.0,0.0,0.0,0.0,0.0,0.0,0.0,0.0,0.0,0.0,0.0,0.0,0.0,0.0,0.0,0.0,0.0,0.0,0.0,0.0,0.0,0.0,0.0,0.0,0.0,0.0,0.0,0.0,0.0,0.0,0.0,0.0,0.0,0.0,0.0,0.0,0.0,0.0,0.0,0.0,0.0,0.0,0.0,0.0,0.0,0.0,0.0,0.0,0.0,0.0,0.0,0.0,0.0,0.0,0.0,0.0,0.0,0.0,0.0,0.0,0.0,0.0,0.0,0.0,0.0,0.0,0.0,0.0,0.0,0.0,0.0,0.0,0.0,0.0,0.0,0.0,0.0,0.0,0.0,0.0,0.0,0.0,0.0,0.0,0.0,0.0,0.0,0.0,0.0,0.0,0.0,0.0,0.0,0.0,0.0,0.0,0.0,0.0,0.0,0.0,0.0,0.0,0.0,-4.3034,-4.2043,0.0,0.0,0.0,0.0,0.0,0.0,0.0,0.0,0.0,0.0,0.0,0.0,0.0,0.0,0.0,0.0,0.0,0.0,0.0,0.0,0.0,0.0,0.0,0.0,0.0,0.0,0.0,0.0,0.0,0.0,0.0,0.0,0.0,0.0,0.0,0.0,0.0,0.0,0.0,0.0,0.0,0.0,0.0,0.0,0.0,0.0,0.0,0.0,0.0,0.0,0.0,0.0,0.0,0.0,0.0,0.0,0.0,0.0,0.0,0.0,0.0,0.0,0.0,0.0,0.0,0.0,0.0,0.0,0.0,0.0,0.0,0.0,0.0,0.0,0.0,0.0,0.0,0.0,0.0,0.0,0.0,0.0,0.0,0.0,0.0,0.0,0.0,0.0,0.0,0.0,0.0,0.0,0.0,0.0,0.0,0.0,0.0,0.0,0.0,0.0,0.0,0.0,0.0,0.0,0.0,0.0,0.0,0.0,-4.3862,-4.4887,-4.5063,-4.5074,-4.593,-4.726,-4.5037,-4.4006,-4.3723,-4.1747,0.0,0.0,0.0,0.0,0.0,0.0,0.0,0.0,0.0,0.0,0.0,0.0,0.0,0.0,0.0,0.0,0.0,0.0,0.0,0.0,0.0,0.0,0.0,0.0,0.0,0.0,0.0,0.0,0.0,0.0,0.0,0.0,0.0,0.0,0.0,0.0,0.0,0.0,-3.2331,-3.2934,-3.315,-3.2925,0.0,0.0,0.0,0.0,0.0,0.0,0.0,0.0,0.0,0.0,0.0,0.0,0.0,0.0,0.0,0.0,0.0,0.0,0.0,0.0,0.0,0.0,0.0,0.0,0.0,0.0,0.0,0.0,0.0,0.0,0.0,0.0,0.0,0.0,0.0,0.0,0.0,0.0,0.0,0.0,0.0,0.0,0.0,0.0,-3.5829,-3.5901,0.0,0.0,0.0,0.0,0.0,0.0,0.0,0.0,0.0,0.0,0.0,0.0,0.0,-4.043,-4.1436,-4.3294,-4.4643,-4.5539,-4.7424,-4.8677,-4.9276,-4.8832,-4.8721,-4.8836,-4.7333,0.0,-4.5813,-4.5495,0.0,0.0,0.0,0.0,0.0,0.0,0.0,0.0,0.0,0.0,0.0,0.0,0.0,0.0,0.0,0.0,0.0,0.0,0.0,0.0,0.0,0.0,0.0,0.0,0.0,0.0,0.0,0.0,0.0,0.0,0.0,0.0,0.0,0.0,0.0,0.0,-3.0891,-3.2561,-3.3697,-3.399,-3.4286,-3.4507,-3.3925,-3.2866,-3.1491,-3.1428,0.0,0.0,0.0,0.0,0.0,0.0,0.0,0.0,0.0,0.0,0.0,0.0,0.0,0.0,0.0,0.0,0.0,0.0,0.0,0.0,0.0,0.0,0.0,0.0,0.0,0.0,0.0,0.0,0.0,0.0,0.0,0.0,0.0,0.0,0.0,0.0,0.0,0.0,0.0,-3.4869,-3.535,-3.4993,-3.5168,-3.4957,0.0,0.0,0.0,0.0,0.0,0.0,0.0,0.0,0.0,-4.1003,-4.2035,-4.3201,-4.452,-4.6019,-4.7105,-4.7841,-4.9343,-5.0354,-5.0887,-5.0725,-5.0661,-5.0547,-4.8692,-4.7734,-4.7349,-4.5494,-4.3869,-4.2456,0.0,0.0,0.0,0.0,-4.1939,-4.2428,0.0,0.0,0.0,0.0,0.0,0.0,0.0,0.0,0.0,0.0,0.0,0.0,0.0,0.0,0.0,-2.88,0.0,0.0,0.0,0.0,0.0,0.0,0.0,0.0,0.0,0.0,0.0,0.0,-3.2296,-3.3721,-3.4737,-3.4906,-3.5205,-3.5582,-3.5582,-3.4476,-3.2531,-3.2458,-3.1632,0.0,0.0,0.0,0.0,0.0,0.0,0.0,0.0,0.0,0.0,0.0,0.0,0.0,0.0,0.0,0.0,0.0,0.0,0.0,0.0,0.0,0.0,0.0,0.0,0.0,0.0,0.0,0.0,0.0,0.0,0.0,0.0,0.0,0.0,0.0,0.0,0.0,0.0,-3.512,-3.5438,-3.4552,-3.5598,-3.5773,0.0,0.0,0.0,0.0,0.0,0.0,-3.9571,-4.0381,-4.1615,-4.3433,-4.469,-4.5931,-4.7216,-4.8291,-4.9173,-4.987,-5.099,-5.1859,-5.2438,-5.2177,-5.2099,-5.199,-4.9467,-4.8399,-4.823,-4.5418,-4.3994,-4.3493,-4.2465,-4.1802,-4.1451,-4.1905,-4.2454,-4.3091,0.0,0.0,0.0,0.0,0.0,0.0,0.0,0.0,0.0,0.0,0.0,0.0,0.0,0.0,-2.9498,-3.0631,-3.0119,-2.8814,0.0,0.0,0.0,0.0,0.0,0.0,0.0,0.0,0.0,-3.1336,-3.4014,-3.5368,-3.5445,-3.6091,-3.6384,-3.6446,-3.6446,-3.5944,-3.5023,-3.3719,-3.2992,-3.2516,0.0,0.0,0.0,0.0,0.0,0.0,0.0,0.0,0.0,0.0,0.0,0.0,0.0,0.0,0.0,0.0,0.0,0.0,0.0,0.0,0.0,0.0,0.0,0.0,0.0,0.0,0.0,0.0,0.0,0.0,0.0,0.0,0.0,0.0,0.0,0.0,0.0,0.0,0.0,-3.5878,-3.7813,0.0,0.0,0.0,0.0,-3.8176,-3.9514,-4.1053,-4.2777,-4.4168,-4.5685,-4.7425,-4.7733,-4.7965,-4.8309,-4.9251,-5.0482,-5.1963,-5.2829,-5.3898,-5.4981,-5.3648,-5.3047,-5.2855,-4.9685,-4.8314,-4.8188,-4.6687,-4.5098,-4.3662,-4.441,-4.3702,-4.2435,-4.4098,-4.4727,-4.4888,0.0,0.0,0.0,0.0,0.0,0.0,0.0,0.0,0.0,0.0,0.0,0.0,0.0,-2.9653,-3.1309,-3.1857,-3.206,-3.1029,-2.8419,0.0,0.0,0.0,0.0,0.0,0.0,0.0,-3.1236,-3.3367,-3.4799,-3.5707,-3.6153,-3.683,-3.7138,-3.7153,-3.76,-3.7635,-3.7235,-3.5797,-3.4329,-3.2888,-3.2745,-3.1502,0.0,0.0,0.0,0.0,0.0,0.0,0.0,0.0,0.0,0.0,0.0,0.0,0.0,0.0,0.0,0.0,0.0,0.0,0.0,0.0,0.0,0.0,0.0,0.0,0.0,0.0,0.0,0.0,0.0,0.0,0.0,0.0,0.0,0.0,0.0,0.0,0.0,-3.7369,-3.9111,0.0,-3.8151,-4.0564,-4.2047,-4.1606,-4.3832,-4.5482,-4.6221,-4.7193,-4.8006,-4.8629,-4.9737,-5.0349,-5.0474,-5.1403,-5.2262,-5.303,-5.3662,-5.4056,-5.4173,-5.3874,-5.3441,-5.2794,-5.0644,-4.9719,-4.9544,-4.7539,-4.6083,-4.5179,-4.5577,-4.5358,-4.489,-4.5514,-4.5748,-4.5779,0.0,0.0,0.0,0.0,0.0,0.0,0.0,0.0,0.0,0.0,0.0,-2.6948,-2.8713,-3.119,-3.2883,-3.3195,-3.3404,-3.2213,-2.9272,0.0,0.0,0.0,0.0,0.0,0.0,-3.0578,-3.2563,-3.4475,-3.5383,-3.6045,-3.6507,-3.6953,-3.7277,-3.7523,-3.7969,-3.8292,-3.8415,-3.7591,-3.6142,-3.4431,-3.4442,-3.3291,-3.1463,0.0,0.0,0.0,0.0,0.0,0.0,0.0,0.0,0.0,0.0,0.0,0.0,0.0,0.0,0.0,0.0,0.0,0.0,0.0,0.0,0.0,0.0,0.0,0.0,0.0,0.0,0.0,0.0,0.0,0.0,0.0,0.0,0.0,0.0,-3.7318,-3.8824,-3.8509,-4.0394,-4.1479,-4.0831,-4.3538,-4.5205,-4.493,-4.7044,-4.8457,-4.8771,-4.9489,-5.0053,-5.0326,-5.1431,-5.2003,-5.2047,-5.2724,-5.3258,-5.3549,-5.3925,-5.3931,-5.3594,-5.3525,-5.3086,-5.2308,-5.0728,-5.0043,-4.9852,-4.779,-4.666,-4.6248,-4.6085,-4.6036,-4.6036,-4.6111,-4.6138,-4.6138,0.0,0.0,0.0,0.0,0.0,0.0,0.0,0.0,0.0,0.0,0.0,-2.8449,-3.1297,-3.3004,-3.4182,-3.4648,-3.3982,-3.218,-2.899,-2.7683,0.0,0.0,0.0,0.0,-2.8637,-3.2471,-3.4491,-3.4537,-3.5845,-3.6507,-3.6522,-3.6538,-3.6923,-3.7569,-3.7584,-3.7954,-3.8569,-3.8945,-3.8482,-3.737,-3.5498,-3.5117,-3.5251,0.0,0.0,0.0,0.0,0.0,0.0,0.0,0.0,0.0,0.0,0.0,0.0,0.0,0.0,0.0,0.0,0.0,0.0,0.0,0.0,0.0,0.0,0.0,0.0,0.0,0.0,0.0,0.0,0.0,0.0,0.0,0.0,0.0,-3.6046,-3.7666,-3.9086,-3.9276,-4.1782,-4.3828,-4.4675,-4.6266,-4.738,-4.7806,-4.8867,-4.9747,-5.0319,-5.1118,-5.1926,-5.2787,-5.2806,-5.285,-5.2999,-5.3164,-5.3359,-5.3682,-5.3682,-5.362,-5.3507,-5.2674,-5.2007,-5.1443,-4.9843,-4.9137,-4.9025,-4.7473,-4.6837,-4.6759,-4.6012,-4.5703,-4.5717,-4.5914,-4.5997,-4.6017,0.0,0.0,0.0,0.0,0.0,0.0,0.0,0.0,0.0,0.0,-2.729,-2.9544,-3.1605,-3.386,-3.5024,-3.4613,-3.3935,-3.2138,-2.8986,0.0,0.0,0.0,0.0,0.0,-3.2616,-3.3867,-3.4953,-3.5938,-3.6307,-3.6738,-3.723,-3.7723,-3.8323,-3.8985,-3.973,-4.0189,-4.0442,-4.0758,-4.0578,-3.9984,-3.8463,-3.7283,-3.6223,0.0,0.0,0.0,0.0,0.0,0.0,0.0,0.0,0.0,0.0,0.0,0.0,0.0,0.0,0.0,0.0,0.0,0.0,0.0,0.0,0.0,0.0,0.0,0.0,0.0,0.0,0.0,0.0,0.0,0.0,0.0,-3.6655,-3.804,-3.7845,-3.9766,-4.1315,-4.1802,-4.399,-4.5482,-4.5567,-4.8136,-4.9505,-4.889,-5.0597,-5.162,-5.1524,-5.2082,-5.2543,-5.2806,-5.2974,-5.3103,-5.3146,-5.3164,-5.3248,-5.3336,-5.3584,-5.3088,-5.194,-5.2213,-5.1556,-5.0278,-5.0059,-4.9977,-4.9843,-4.8209,-4.7522,-4.7411,-4.6179,-4.5703,-4.5717,-4.5757,-4.5871,-4.6007,0.0,0.0,0.0,0.0,0.0,0.0,0.0,0.0,0.0,0.0,-2.7983,-3.0179,-3.2497,-3.4345,-3.5024,-3.419,-3.2571,-3.0644,-2.8347,0.0,0.0,0.0,0.0,-3.0818,-3.4726,-3.5183,-3.5845,-3.6923,-3.6923,-3.7107,-3.7507,-3.82,-3.8877,-3.9539,-4.0344,-4.0821,-4.1138,-4.1588,-4.1805,-4.1733,-4.0967,-3.9773,-3.8183,-3.6283,-3.5444,-3.5145,-3.4048,-3.3653,-3.3559,-3.3498,0.0,0.0,0.0,0.0,0.0,0.0,0.0,0.0,0.0,0.0,0.0,0.0,0.0,0.0,0.0,0.0,0.0,0.0,0.0,0.0,0.0,0.0,0.0,0.0,-3.8088,-3.9748,-4.0836,-4.1836,-4.2959,-4.4164,-4.5438,-4.6595,-4.7561,-4.9387,-5.0352,-4.9965,-5.1431,-5.2239,-5.2108,-5.2563,-5.285,-5.2955,-5.306,-5.3146,-5.3206,-5.3206,-5.3206,-5.3206,-5.34,-5.2897,-5.1825,-5.2211,-5.1643,-5.0315,-5.0513,-5.0468,-5.0206,-4.8888,-4.8143,0.0,0.0,0.0,0.0,0.0,-4.5783,-4.5997,0.0,0.0,0.0,0.0,0.0,0.0,0.0,0.0,0.0,0.0,0.0,-3.0235,-3.3364,-3.4273,-3.4227,-3.3125,-3.0537,-2.8353,0.0,0.0,0.0,-2.7533,-2.9373,-3.1988,-3.5537,-3.6184,-3.683,-3.7507,-3.7415,-3.7507,-3.7738,-3.8262,-3.8908,-3.9631,-4.0049,-4.0591,-4.1205,-4.1851,-4.2396,-4.286,-4.2883,-4.2155,-4.0687,-3.7809,-3.7136,-3.7514,-3.5882,-3.4558,-3.3628,-3.4111,0.0,0.0,0.0,0.0,0.0,0.0,0.0,0.0,0.0,0.0,0.0,0.0,0.0,0.0,0.0,0.0,0.0,0.0,0.0,0.0,0.0,0.0,0.0,0.0,-4.0075,-4.2026,-4.4234,-4.4044,-4.4337,-4.6086,-4.643,-4.7387,-4.9682,-5.0048,-5.0362,-5.0822,-5.15,-5.1946,-5.1994,0.0,0.0,0.0,0.0,-5.2999,-5.3206,-5.3206,-5.3206,-5.3206,-5.3206,-5.2913,-5.2437,-5.2382,-5.1828,-5.0874,-5.0828,-5.0586,-5.0111,-4.9358,-4.8483,-4.7513,-4.5908,-4.5297,-4.5298,-4.5438,-4.5669,-4.5944,0.0,0.0,0.0,0.0,0.0,0.0,0.0,0.0,0.0,-2.6834,-2.7777,-2.9277,-3.2205,-3.2526,-3.1931,-3.0492,-2.8726,-2.6874,0.0,0.0,-2.6849,-2.9259,-3.1545,-3.3894,-3.6261,-3.643,-3.683,-3.7507,-3.6953,-3.7523,-3.9108,-3.8708,-3.917,-4.0339,-4.1002,-4.1396,-4.1522,-4.2238,-4.2789,-4.318,-4.3015,-4.2942,-4.2853,-4.0783,-4.0095,-4.0026,-3.8429,-3.7705,-3.7318,-3.6232,-3.5348,-3.4458,-3.3144,0.0,0.0,0.0,0.0,0.0,0.0,0.0,0.0,0.0,0.0,0.0,0.0,0.0,0.0,0.0,0.0,0.0,0.0,0.0,0.0,-3.9881,-4.2135,-4.4216,-4.5924,-4.6544,-4.6697,-4.6309,-4.7476,-4.839,-4.8706,-4.9802,-5.0355,-4.9965,-5.0822,-5.1192,-5.0946,-5.1398,-5.1897,-5.2389,-5.2454,-5.2761,-5.3206,-5.3206,-5.3206,-5.3206,0.0,0.0,-5.2063,-5.1713,-5.1042,-5.0176,-4.9778,-4.9574,-4.9456,-4.8924,-4.7938,-4.6653,-4.5679,-4.5297,-4.5317,-4.5339,-4.5438,-4.5591,0.0,0.0,0.0,0.0,0.0,0.0,0.0,0.0,0.0,0.0,-2.7219,-2.8213,-3.0205,-2.9999,-2.9375,-2.862,-2.7194,0.0,0.0,-2.5453,-2.7886,-3.0225,-3.239,-3.4498,-3.6557,-3.652,-3.6984,-3.8,-3.7661,-3.82,-3.9508,-3.9725,-4.0148,-4.0799,-4.1522,-4.1851,-4.1916,-4.2381,-4.2743,-4.3003,-4.3356,-4.339,-4.3145,-4.19,-4.1198,-4.0784,-4.0008,-3.925,-3.8474,-3.7698,-3.674,-3.5624,-3.4614,-3.3973,-3.3315,0.0,0.0,0.0,0.0,0.0,0.0,0.0,0.0,0.0,0.0,0.0,0.0,0.0,0.0,-3.5591,-3.5933,0.0,-3.98,-4.2068,-4.3803,-4.5527,-4.7441,-4.8027,-4.8058,-4.7494,-4.8242,-4.8862,-4.8966,-5.0004,-5.0627,-5.0351,-5.1285,-5.1871,-5.1815,-5.2163,-5.2521,-5.2828,-5.2808,-5.2912,-5.3206,-5.3206,-5.3206,-5.3206,-5.3206,-5.3004,-5.2582,-5.2346,-5.1878,-5.1231,-5.0589,-5.0174,-4.9809,-4.8966,-4.8289,-4.7723,-4.6882,-4.6042,-4.5297,-4.5297,-4.5381,-4.549,0.0,0.0,0.0,0.0,0.0,0.0,0.0,0.0,0.0,0.0,0.0,-2.7042,-2.8117,-2.7345,-2.6594,0.0,0.0,0.0,0.0,-2.5923,-2.8783,-3.1272,-3.2875,-3.4712,-3.6602,-3.6687,-3.7292,-3.8508,-3.8508,-3.8923,-3.9724,-4.0546,-4.1013,-4.1138,-4.1785,-4.2109,-4.2109,-4.2445,-4.2618,-4.2789,-4.3531,-4.3394,-4.2757,-4.2192,-4.1526,-4.0853,-4.0698,-3.9767,-3.8577,-3.8422,-3.756,-3.6446,-3.5827,-3.5457,-3.4841,-3.308,-3.3104,0.0,0.0,0.0,0.0,0.0,0.0,0.0,0.0,-3.3735,-3.4236,-3.4658,-3.5951,-3.7247,-3.7875,-3.9473,-4.1601,-4.4302,-4.5492,-4.6786,-4.8769,-4.9045,-4.8936,-4.8684,-4.8845,-4.9171,-4.9479,-5.0369,-5.0935,-5.0892,-5.1889,-5.2642,-5.2839,-5.2981,-5.3107,-5.3163,-5.3015,-5.297,-5.306,-5.306,-5.3121,-5.3206,-5.3206,-5.3206,-5.3206,-5.2894,-5.26,-5.2361,-5.1546,-5.0801,-5.0089,-4.9058,-4.8742,-4.8824,-4.8033,-4.6892,-4.5671,-4.5562,-4.561,-4.5667,0.0,0.0,0.0,0.0,0.0,0.0,0.0,0.0,0.0,0.0,0.0,0.0,0.0,0.0,0.0,0.0,0.0,0.0,-2.4869,-2.781,-3.0535,-3.2833,-3.4115,-3.5305,-3.6474,-3.7123,-3.7754,-3.8508,-3.8508,-3.917,-4.0401,-4.0246,-4.0509,-4.1138,-4.1785,-4.2109,-4.2109,-4.2445,-4.2851,-4.3196,-4.3098,-4.2807,-4.2496,-4.2154,-4.1526,-4.0784,-4.0077,-3.9301,-3.8491,-3.7836,-3.7491,-3.7215,-3.6464,-3.5732,-3.5007,-3.4133,-3.3455,-3.2758,-3.1696,-3.2047,-3.2923,-3.3585,-3.4172,-3.501,0.0,-3.6825,-3.7038,-3.7895,-3.9301,-4.0405,-4.0474,-4.2854,-4.5078,-4.6182,-4.7527,-4.8786,-4.9735,-4.9873,-4.9614,-4.885,-4.9441,-4.9832,-4.9708,-5.0531,-5.1055,-5.0892,-5.1744,-5.2278,-5.2261,-5.2295,-5.2265,-5.2109,-5.2057,-5.2195,-5.2472,-5.2518,-5.2717,-5.3206,-5.3206,-5.3206,-5.317,-5.172,-5.1448,-5.2022,-5.1231,-5.0137,-4.8962,-4.8829,-4.8557,-4.8163,-4.7583,-4.7252,-4.7011,-4.6546,-4.6388,-4.6294,0.0,0.0,0.0,0.0,0.0,0.0,0.0,0.0,0.0,0.0,0.0,0.0,0.0,0.0,0.0,0.0,0.0,0.0,-2.4718,-2.7769,-3.0433,-3.2357,-3.394,-3.5153,-3.6022,-3.6628,-3.7246,-3.7923,-3.7923,-3.8616,-3.9939,-4.0013,-4.0446,-4.1138,-4.1785,-4.2109,-4.2109,-4.2445,-4.2515,-4.2337,-4.2733,-4.2311,-4.1386,-4.0854,-3.96,-3.8178,-3.837,-3.7353,0.0,0.0,-3.587,-3.5525,-3.5628,-3.5439,-3.4956,-3.3749,-3.3451,-3.3493,-3.3568,-3.3499,-3.3631,-3.4829,-3.5318,-3.5848,-3.7075,-3.7614,-3.8128,-3.9049,-4.0819,-4.2265,-4.2265,-4.3975,-4.582,-4.7062,-4.7769,-4.8596,-4.9838,-4.9235,-4.8545,-4.8217,-4.8096,-4.8488,-4.9739,-5.1003,-5.1882,-5.2286,-5.307,-5.3546,-5.3546,-5.3402,-5.3358,-5.3239,-5.3407,-5.3351,-5.3031,-5.339,-5.3412,-5.3206,-5.3206,-5.3206,-5.3188,-5.2509,-5.2123,-5.1958,-5.1151,-5.0302,-4.9466,-4.8985,-4.8814,-4.8776,-4.8568,-4.8164,-4.7664,-4.6801,-4.65,-4.6385,0.0,0.0,0.0,0.0,0.0,0.0,0.0,0.0,0.0,0.0,0.0,0.0,0.0,0.0,0.0,0.0,0.0,0.0,0.0,-2.7483,-2.99,-3.1946,-3.3592,0.0,-3.5607,-3.6381,-3.7015,-3.7507,-3.7877,-3.8554,-3.9524,-4.0126,-4.0602,-4.1138,-4.172,-4.198,-4.1964,-4.2029,-4.1786,-4.1472,-4.1981,-4.1326,-3.9998,-3.932,-3.7455,-3.5383,-3.6266,-3.5214,0.0,0.0,-3.3904,-3.3542,-3.4076,-3.4111,-3.3766,-3.2814,-3.2835,-3.3322,-3.3968,-3.4174,-3.4477,-3.5779,-3.6568,-3.7185,-3.7751,-3.8471,-3.9203,-3.9876,-4.1526,-4.2886,-4.2886,-4.4268,-4.5872,-4.72,-4.7751,-4.8407,-4.9528,-4.8545,-4.7631,-4.7441,-4.6941,-4.7338,-4.92,-5.0735,-5.2011,-5.2994,-5.377,-5.4287,-5.4494,-5.4374,-5.4214,-5.4004,-5.401,-5.3683,-5.3064,-5.3414,-5.3434,-5.2955,-5.3121,-5.3206,-5.3206,-5.3206,-5.2637,-5.1646,-5.1279,-5.0648,-4.9824,-4.9251,-4.902,-4.9048,-4.9145,-4.8671,-4.7864,-4.7017,-4.658,-4.6279,0.0,0.0,0.0,0.0,0.0,0.0,0.0,0.0,0.0,0.0,0.0,0.0,0.0,0.0,0.0,0.0,0.0,0.0,0.0,-2.7261,-2.9243,-3.2281,-3.3256,-3.4304,-3.5491,-3.6799,-3.7477,-3.7507,-3.8816,-3.9477,-3.9539,-4.0593,-4.1055,-4.1138,-4.1456,-4.1588,-4.1541,-4.0926,-4.0849,-4.1052,-4.0516,-3.9545,-3.8405,-3.7672,-3.5521,-3.2995,-3.3904,0.0,0.0,0.0,-3.1886,-3.1869,-3.1903,-3.1403,-3.0955,-3.1499,-3.1517,-3.1457,-3.1737,-3.3311,-3.5103,-3.6069,-3.7956,-3.9595,-3.9629,-4.0233,-4.0819,-4.0836,-4.1474,-4.2026,-4.2026,-4.3889,-4.5699,-4.651,-4.7838,-4.8803,-4.8855,-4.82,-4.7441,-4.6734,-4.6613,-4.6924,-4.77,-4.9166,-5.0683,-5.2149,-5.2994,-5.3753,-5.4477,-5.4477,-5.4132,-5.3425,-5.2693,-5.2178,-5.1944,-5.1756,-5.1933,-5.2408,-5.2955,-5.3206,-5.3206,-5.3206,-5.2344,-5.0875,-5.1628,-5.1059,-4.9612,-4.9593,-4.9079,-4.8364,-4.8694,-4.833,-4.7611,-4.7372,-4.6771,-4.603,0.0,0.0,0.0,0.0,0.0,0.0,0.0,0.0,0.0,0.0,0.0,0.0,0.0,0.0,0.0,0.0,0.0,0.0,0.0,-2.6287,-2.8144,-3.0075,-3.1885,-3.3227,-3.4091,-3.546,-3.6153,-3.6153,-3.7076,-3.7738,-3.8185,-3.8546,-3.8951,-3.9385,-3.9698,-3.9893,-3.9877,-3.9897,-3.9723,-3.9367,-3.893,-3.7843,-3.6373,-3.457,-3.2574,-3.0644,0.0,0.0,0.0,0.0,-3.0193,-3.0368,-3.0779,-3.0779,-3.0589,-3.0663,-3.1393,-3.2422,-3.3505,-3.5145,-3.6818,-3.8188,-3.9129,-3.9836,-4.0353,-4.0698,-4.0733,-4.0198,-4.0208,-4.0147,-3.965,-4.1023,-4.2636,-4.3889,-4.5903,-4.77,-4.8683,-4.8183,-4.7441,-4.67,-4.6148,-4.5924,-4.6165,-4.8027,-4.9855,-5.1373,-5.2183,-5.2959,-5.3736,-5.4236,-5.4167,-5.3425,-5.3488,-5.2997,-5.1888,-5.2253,-5.2219,-5.1866,-5.2408,-5.2868,-5.3206,-5.3206,-5.2913,-5.2362,-5.1555,-5.0894,-5.0306,-4.9205,-4.8563,-4.8251,-4.785,-4.7168,-4.641,-4.6041,-4.5402,-4.4768,0.0,0.0,0.0,0.0,0.0,0.0,0.0,0.0,0.0,0.0,0.0,0.0,0.0,0.0,0.0,0.0,0.0,0.0,0.0,0.0,-2.6409,-2.7835,-2.9584,-3.0813,-3.1369,-3.2458,-3.3213,-3.3648,-3.4378,-3.511,-3.5984,-3.6307,-3.6661,-3.7076,-3.756,-3.7732,-3.7779,-3.7716,-3.7479,-3.7093,-3.6551,-3.5312,-3.3615,-3.2081,-3.0323,0.0,0.0,0.0,0.0,0.0,-2.8476,-2.8681,-2.9093,-2.9572,-2.9982,-2.989,-3.1321,-3.3259,-3.4624,-3.6311,-3.803,-3.9342,-3.9905,-4.025,-4.0767,-4.0888,-4.0664,-3.9871,-3.9129,-3.8494,-3.7986,-3.8733,-3.9833,-4.1271,-4.3374,-4.549,-4.7262,-4.6849,-4.6505,-4.6958,-4.632,-4.5958,-4.6217,-4.7562,-4.9062,-5.0597,-5.1407,-5.2287,-5.3339,-5.358,-5.3598,-5.3408,-5.321,-5.2602,-5.1625,-5.1917,-5.1999,-5.1915,-5.2408,-5.2868,-5.3206,-5.3206,-5.3206,-5.3115,-5.1499,-5.0802,-5.0674,-4.9003,-4.8306,-4.8251,-4.7737,-4.6874,-4.5865,-4.5712,-4.4952,-4.4109,0.0,0.0,0.0,0.0,0.0,0.0,0.0,0.0,0.0,0.0,0.0,0.0,0.0,0.0,0.0,0.0,0.0,0.0,0.0,0.0,0.0,-2.5689,-2.6593,-2.7239,-2.7681,-2.8242,-2.9066,-3.0149,-3.0959,-3.1905,-3.2989,-3.3836,-3.426,-3.4291,-3.4937,-3.5214,-3.5183,-3.4421,-3.4217,-3.4364,-3.3471,-3.2026,-3.033,-3.0092,0.0,0.0,0.0,0.0,0.0,-2.6505,-2.6859,-2.7144,-2.7212,-2.8152,-2.9238,-2.9484,-3.153,-3.397,-3.4974,-3.6913,-3.8831,-3.9595,-4.0336,-4.0871,-4.0836,-4.0819,-4.056,-3.9646,-3.8201,-3.7011,-3.6925,-3.7011,-3.7547,-3.8829,-4.0591,-4.2604,-4.4915,-4.4624,-4.5054,-4.7455,-4.7148,-4.6975,-4.7648,-4.7751,-4.8372,-4.9838,-5.0631,-5.1683,-5.3149,-5.258,-5.2528,-5.3201,-5.1856,-5.1097,-5.1045,-5.0858,-5.1262,-5.2315,-5.2868,-5.3121,-5.3164,-5.3164,-5.3188,-5.3059,-5.1481,-5.0784,-5.0618,-4.8967,-4.8306,-4.8306,-4.8251,-4.7278,-4.592,-4.6215,-4.5329,-4.4048,0.0,0.0,0.0,0.0,0.0,0.0,0.0,0.0,0.0,0.0,0.0,0.0,0.0,0.0,0.0,0.0,0.0,0.0,0.0,0.0,0.0,0.0,0.0,0.0,0.0,0.0,0.0,0.0,0.0,-2.9837,-3.0293,-3.0447,-3.0719,-3.108,-3.0925,-3.1071,-3.1338,-3.1617,-3.1521,-3.1136,0.0,-2.9816,-2.8259,0.0,0.0,0.0,0.0,0.0,-2.5832,-2.6139,-2.7366,-2.8921,-3.0105,-3.0685,-3.1124,-3.2308,-3.4024,-3.5848,-3.7274,-3.8917,-4.0353,-4.0526,-4.0733,-4.0716,-4.0129,-4.0008,-3.9256,-3.6663,-3.5642,-3.472,-3.2832,-3.4464,-3.6565,-3.8031,-4.1302,-4.4458,-4.6711,-4.7331,-4.7761,-4.8459,-4.8372,-4.8114,-4.7751,-4.8217,-4.87,-4.9097,-4.9855,-5.0459,-5.0856,-5.1718,-5.1804,-5.0907,-5.1028,-5.0856,-5.0304,-5.0253,-5.0564,-5.121,-5.175,-5.2221,-5.2608,-5.3017,-5.2876,-5.2252,-5.1242,-5.0453,-4.9811,-4.8746,-4.8306,-4.8251,-4.7645,-4.6801,-4.5828,-4.5329,-4.4499,-4.3664,0.0,0.0,0.0,0.0,0.0,0.0,0.0,0.0,0.0,0.0,0.0,0.0,0.0,0.0,0.0,0.0,0.0,0.0,0.0,0.0,0.0,0.0,0.0,0.0,0.0,0.0,0.0,0.0,0.0,0.0,0.0,-2.7558,-2.7661,-2.7814,-2.8047,-2.8299,-2.8499,0.0,0.0,0.0,0.0,0.0,0.0,0.0,0.0,0.0,0.0,0.0,-2.6825,-2.7755,-2.9046,-3.0478,-3.1751,-3.2518,-3.3231,-3.4411,-3.5934,-3.748,-3.8603,-3.9881,-4.0888,-4.084,-4.0565,-4.0164,-3.9267,-3.8883,-3.7806,-3.4899,-3.3787,-3.2866,-3.1156,-3.2631,-3.458,-3.6084,-3.931,-4.2687,-4.5625,-4.6691,-4.7726,-4.9183,-4.9338,-4.9166,-4.8769,-4.9097,-4.9338,-4.9338,-4.9752,-5.0149,-5.0476,-5.0976,-5.1011,-5.0511,-5.058,-5.0424,-5.0011,-5.0263,-5.0509,-5.082,-5.1365,-5.1866,-5.2408,-5.2353,-5.2212,-5.194,0.0,-5.0013,-4.9517,-4.8655,-4.8306,-4.8233,-4.7425,-4.6617,-4.5792,-4.5002,-4.4195,-4.3566,0.0,0.0,0.0,0.0,0.0,0.0,0.0,0.0,0.0,0.0,0.0,0.0,0.0,0.0,0.0,0.0,0.0,0.0,0.0,0.0,0.0,0.0,0.0,0.0,0.0,0.0,0.0,0.0,0.0,0.0,0.0,0.0,0.0,0.0,0.0,0.0,0.0,0.0,0.0,0.0,0.0,0.0,0.0,0.0,0.0,0.0,0.0,0.0,-2.8265,-3.0096,-3.1234,-3.2081,-3.2912,-3.4165,-3.5472,-3.6154,-3.7404,-3.8757,-3.9431,-4.0212,-4.084,-4.0697,-4.0143,-3.9399,-3.8362,-3.7535,-3.6216,-3.3549,-3.2269,-3.1383,-3.0575,-3.1308,-3.2605,-3.4259,-3.6712,-3.9734,-4.3579,-4.4778,-4.6447,-4.9453,-4.9942,-5.0011,-5.0011,-5.0011,-5.0011,-5.0011,-4.9907,-5.0131,-5.0769,-5.02,-5.0183,-5.0942,-5.0338,-5.0011,-5.0011,-5.0453,-5.0712,-5.0712,-5.1314,-5.1848,-5.2278,-5.162,-5.1486,-5.1756,-5.0233,-4.9517,-4.9352,-4.8618,-4.8306,-4.8233,-4.7535,-4.6709,-4.5865,-4.5131,-4.4322,-4.36,0.0,0.0,0.0,0.0,0.0,0.0,0.0,0.0,0.0,0.0,-2.521,0.0,0.0,0.0,0.0,0.0,0.0,0.0,0.0,0.0,0.0,0.0,0.0,0.0,0.0,0.0,0.0,0.0,0.0,0.0,0.0,0.0,0.0,0.0,0.0,0.0,0.0,0.0,0.0,0.0,0.0,0.0,0.0,0.0,0.0,0.0,0.0,-2.7028,0.0,0.0,-3.2614,-3.4465,-3.5335,-3.6518,-3.766,-3.7881,-3.858,-3.9388,-4.0124,-4.0431,-4.0583,-4.0534,-3.997,-3.9063,-3.7541,-3.6178,-3.4329,-3.1043,-3.0566,-3.0237,-2.8682,-3.058,-3.3188,-3.5685,-3.7733,-4.0419,-4.4578,-4.5853,-4.7007,-4.8821,-4.9614,-5.0011,-5.0011,-5.0011,-5.0011,-5.0011,-4.939,-4.9079,-4.92,-4.9097,-4.939,-5.0183,-5.008,-5.0011,-5.0011,-5.0109,-5.0166,-5.0149,-5.1105,-5.1669,-5.1732,-5.1817,-5.1545,-5.0967,-4.9994,0.0,-4.8508,-4.8361,-4.8306,-4.8306,-4.8159,-4.7242,-4.6064,-4.59,-4.4976,-4.3771,0.0,0.0,0.0,0.0,0.0,0.0,0.0,0.0,0.0,0.0,-2.5616,-2.5376,0.0,0.0,0.0,0.0,0.0,0.0,0.0,0.0,0.0,0.0,0.0,0.0,0.0,0.0,-2.1185,-2.1525,0.0,0.0,0.0,-2.1704,-2.1949,0.0,0.0,0.0,0.0,0.0,0.0,0.0,0.0,0.0,0.0,0.0,0.0,0.0,0.0,0.0,-2.8584,0.0,-3.1884,-3.4471,-3.5793,-3.7148,-3.8291,-3.8388,-3.8871,-3.9546,-4.0231,-4.0436,-4.0419,-4.0037,-3.9355,-3.8227,-3.6031,-3.4605,-3.2873,-2.984,-2.9479,-2.9383,-2.844,-3.0103,-3.2216,-3.408,-3.646,-3.931,-4.2757,-4.4818,-4.67,-4.8596,-4.9528,-5.0011,-5.0011,-5.0011,-5.0011,-5.0011,-4.9269,-4.8993,-4.9407,-4.9441,-4.9614,-4.9993,-5.0011,-5.0011,-5.0011,-5.0011,-4.9804,-4.939,-5.0188,-5.048,-5.0334,-5.0289,-5.025,-5.0123,-4.9279,-4.8691,-4.8306,-4.8363,-4.8401,-4.8327,-4.75,-4.6781,-4.6043,-4.5213,-4.4454,-4.3804,0.0,0.0,0.0,0.0,0.0,0.0,0.0,-2.4998,-2.555,-2.555,-2.5743,-2.5474,-2.4351,-2.4512,-2.4502,0.0,0.0,0.0,0.0,0.0,0.0,0.0,0.0,0.0,0.0,0.0,0.0,-2.2285,-2.1584,0.0,0.0,0.0,0.0,0.0,-2.2334,-2.2534,0.0,0.0,0.0,0.0,0.0,-2.345,0.0,0.0,0.0,0.0,0.0,-2.7193,-2.8418,-2.87,-3.0576,-3.3069,-3.4622,-3.6407,-3.7882,-3.7852,-3.8505,-3.9336,-3.9935,-4.0121,-4.0104,-3.9662,-3.8756,-3.732,-3.4857,-3.3297,-3.166,-2.9119,-2.8579,-2.8573,-2.8455,-2.9483,-3.0803,-3.2138,-3.4442,-3.714,-4.0407,-4.3151,-4.5662,-4.8023,-4.9338,-5.0011,-5.0011,-5.0011,-5.0011,-5.0011,-4.9424,-4.9269,-4.9735,-4.9907,-5.0011,-5.0011,-5.0011,-5.0011,-5.0011,-5.0011,-4.9614,-4.8821,-4.9323,-4.9447,-4.9174,-4.8892,-4.9058,-4.9536,-4.8673,-4.8306,-4.8306,-4.8457,-4.8513,-4.8365,-4.7,-4.6352,-4.6055,-4.4613,-4.3985,-4.3851,0.0,0.0,0.0,0.0,0.0,0.0,0.0,-2.5412,-2.5674,-2.5674,-2.5784,-2.5797,-2.5576,-2.5549,-2.5453,0.0,0.0,0.0,0.0,0.0,0.0,0.0,0.0,0.0,0.0,0.0,0.0,-2.194,-2.2052,0.0,0.0,0.0,0.0,0.0,0.0,-2.2446,-2.3369,-2.2705,0.0,0.0,0.0,0.0,0.0,0.0,0.0,0.0,0.0,-2.749,-2.8073,-2.8717,-2.9521,-3.0354,-3.1079,-3.3746,-3.6501,-3.606,-3.7272,-3.8774,-3.9182,-3.9312,-3.9418,-3.9918,-3.8573,-3.6638,-3.4955,-3.2919,-3.0761,-2.8376,-2.7779,-2.7781,-2.7931,-2.8311,-2.9406,-3.1843,-3.2201,-3.3888,-3.8826,-4.1375,-4.3765,-4.6473,-4.87,-5.0011,-5.0011,-5.0011,-5.0011,-5.0011,-4.9942,-4.9614,-4.8976,-4.9614,-5.0011,-5.0011,-5.0011,-5.0011,-5.0011,-5.0011,-4.9614,-4.8821,-4.936,-4.9429,-4.9174,-4.891,-4.9094,-4.9536,-4.8673,-4.8306,0.0,-4.8457,-4.8513,-4.8421,-4.7609,-4.6903,-4.6194,-4.5323,-4.4559,-4.3974,0.0,0.0,0.0,0.0,0.0,0.0,0.0,-2.5508,-2.5674,-2.5592,-2.5743,-2.5893,-2.5839,-2.5729,-2.5564,0.0,0.0,0.0,0.0,0.0,0.0,0.0,0.0,0.0,0.0,0.0,-2.3285,-2.2977,-2.2671,0.0,0.0,0.0,0.0,0.0,0.0,-2.2969,-2.3402,-2.3592,0.0,0.0,0.0,0.0,0.0,0.0,0.0,0.0,0.0,0.0,-2.7401,-2.7705,-2.8208,-2.8719,-2.8797,-3.0441,-3.2611,-3.3894,-3.5451,-3.7053,-3.828,-3.8874,-3.9152,-3.9065,-3.7452,-3.5438,-3.3593,-3.1636,-2.9801,-2.8184,-2.7646,-2.7564,-2.7839,-2.815,-2.8745,-2.9879,-3.0792,-3.2417,-3.5525,-3.8614,-4.1698,-4.4679,-4.7124,-4.8993,-4.9907,-5.0011,-5.0011,-5.0011,-5.0011,-4.9873,-4.9545,-4.9838,-5.0011,-5.0011,-5.0011,-4.9769,-4.9304,-4.9304,-4.8683,-4.7493,-4.7998,-4.8052,-4.78,-4.7991,-4.8348,-4.8802,-4.8453,-4.8306,0.0,-4.8495,-4.8255,-4.7775,-4.7104,-4.6357,-4.5593,-4.474,-4.4252,-4.4005,0.0,0.0,0.0,0.0,0.0,0.0,-2.4915,-2.5439,-2.5743,-2.5647,-2.5798,-2.5893,-2.5893,-2.5839,-2.5674,-2.5453,0.0,0.0,0.0,0.0,0.0,0.0,0.0,0.0,0.0,0.0,-2.4037,-2.3959,-2.3406,-2.3352,0.0,0.0,-2.3117,-2.3526,0.0,0.0,0.0,0.0,0.0,0.0,0.0,0.0,0.0,0.0,0.0,0.0,0.0,0.0,0.0,0.0,0.0,-2.758,-2.7429,-2.8082,0.0,-3.1737,-3.3614,-3.5295,-3.6901,-3.7834,-3.8319,-3.8082,-3.6529,-3.4542,-3.254,-3.0834,-2.9335,-2.7996,-2.756,-2.7488,-2.7795,-2.8027,-2.8319,-2.8748,-2.9747,-3.1225,-3.3462,-3.6236,-3.9134,-4.2211,-4.4317,-4.6313,-4.8346,-4.9418,-5.0011,-5.0011,-5.0011,-5.0011,-5.0011,-5.0011,-5.0011,-5.0011,-5.0011,-4.9631,-4.8838,-4.8821,-4.8079,-4.6613,-4.6917,-4.6973,-4.6724,-4.716,-4.765,-4.8075,-4.8267,-4.8363,0.0,-4.831,-4.7958,-4.7402,-4.6743,-4.6011,-4.5231,-4.4599,-4.4228,-4.4005,0.0,0.0,0.0,0.0,0.0,0.0,0.0,-2.5446,-2.5893,-2.5893,-2.5893,-2.5893,-2.5893,-2.5893,-2.5893,-2.5893,0.0,0.0,0.0,0.0,0.0,0.0,0.0,0.0,0.0,0.0,-2.5122,-2.4502,-2.4245,-2.4231,-2.4474,-2.3736,-2.3756,-2.444,0.0,0.0,0.0,0.0,0.0,0.0,0.0,0.0,0.0,0.0,0.0,0.0,0.0,0.0,0.0,0.0,0.0,0.0,0.0,0.0,0.0,0.0,-3.1847,-3.3704,-3.5078,-3.5909,-3.6546,-3.7187,-3.6071,-3.4285,-3.2195,-3.084,-2.9565,-2.7624,-2.7284,-2.7503,-2.774,-2.779,-2.8073,-2.8951,-2.8997,-3.0114,-3.3445,-3.4559,-3.6078,-3.88,-3.9897,-4.1631,-4.4847,-4.8105,-5.0011,-5.0011,-5.0011,0.0,-5.0011,-5.0011,-5.0011,-5.0011,-5.0011,-4.9631,-4.8838,-4.8821,-4.8079,-4.6613,-4.6613,-4.6482,-4.6235,-4.6678,-4.716,-4.7632,-4.8229,-4.8513,0.0,-4.7864,-4.7601,-4.7509,-4.6795,-4.6011,-4.5287,-4.5287,-4.4729,-4.4005,0.0,0.0,0.0,0.0,0.0,0.0,0.0,-2.6289,-2.6472,-2.6472,-2.6472,-2.6472,-2.6472,-2.6297,-2.615,-2.6056,0.0,0.0,0.0,0.0,0.0,0.0,0.0,0.0,0.0,0.0,0.0,-2.4831,-2.5011,-2.5122,-2.5313,-2.4861,-2.4563,-2.4469,-2.4304,-2.396,0.0,0.0,0.0,0.0,0.0,0.0,0.0,0.0,0.0,0.0,0.0,0.0,0.0,0.0,0.0,0.0,0.0,0.0,0.0,-2.8171,-2.9766,-3.1399,-3.2651,-3.3678,-3.4316,-3.407,-3.3305,-3.2091,-3.0368,-2.9349,-2.8367,-2.7202,-2.7093,-2.7233,-2.713,-2.735,-2.7625,-2.7963,-2.8304,-2.8967,-3.0304,-3.3149,-3.6229,-3.9143,-4.3917,-4.7327,-4.8346,-4.9367,-5.0011,-5.0011,-4.951,-4.92,-4.92,-4.8717,-4.8683,-4.9183,-4.92,-4.8579,-4.732,-4.732,-4.6803,-4.5803,-4.5979,-4.6297,-4.6746,-4.708,-4.7614,-4.8271,-4.7905,-4.8071,-4.8458,-4.7233,-4.6712,-4.6638,-4.5941,-4.5157,-4.4413,-4.4413,-4.4246,-4.4005,0.0,0.0,0.0,0.0,0.0,0.0,0.0,-2.6576,-2.6683,-2.6683,-2.6683,-2.6669,-2.6616,-2.6525,-2.6418,-2.6258,0.0,0.0,0.0,0.0,0.0,0.0,0.0,0.0,0.0,0.0,-2.5118,-2.5342,-2.5425,-2.5592,-2.577,-2.5607,-2.5194,-2.4583,-2.4632,-2.4129,0.0,0.0,0.0,0.0,0.0,0.0,-2.6899,0.0,0.0,0.0,0.0,0.0,0.0,0.0,0.0,0.0,0.0,0.0,0.0,0.0,-2.818,-2.926,-3.1081,-3.2151,-3.271,-3.2527,-3.1932,-3.1038,-2.9829,-2.8733,-2.7822,-2.7268,-2.715,-2.7093,-2.6899,-2.7144,-2.7488,-2.768,-2.8158,-2.8871,-3.0068,-3.2814,-3.5793,-3.8722,-4.3936,-4.7296,-4.7296,-4.8402,-4.9148,-4.9148,-4.8683,-4.8286,-4.7993,-4.782,-4.7665,-4.7545,-4.8096,-4.782,-4.6613,-4.6613,-4.6217,-4.5423,-4.5649,-4.6133,-4.6728,-4.7194,-4.7575,-4.7849,-4.7572,-4.7587,0.0,-4.6416,-4.5912,-4.589,-4.544,-4.4766,-4.4042,-4.4376,-4.4283,-4.4005,0.0,0.0,0.0,0.0,0.0,0.0,0.0,0.0,0.0,0.0,-2.6759,-2.6736,-2.6563,-2.6712,-2.6712,0.0,0.0,0.0,0.0,0.0,0.0,0.0,0.0,0.0,0.0,-2.5342,-2.5286,-2.5839,-2.5647,-2.5647,-2.5893,-2.6056,-2.5645,-2.4753,-2.464,-2.3903,0.0,0.0,0.0,0.0,0.0,0.0,0.0,0.0,0.0,0.0,0.0,0.0,0.0,0.0,0.0,0.0,0.0,0.0,0.0,0.0,0.0,0.0,0.0,-3.1121,-3.1539,-3.2123,-3.1634,-3.0852,-3.0159,-2.8861,0.0,-2.7737,-2.7336,-2.7003,-2.7003,-2.7196,-2.7539,-2.7944,-2.8367,-2.9451,-3.1871,-3.3421,-3.5328,-3.798,-4.1169,-4.3083,-4.298,-4.5817,-4.7648,-4.7717,-4.7562,-4.72,-4.6562,-4.7079,-4.6734,-4.5303,-4.67,-4.7165,-4.6527,-4.6527,-4.6148,-4.5423,-4.5649,-4.6003,-4.6406,-4.7062,-4.7179,0.0,-4.7314,-4.7046,0.0,-4.5514,-4.5231,-4.5287,-4.5231,-4.4711,-4.4098,-4.4915,-4.4692,-4.4005,0.0,0.0,0.0,0.0,0.0,0.0,0.0,0.0,0.0,0.0,-2.7045,-2.7306,-2.7063,-2.6989,-2.6817,0.0,0.0,0.0,0.0,0.0,0.0,0.0,0.0,0.0,0.0,-2.5118,-2.5061,-2.523,-2.5633,-2.5853,-2.5893,-2.6394,-2.624,-2.5524,-2.5524,0.0,0.0,0.0,0.0,0.0,0.0,0.0,0.0,0.0,0.0,0.0,-2.6525,-2.6578,0.0,0.0,0.0,0.0,0.0,0.0,0.0,0.0,-2.7233,-2.7141,-2.8651,0.0,-2.9444,-2.9534,-3.0134,-3.0455,0.0,-2.882,-2.8373,-2.8002,-2.76,-2.7196,-2.6884,-2.7144,-2.735,-2.713,-2.7423,-2.8288,-3.0031,-3.508,-3.9222,-4.0741,-4.4268,-4.6057,-4.4765,-4.5971,-4.7096,-4.7683,-4.6079,-4.5268,-4.5682,-4.4768,-4.4078,-4.3716,-4.4613,-4.5285,-4.5699,-4.5699,-4.5613,-4.5423,-4.5649,-4.6231,-4.7017,-4.7385,-4.7521,-4.742,-4.6965,0.0,-4.6331,-4.4915,-4.4692,-4.5231,-4.4562,-4.4191,-4.4023,-4.4228,-4.4172,-4.4005,0.0,0.0,0.0,0.0,0.0,0.0,0.0,0.0,0.0,0.0,0.0,0.0,0.0,0.0,0.0,0.0,0.0,0.0,0.0,0.0,0.0,0.0,0.0,0.0,0.0,-2.4925,-2.4981,-2.4984,-2.559,-2.5893,-2.5893,-2.6379,-2.6141,-2.5392,-2.5221,0.0,0.0,0.0,0.0,0.0,-2.616,0.0,0.0,0.0,0.0,0.0,-2.6457,-2.651,0.0,-2.7118,-2.7679,-2.8071,0.0,0.0,0.0,0.0,-2.7335,-2.7225,-2.8211,-2.8611,-2.8753,-2.9029,-2.9697,-3.0134,-2.9461,-2.8861,-2.8349,-2.8013,-2.7691,-2.7335,-2.6884,-2.7484,-2.7884,-2.7466,-2.8137,-2.9514,-3.1809,-3.5883,-3.9478,-4.1801,-4.3972,-4.5277,-4.5318,-4.544,-4.5699,-4.6113,-4.4665,-4.3802,-4.3837,-4.3423,-4.3009,-4.263,-4.3421,-4.3975,-4.4389,-4.4734,-4.4734,-4.4389,-4.4759,-4.5346,-4.6097,-4.6486,-4.6653,-4.6568,-4.6141,0.0,-4.5287,-4.4376,-4.4283,-4.4655,-4.4191,-4.4005,-4.4005,-4.4005,-4.4005,-4.4005,0.0,0.0,0.0,0.0,0.0,0.0,0.0,0.0,0.0,0.0,0.0,0.0,0.0,0.0,0.0,0.0,0.0,0.0,0.0,0.0,0.0,0.0,0.0,-2.5108,-2.4761,-2.4914,-2.5039,-2.5068,-2.56,-2.5895,-2.5979,-2.6179,-2.5891,-2.5156,-2.4839,0.0,0.0,0.0,0.0,0.0,-2.615,0.0,0.0,0.0,0.0,0.0,0.0,0.0,0.0,-2.6828,-2.7636,-2.8347,-2.7273,0.0,0.0,0.0,0.0,0.0,-2.8316,-2.8651,-2.8882,-2.9464,-2.9871,-3.006,-3.0045,-2.916,-2.8287,-2.8218,-2.7839,-2.7452,-2.7158,-2.7906,-2.8539,-2.8311,-2.9591,-3.1672,-3.4679,-3.64,-3.8466,-4.1589,-4.2292,-4.3115,-4.4681,-4.4302,-4.3975,-4.4096,-4.337,-4.2627,-4.2009,-4.2509,-4.2509,-4.1836,-4.2578,-4.299,-4.2869,-4.3682,-4.3802,-4.3232,-4.362,-4.42,-4.4803,-4.5298,-4.5461,-4.5287,0.0,0.0,-4.4005,-4.4005,-4.4005,-4.4005,-4.4005,-4.4005,-4.4005,-4.4005,-4.4005,-4.4005,0.0,0.0,0.0,0.0,0.0,0.0,0.0,0.0,0.0,0.0,0.0,0.0,0.0,0.0,0.0,0.0,0.0,0.0,0.0,0.0,0.0,0.0,0.0,-2.5536,-2.5356,-2.5133,-2.5147,-2.5412,-2.5508,-2.5785,-2.6256,-2.6269,-2.6361,-2.6515,-2.628,-2.6112,-2.604,-2.6044,-2.5915,-2.5807,-2.619,0.0,0.0,0.0,0.0,0.0,0.0,0.0,0.0,-2.7281,-2.7708,-2.7839,-2.765,0.0,0.0,0.0,0.0,0.0,-2.8456,-2.8904,-2.9148,-2.9522,-3.0324,-3.1028,-3.0925,-2.9894,-2.906,-2.9355,-2.836,-2.7667,-2.8374,-2.8002,-2.7958,-2.902,-3.0994,-3.3073,-3.4928,-3.7568,-3.9534,-3.9998,-4.1818,-4.2892,-4.2412,-4.2356,-4.263,-4.3335,-4.2026,-4.1457,-4.1957,-4.1509,-4.1181,-4.1043,-4.1767,-4.1871,-4.1233,-4.2679,-4.3335,-4.3214,-4.3426,-4.4001,-4.4803,-4.5102,-4.5278,-4.5287,0.0,-4.4804,-4.4005,-4.4005,-4.4005,-4.4005,-4.4005,-4.4005,-4.4005,-4.4005,-4.4005,-4.4005,0.0,0.0,0.0,0.0,0.0,0.0,0.0,0.0,0.0,0.0,0.0,0.0,0.0,0.0,0.0,0.0,0.0,0.0,0.0,0.0,0.0,0.0,-2.5883,-2.5646,-2.4888,-2.4954,-2.5024,-2.4983,-2.548,-2.5827,-2.5966,-2.5786,-2.5819,-2.6064,-2.6062,-2.6073,-2.6049,-2.6222,-2.6272,-2.6111,0.0,0.0,0.0,0.0,0.0,0.0,0.0,0.0,0.0,0.0,-2.7447,-2.7665,-2.7477,0.0,0.0,0.0,0.0,0.0,-2.8188,-2.8554,-2.8853,-2.9474,-3.0577,-3.142,-3.1019,-3.0522,-3.0093,-2.9917,-2.9085,-2.8565,-2.9214,-2.9161,-2.9666,-3.1534,-3.2894,-3.4218,-3.5553,-3.6967,-3.836,-3.9681,-4.0849,-4.1799,-4.2479,-4.2233,-4.213,-4.2492,-4.1509,-4.1026,-4.1371,-4.106,-4.0888,-4.0888,-4.1216,-4.1311,-4.1041,-4.1752,-4.2098,-4.2146,-4.2457,-4.303,-4.3722,-4.401,-4.4289,-4.4599,0.0,-4.4376,-4.4005,-4.4005,-4.4005,-4.4005,-4.4005,-4.4005,-4.4005,-4.4005,-4.4005,-4.4005,0.0,0.0,0.0,0.0,0.0,0.0,0.0,0.0,0.0,0.0,0.0,0.0,0.0,0.0,0.0,0.0,0.0,0.0,0.0,0.0,-2.661,-2.5633,-2.6047,-2.5754,-2.4627,-2.4955,-2.5011,-2.483,-2.5451,-2.5798,-2.5729,-2.5647,-2.5617,-2.5759,-2.5844,-2.5841,-2.5862,-2.627,-2.6365,-2.634,0.0,0.0,0.0,0.0,0.0,0.0,0.0,0.0,0.0,0.0,0.0,0.0,0.0,0.0,0.0,-2.7739,-2.7488,-2.7452,-2.8106,-2.8535,-2.8959,-2.9811,0.0,-3.1272,-3.1298,-3.1112,-3.0934,-3.0815,-3.0114,-2.9703,-3.019,-3.0683,-3.1579,-3.338,-3.4457,-3.5414,-3.6464,-3.6857,-3.7843,-4.0003,-4.0289,-4.0981,-4.2768,-4.2199,-4.1733,-4.1733,-4.1198,-4.0888,-4.0888,-4.0888,-4.0888,-4.0888,-4.0888,-4.1012,-4.1209,-4.1255,-4.13,-4.13,-4.1701,-4.2216,-4.281,-4.3069,-4.3495,-4.4005,-4.4005,-4.4005,-4.4005,-4.4005,-4.4005,-4.4005,-4.4005,-4.4005,-4.4005,-4.4005,-4.4005,-4.4005,0.0,0.0,0.0,0.0,0.0,0.0,0.0,0.0,0.0,0.0,0.0,0.0,0.0,0.0,0.0,0.0,0.0,0.0,0.0,0.0,-2.6887,-2.5921,-2.6231,-2.6088,-2.5439,-2.5481,-2.5481,-2.5439,-2.5481,-2.5647,-2.5907,-2.6414,-2.6704,-2.6707,-2.651,-2.6428,-2.6453,-2.6351,-2.6286,-2.6326,-2.6472,0.0,0.0,0.0,0.0,0.0,0.0,0.0,0.0,0.0,0.0,0.0,0.0,0.0,-2.7461,-2.7416,-2.7488,-2.781,-2.8834,-2.9489,-3.006,-3.0756,-3.0541,-3.0576,-3.2279,-3.1792,-3.1384,-3.287,-3.185,-3.0897,-3.1517,-3.222,-3.2756,-3.2951,-3.5007,-3.695,-3.7858,-3.8884,-3.9849,-4.0744,-4.0844,-4.1198,-4.1992,-4.1388,-4.0957,-4.0957,-4.0905,-4.0888,-4.0888,-4.0888,-4.0888,-4.0888,-4.0888,-4.1012,-4.1209,-4.1453,-4.156,-4.156,-4.1805,-4.2216,-4.281,-4.3069,-4.3495,-4.4005,-4.4005,-4.4005,-4.4005,-4.4005,-4.4005,-4.4005,-4.4005,-4.4005,-4.4005,-4.4005,-4.4005,-4.4005,0.0,0.0,0.0,0.0,0.0,0.0,0.0,0.0,0.0,0.0,0.0,0.0,0.0,0.0,0.0,0.0,0.0,0.0,0.0,0.0,-2.6442,-2.5536,-2.5933,-2.5917,-2.5201,-2.5188,-2.5435,-2.5947,-2.6217,-2.6428,-2.6691,-2.6481,-2.6515,-2.6779,-2.6433,-2.6433,-2.6659,-2.6486,-2.6486,-2.6621,-2.6659,-2.6659,0.0,0.0,0.0,0.0,0.0,0.0,0.0,0.0,-2.6937,-2.7078,0.0,-2.7437,-2.7452,-2.7705,-2.769,-2.7771,-2.8507,-2.9042,-2.9546,-3.0232,-3.0293,0.0,0.0,-3.2388,-3.2705,-3.2782,-3.2497,-3.2135,-3.1551,-3.3614,-3.5202,-3.4324,-3.6265,-3.8231,-3.9315,-3.9833,-4.0306,-4.0827,-4.0882,-4.0991,-4.1267,-4.1043,-4.0888,-4.0888,-4.0888,-4.0888,-4.0888,-4.0888,-4.0888,-4.0888,-4.0888,-4.1012,-4.1209,-4.1453,-4.1675,-4.1805,-4.2019,-4.2374,-4.277,-4.3069,-4.3391,-4.3763,-4.3942,-4.4005,-4.4005,-4.4005,-4.4005,-4.4005,-4.4005,-4.4005,-4.4005,-4.4005,-4.4005,-4.4005,0.0,0.0,0.0,0.0,0.0,0.0,0.0,0.0,0.0,0.0,0.0,0.0,0.0,0.0,0.0,0.0,0.0,0.0,0.0,0.0,-2.6385,-2.5425,-2.5933,-2.5789,-2.5018,-2.5005,-2.5418,-2.6263,-2.6651,-2.6821,-2.6789,-2.6363,-2.6379,-2.6779,-2.6447,-2.65,-2.6779,-2.6578,-2.6645,-2.6779,-2.6712,-2.6712,0.0,0.0,0.0,0.0,0.0,0.0,0.0,0.0,-2.7093,-2.7335,0.0,-2.774,-2.774,-2.8103,-2.7989,-2.792,-2.8609,-2.9027,-2.9446,-3.0107,0.0,0.0,-3.1517,-3.2695,-3.3655,-3.3439,-3.351,-3.3341,-3.2408,-3.4589,-3.6307,-3.5659,-3.7408,-3.9172,-4.0188,-4.0404,-4.0583,-4.0888,-4.0888,-4.0888,-4.0888,-4.0888,-4.0888,-4.0888,-4.0888,-4.0888,-4.0888,-4.0888,-4.0888,-4.0888,-4.0965,-4.1088,-4.13,-4.1587,-4.1805,-4.2019,-4.2205,-4.2432,-4.2711,-4.305,-4.3339,-4.3612,-4.3892,-4.4005,-4.4005,-4.4005,-4.4005,-4.4005,-4.4005,-4.4005,-4.4005,-4.4005,-4.4005,-4.4005,0.0,0.0,0.0,0.0,0.0,0.0,0.0,0.0,0.0,0.0,0.0,0.0,0.0,0.0,0.0,0.0,0.0,0.0,0.0,-2.6911,-2.6818,-2.5757,-2.6174,-2.5988,-2.5018,-2.5005,-2.5474,-2.6408,-2.6693,-2.6497,-2.5893,-2.619,-2.6472,-2.6779,-2.6779,-2.6779,-2.6779,-2.6578,-2.6645,-2.6779,-2.6592,-2.6645,-2.6794,0.0,0.0,0.0,0.0,0.0,0.0,0.0,-2.7284,-2.7488,0.0,0.0,-2.8235,-2.8525,-2.8429,-2.8437,-2.9345,-2.9746,-3.0033,-3.0651,-3.1593,0.0,-3.1731,-3.2695,-3.4058,-3.5259,-3.504,-3.4649,-3.4587,-3.514,-3.5876,-3.6591,-3.8349,-3.9782,-4.0238,-4.0631,-4.0888,-4.0888,-4.0888,-4.0888,-4.0888,-4.0888,-4.0888,-4.0888,-4.0888,-4.0888,-4.0888,-4.0888,-4.0888,-4.0888,-4.1088,-4.1318,-4.1604,-4.1805,-4.2019,-4.2287,-4.2287,-4.2432,-4.2711,-4.305,-4.3321,-4.3612,-4.3892,-4.4005,-4.4005,-4.4005,-4.4005,-4.4005,-4.4005,-4.4005,-4.4005,-4.4005,-4.4005,-4.4005,0.0,0.0,0.0,0.0,0.0,0.0,0.0,0.0,0.0,0.0,0.0,0.0,0.0,0.0,0.0,0.0,0.0,0.0,0.0,-2.6349,-2.6254,-2.5729,-2.5855,-2.5716,-2.5383,-2.5881,-2.6114,-2.6062,-2.6637,-2.6779,-2.6526,-2.6594,-2.6712,-2.6779,-2.6779,-2.6779,-2.6779,-2.6712,-2.6727,-2.6823,-2.7205,-2.7378,-2.7447,0.0,0.0,0.0,0.0,0.0,0.0,0.0,0.0,0.0,-2.825,0.0,-2.8525,-2.8748,-2.8685,-2.8684,-2.928,-2.9973,-3.0532,-3.0446,-3.1475,-3.2554,-3.266,-3.3185,-3.4115,-3.5466,-3.6012,-3.5975,-3.5269,-3.6738,-3.7768,-3.7067,-3.8419,-3.9868,-4.0631,-4.0823,-4.0888,-4.0888,-4.0888,-4.0888,-4.0888,-4.0888,-4.0888,-4.0888,-4.0888,-4.0888,-4.0888,-4.0888,-4.0888,-4.0888,-4.1088,-4.1255,-4.13,-4.1701,-4.1934,-4.2019,-4.2205,-4.2328,-4.2432,-4.2975,-4.3232,-4.3321,-4.3795,-4.4005,-4.4005,-4.4005,-4.4005,-4.4005,-4.4005,-4.4005,-4.4005,-4.4005,-4.4005,-4.4005,0.0,0.0,0.0,0.0,0.0,0.0,0.0,0.0,0.0,0.0,0.0,0.0,0.0,0.0,0.0,0.0,0.0,0.0,0.0,0.0,-2.6056,-2.5784,-2.5729,-2.5633,-2.5494,-2.5994,-2.6105,-2.5821,-2.6694,-2.696,-2.6594,-2.6741,-2.6779,-2.6779,-2.6779,-2.6779,-2.6779,-2.6712,-2.6712,-2.677,-2.7393,-2.7455,-2.7212,0.0,0.0,0.0,0.0,0.0,0.0,0.0,0.0,0.0,-2.8668,0.0,-2.9029,-2.9344,-2.9218,-2.914,-3.018,-3.0543,-3.0793,-3.1351,-3.2088,-3.2772,-3.3108,-3.4038,-3.5117,-3.6447,-3.6869,-3.6956,-3.6646,-3.7815,-3.864,-3.8151,-3.9076,-4.0104,-4.0823,-4.0888,-4.0888,-4.0888,-4.0888,-4.0888,-4.0888,-4.0888,-4.0888,-4.0888,-4.0888,-4.0888,-4.0888,-4.0888,-4.0918,-4.1012,-4.1226,-4.1391,-4.148,-4.1874,-4.2061,-4.2061,-4.2228,-4.2287,-4.2328,-4.2786,-4.3069,-4.3232,-4.3763,-4.4005,-4.4005,-4.4005,-4.4005,-4.4005,-4.4005,-4.4005,-4.4005,-4.4005,-4.4005,-4.4005,0.0,0.0,0.0,0.0,0.0,0.0,0.0,0.0,0.0,0.0,0.0,0.0,0.0,0.0,0.0,0.0,0.0,0.0,0.0,0.0,-2.6179,-2.5948,-2.5784,-2.5688,-2.5605,-2.5688,-2.5729,-2.5784,-2.6732,-2.6883,-2.6297,-2.6717,-2.6866,-2.6866,-2.6866,-2.6866,-2.6866,-2.6606,-2.651,-2.6568,-2.7364,-2.7238,-2.6522,-2.7407,0.0,0.0,0.0,0.0,0.0,0.0,0.0,0.0,-2.9152,-2.9425,-2.9643,-3.0145,-2.983,-2.9751,-3.1457,-3.129,-3.1087,-3.2827,-3.3112,-3.304,-3.3351,-3.496,-3.6642,-3.7508,-3.751,-3.7573,-3.8319,-3.8495,-3.8778,-3.9558,-4.0003,-4.0436,-4.0823,-4.0888,-4.0888,-4.0888,-4.0888,-4.0888,-4.0888,-4.0888,-4.0888,-4.0888,-4.0888,-4.0888,-4.0888,-4.0935,-4.0995,-4.1192,-4.1498,-4.1719,-4.1874,-4.2163,-4.2287,-4.2287,-4.2287,-4.2287,-4.2328,-4.2573,-4.292,-4.3268,-4.3763,-4.4005,-4.4005,-4.4005,-4.4005,-4.4005,-4.4005,-4.4005,-4.4005,-4.4005,-4.4005,-4.4005,0.0,0.0,0.0,0.0,0.0,0.0,0.0,0.0,0.0,0.0,0.0,0.0,0.0,0.0,0.0,0.0,0.0,0.0,0.0,0.0,-2.6111,-2.6056,-2.6002,-2.6056,-2.615,-2.6056,-2.6111,-2.6351,-2.6426,-2.6426,-2.6297,-2.7111,-2.7534,-2.7534,-2.7534,-2.7534,-2.749,-2.6929,-2.6645,-2.6568,-2.7472,-2.7715,-2.7613,-2.8119,-2.8233,0.0,0.0,0.0,0.0,0.0,0.0,0.0,-2.938,-2.9605,-2.9798,-3.0152,-3.0164,-3.0305,-3.1264,-3.1598,-3.1887,-3.27,-3.3633,-3.4402,-3.4457,-3.5449,-3.6329,-3.6261,-3.6598,-3.7327,-3.8652,-3.886,-3.9169,-4.002,-4.0238,-4.0436,-4.0823,-4.0888,-4.0888,-4.0888,-4.0888,-4.0888,-4.0888,-4.0888,-4.0888,-4.0888,-4.0888,-4.0888,-4.0888,-4.1041,-4.1163,-4.1209,-4.1613,-4.1849,-4.1874,-4.2163,-4.2287,0.0,-4.2287,-4.2287,-4.2328,-4.2573,-4.2995,-4.3529,-4.386,-4.4005,-4.4005,-4.4005,-4.4005,-4.4005,-4.4005,-4.4005,-4.4005,-4.4005,-4.4005,-4.4005,0.0,0.0,0.0,0.0,0.0,0.0,0.0,0.0,0.0,0.0,0.0,0.0,0.0,0.0,0.0,0.0,0.0,0.0,0.0,0.0,0.0,0.0,-2.6258,-2.6365,-2.6312,-2.6379,-2.65,-2.6645,-2.6949,-2.6949,-2.6539,-2.706,-2.7273,-2.7273,-2.7273,-2.7273,-2.7258,-2.6924,-2.6765,-2.6846,-2.77,-2.7774,-2.751,-2.8286,-2.8368,-2.809,-2.8111,0.0,0.0,0.0,0.0,0.0,0.0,0.0,-3.0065,-3.0451,-3.0449,-3.0513,-3.1732,-3.2015,-3.2253,-3.3174,-3.3949,-3.4462,-3.4462,-3.4872,-3.5295,-3.5497,-3.6329,-3.7446,-3.8783,-3.9169,-3.954,-4.0188,-4.0436,-4.0631,-4.0871,-4.0888,-4.0888,-4.0888,-4.0888,-4.0888,-4.0888,-4.0888,-4.0888,-4.0888,-4.0888,-4.0888,-4.0888,-4.1071,-4.1255,-4.1408,-4.1701,-4.1977,-4.2103,-4.2246,-4.2287,-4.2287,-4.2287,-4.2287,-4.2328,-4.2729,-4.3105,-4.3426,-4.3828,-4.4005,-4.4005,-4.4005,-4.4005,-4.4005,-4.4005,-4.4005,-4.4005,-4.4005,-4.4005,-4.4005,0.0,0.0,0.0,0.0,0.0,0.0,0.0,0.0,0.0,0.0,0.0,0.0,0.0,0.0,0.0,0.0,0.0,0.0,0.0,0.0,0.0,0.0,-2.6486,-2.6592,-2.6447,-2.6674,-2.6832,-2.6884,-2.7647,-2.7623,-2.6992,-2.7224,-2.7341,-2.7273,-2.7157,-2.7113,-2.7099,-2.6919,-2.6922,-2.7055,-2.7809,-2.7691,-2.713,-2.8136,-2.8222,-2.776,-2.8039,-2.851,-2.8997,-2.9136,0.0,0.0,0.0,0.0,-3.0346,-3.0773,-3.0626,-3.0675,-3.2174,-3.2433,-3.2545,-3.3777,-3.4101,-3.4101,-3.4101,-3.4101,-3.4311,-3.5024,-3.6275,-3.7557,-3.871,-3.9387,-3.9885,-4.0337,-4.068,-4.0888,-4.0888,-4.0888,-4.0888,-4.0888,-4.0888,-4.0836,-4.0698,-4.0802,-4.0819,-4.0681,-4.0802,-4.0888,-4.0888,-4.1071,-4.13,-4.1604,-4.1805,-4.2019,-4.2287,-4.2287,-4.2287,-4.2287,-4.2287,-4.2287,-4.2328,-4.2844,-4.316,-4.3232,-4.3763,-4.4005,-4.4005,-4.4005,-4.4005,-4.4005,-4.4005,-4.4005,-4.4005,-4.4005,-4.4005,-4.4005,0.0,0.0,0.0,0.0,0.0,0.0,0.0,0.0,0.0,0.0,0.0,0.0,0.0,0.0,0.0,0.0,0.0,0.0,-2.5948,0.0,0.0,-2.6846,-2.6553,-2.6592,-2.7078,-2.6884,-2.6937,-2.713,-2.7739,-2.791,-2.7754,-2.8949,-2.9376,-2.9218,-2.8666,-2.8434,-2.8402,-2.751,-2.7078,-2.7063,-2.7629,-2.77,-2.7575,-2.808,-2.8296,-2.8383,-2.8542,-2.8967,-2.9425,-2.9425,-2.9738,0.0,0.0,0.0,-3.0443,-3.0542,-3.0724,-3.1006,-3.16,-3.2462,-3.3355,-3.3956,-3.4101,-3.4101,-3.4101,-3.4101,-3.4311,-3.5024,-3.613,-3.7314,-3.8471,-3.948,-4.0337,-4.0728,-4.0871,-4.0888,-4.0888,-4.0888,-4.0888,-4.0888,-4.0888,-4.0612,-3.9922,-4.0474,-4.0595,-3.9905,-4.0491,-4.0888,-4.0888,-4.1071,-4.13,-4.1604,-4.1805,-4.2019,-4.2287,-4.2287,-4.2287,-4.2287,-4.2287,-4.2287,-4.2328,-4.2595,-4.292,-4.3232,-4.3763,-4.4005,-4.4005,-4.4005,-4.4005,-4.4005,-4.4005,-4.4005,-4.4005,-4.4005,-4.4005,-4.4005,0.0,0.0,0.0,0.0,0.0,0.0,0.0,0.0,0.0,0.0,0.0,0.0,0.0,0.0,0.0,-2.6233,-2.6056,-2.6103,-2.6385,-2.6551,-2.684,-2.7263,-2.7248,-2.7181,-2.7107,-2.7041,-2.7078,-2.7181,-2.8145,-2.8576,-2.859,-2.9855,-2.9959,-2.9073,-2.8811,-2.8533,-2.825,-2.7842,-2.7543,-2.7372,-2.7575,-2.8137,-2.8759,-2.8274,-2.8693,-2.9517,-2.9092,-2.9319,-2.981,-2.9886,-3.013,-3.0485,-3.0401,0.0,0.0,0.0,-3.0658,-3.1028,-3.1869,-3.2738,-3.3517,-3.3972,-3.4101,-3.4101,-3.4101,-3.4101,-3.4182,-3.4505,-3.5478,-3.6737,-3.8288,-3.9026,-3.9696,-4.0707,-4.0888,-4.0888,-4.0888,-4.0888,-4.0888,-4.0888,-4.0888,-4.075,-4.0388,-4.0267,-4.0077,-3.9715,-3.9629,-3.9784,-4.0198,-4.0446,-4.0926,-4.1587,-4.1805,-4.2019,-4.2287,-4.2287,-4.2287,-4.2287,-4.2287,-4.2287,-4.2328,-4.2573,-4.2864,-4.3196,-4.3597,-4.386,-4.4005,-4.4005,-4.4005,-4.4005,-4.4005,-4.4005,-4.4005,-4.4005,-4.4005,-4.4005,0.0,0.0,0.0,0.0,0.0,0.0,0.0,0.0,0.0,0.0,0.0,0.0,0.0,0.0,0.0,0.0,-2.6002,-2.6215,-2.6877,-2.6972,-2.7178,-2.7599,-2.7603,-2.7418,-2.7018,-2.7093,-2.7181,-2.7181,-2.8302,-2.8935,-2.9127,-3.0104,-3.009,-2.9259,-2.9099,-2.8718,-2.8199,-2.8252,-2.8018,-2.769,-2.8041,-2.8839,-2.9748,-2.9242,-2.98,-3.0764,-2.992,-2.998,-3.0402,-3.0297,-3.0443,-3.0651,-3.051,-3.0526,0.0,0.0,0.0,-3.0975,-3.2056,-3.2533,-3.2968,-3.3714,-3.3795,-3.3746,-3.402,-3.4101,-3.4101,-3.4101,-3.4774,-3.591,-3.7703,-3.8254,-3.887,-4.0105,-4.0457,-4.0578,-4.0578,-4.075,-4.0888,-4.0888,-4.0888,-4.0802,-4.0595,-4.0233,-3.9905,-3.9715,-3.937,-3.9405,-3.9974,-4.0221,-4.0769,-4.1587,-4.1805,-4.2019,-4.2287,-4.2287,-4.2287,-4.2287,-4.2287,-4.2287,-4.2287,-4.2297,-4.2499,-4.2904,-4.3403,-4.3763,-4.4005,-4.4005,-4.4005,-4.4005,-4.4005,-4.4005,-4.4005,-4.4005,-4.4005,-4.4005,0.0,0.0,0.0,0.0,0.0,0.0,0.0,0.0,0.0,0.0,0.0,0.0,-2.6451,-2.6869,-2.6873,-2.6004,-2.5893,-2.627,-2.7226,-2.6683,-2.6827,-2.7827,-2.7249,0.0,-2.7003,-2.7003,-2.7093,-2.7181,-2.7912,-2.8562,-2.9112,-2.965,-3.025,-3.0837,-3.0291,-2.9658,-2.9009,-2.8831,-2.8393,-2.7886,-2.9306,-2.9829,-2.9939,-3.1277,-3.1911,-3.2001,-3.1254,-3.1216,-3.1378,-3.0632,-3.0443,-3.0526,-3.0526,-3.0526,-3.0526,0.0,0.0,0.0,-3.1658,-3.1441,-3.1441,-3.302,-3.2973,-3.2763,-3.3843,-3.4101,-3.4101,-3.4101,-3.4133,-3.4676,-3.6233,-3.7401,-3.8286,-3.8653,-3.9301,-3.975,-3.975,-4.0405,-4.0888,-4.0888,-4.0888,-4.0578,-3.9836,-4.0405,-4.0509,-3.975,-4.0353,-4.0784,-4.0819,-4.1019,-4.1265,-4.1604,-4.1805,-4.2019,-4.2287,-4.2287,-4.2287,-4.2287,-4.2287,-4.2287,-4.2251,-4.1542,-4.1479,-4.2012,-4.3128,-4.3763,-4.4005,-4.4005,-4.4005,-4.4005,-4.4005,-4.4005,-4.4005,-4.4005,-4.4005,-4.4005,0.0,0.0,0.0,0.0,0.0,0.0,0.0,0.0,0.0,0.0,0.0,0.0,0.0,-2.6619,-2.6554,-2.6071,-2.6096,-2.646,-2.7197,-2.7204,-2.765,-2.862,-2.8334,-2.8272,-2.8542,-2.8142,-2.792,0.0,-2.8089,-2.8257,-2.8493,-2.8949,-2.9358,-2.9805,-2.9982,-2.9799,-2.946,-2.8937,-2.8393,-2.805,-2.9368,-3.0354,-3.1102,-3.1035,-3.2063,-3.3271,-3.1841,-3.1457,-3.1715,-3.1508,-3.105,-3.0609,-3.0526,-3.0526,-3.051,-3.0692,-3.0814,-3.1039,-3.1675,-3.1407,-3.1139,-3.2083,-3.2368,-3.2557,-3.3222,-3.3968,-3.4497,-3.4497,-3.4497,-3.4725,-3.5499,-3.6404,-3.7343,-3.8418,-3.8819,-3.8974,-3.8974,-3.9232,-3.9405,-3.9405,-3.9405,-3.9491,-3.9681,-3.9526,-3.9491,-3.9681,-3.9526,-3.9721,-4.0342,-4.045,-4.0884,-4.1744,-4.1831,-4.2019,-4.2287,-4.2287,-4.2037,-4.152,-4.152,-4.152,-4.152,-4.1234,-4.1579,-4.2448,-4.3086,-4.3302,-4.3225,-4.3225,-4.3522,-4.4005,-4.4005,-4.4005,-4.4005,-4.4005,-4.4005,-4.4005,0.0,0.0,0.0,0.0,0.0,0.0,0.0,0.0,0.0,0.0,0.0,0.0,0.0,0.0,-2.6648,-2.6233,-2.6351,-2.673,-2.7308,-2.7451,-2.7896,-2.8634,-2.8473,-2.8478,-2.8679,-2.8263,-2.804,0.0,0.0,0.0,0.0,-2.8364,-2.8741,-2.9112,-2.9485,-2.954,-2.9411,-2.8951,-2.8495,-2.8296,-2.9829,-3.0911,-3.1572,-3.1772,-3.2673,-3.3728,-3.2447,-3.2097,-3.2259,-3.2345,-3.1968,-3.1433,-3.1058,-3.0725,-3.0551,-3.079,-3.0871,-3.1012,-3.1457,-3.116,-3.0864,-3.1625,-3.1914,-3.2193,-3.3161,-3.396,-3.4584,-3.4833,-3.4883,-3.4961,-3.5316,-3.5828,-3.6564,-3.7644,-3.8043,-3.8215,-3.8215,-3.8422,-3.8681,-3.8939,-3.8732,-3.8888,-3.9629,-3.9026,-3.8784,-3.9284,-3.9112,0.0,-4.006,-4.0428,-4.106,-4.2002,-4.2019,-4.2103,-4.2287,-4.2019,-4.1627,-4.1092,-4.0842,-4.0699,-4.0699,-4.0449,-4.0891,-4.1899,-4.185,-4.2313,-4.3063,-4.3175,-4.3355,-4.3615,-4.3893,-4.3838,-4.3633,-4.3893,-4.4005,-4.4005,0.0,0.0,0.0,0.0,0.0,0.0,0.0,0.0,0.0,-2.7401,0.0,0.0,0.0,0.0,0.0,-2.6394,-2.6563,-2.6997,-2.765,-2.7378,-2.7409,-2.7881,-2.7602,-2.738,-2.7277,-2.738,-2.7365,0.0,0.0,0.0,0.0,0.0,-2.8449,-2.9024,-2.8907,-2.8864,-2.8864,-2.8792,-2.8667,-2.8683,-3.0926,-3.1524,-3.1389,-3.3573,-3.3943,-3.3354,-3.3201,-3.3125,-3.3108,-3.3125,-3.3091,-3.288,-3.2033,-3.1174,-3.0526,-3.0651,-3.079,-3.0912,0.0,0.0,0.0,-3.1746,-3.1561,-3.1594,-3.3594,-3.4041,-3.4275,-3.504,-3.5207,-3.5362,-3.5739,-3.5827,-3.5915,-3.6259,-3.6956,-3.7439,-3.7439,-3.8077,-3.8784,-3.9508,-3.8974,-3.8853,-3.9595,-3.9008,-3.8594,-3.8629,-3.9284,-3.9835,-4.0095,-4.1095,-4.1805,-4.2251,-4.2269,-4.2287,-4.2251,-4.1484,-4.1074,-4.102,-4.0253,-3.9878,-3.986,-3.9165,-3.9387,-4.0311,-3.959,-4.0904,-4.3594,-4.3823,-4.3522,-4.2909,-4.3708,-4.3522,-4.2927,-4.3708,-4.4005,-4.4005,0.0,0.0,0.0,0.0,0.0,0.0,0.0,0.0,0.0,0.0,0.0,0.0,-2.6951,-2.691,-2.6818,-2.663,-2.6893,-2.7151,-2.7342,-2.7424,-2.7771,-2.8405,-2.8308,-2.8495,-2.8919,-2.851,-2.8271,0.0,0.0,0.0,0.0,0.0,0.0,0.0,-2.7867,-2.8047,-2.8263,-2.8312,-2.8486,-2.8841,-3.0942,-3.1878,-3.2229,-3.3818,-3.461,-3.4857,-3.4246,-3.3664,-3.3192,-3.3832,-3.2856,-3.13,-3.1058,-3.0775,-3.0568,-3.0773,-3.0871,-3.0952,-3.1112,0.0,0.0,0.0,0.0,0.0,-3.211,-3.3063,-3.388,-3.4607,-3.5243,-3.5677,-3.5766,-3.5827,-3.5915,-3.6259,-3.649,-3.6628,-3.6628,-3.6801,-3.7008,-3.7215,-3.756,-3.8077,-3.8819,-3.8715,-3.8819,0.0,-3.9777,-4.0095,-4.0377,-4.1485,-4.1896,-4.1448,-4.1984,-4.2002,-4.1431,-4.1217,-4.0538,-3.9432,-3.9218,-3.9111,-3.9129,-3.9468,-4.0078,-4.0888,-4.1479,-4.1959,-4.2372,-4.2713,-4.318,-4.3689,-4.3912,-4.3856,-4.3689,-4.3912,-4.4005,-4.4005,0.0,0.0,0.0,0.0,0.0,0.0,0.0,0.0,0.0,0.0,0.0,0.0,-2.7196,-2.7261,-2.7185,-2.6922,-2.7218,-2.7372,-2.7372,-2.7524,-2.7754,-2.8158,-2.8173,-2.8353,-2.8742,-2.8368,-2.8173,-2.8085,0.0,0.0,0.0,0.0,0.0,0.0,0.0,0.0,-2.8155,-2.8414,-2.8685,-2.9123,-3.1193,-3.2256,-3.2734,-3.3946,-3.4678,-3.5026,-3.4577,-3.4078,-3.3782,-3.461,-3.3496,-3.175,-3.1734,-3.1233,-3.0692,-3.079,-3.0871,-3.0992,-3.1072,-3.0891,-3.0666,-3.083,0.0,0.0,-3.2431,-3.3265,-3.4052,-3.5095,-3.5677,-3.6002,-3.6002,-3.6002,-3.6088,-3.6259,-3.6301,-3.6301,-3.6301,-3.6301,-3.6422,-3.6749,-3.6904,-3.7284,-3.806,-3.8129,-3.8301,-3.8732,-3.9489,-4.0217,-4.0937,-4.1789,-4.2073,-4.1609,-4.2055,-4.1895,-4.1109,-4.077,-4.0003,-3.8808,-3.8469,-3.8487,-3.8826,-3.9254,-4.0057,-4.1127,-4.1755,-4.1915,-4.1796,-4.1993,-4.2441,-4.3076,-4.3745,-4.3782,-4.354,-4.3875,-4.4005,-4.4005,0.0,0.0,0.0,0.0,0.0,0.0,0.0,0.0,0.0,0.0,0.0,-2.7771,-2.7607,-2.7951,-2.7906,-2.7328,-2.7473,-2.7625,-2.7625,-2.7625,-2.7625,-2.7625,-2.7625,-2.7625,-2.7625,-2.7625,-2.7524,-2.7401,0.0,0.0,0.0,0.0,0.0,0.0,0.0,0.0,-2.8384,-2.8795,-2.9183,-2.9694,-3.156,-3.2524,-3.3044,-3.4034,-3.4459,-3.4526,-3.4526,-3.4492,-3.4509,-3.5138,-3.4486,-3.3371,-3.3084,-3.2135,-3.1089,-3.0824,-3.0922,-3.1116,-3.1032,-3.1157,-3.1351,-3.1462,-3.1507,0.0,-3.349,-3.3766,-3.4128,-3.5611,-3.5921,-3.5956,-3.6042,-3.6059,-3.6059,-3.6059,-3.6111,-3.6215,-3.6284,-3.6301,-3.6559,-3.7267,-3.6801,-3.6715,-3.7422,-3.7491,-3.7491,-3.7491,-3.8829,-4.0197,-4.1429,-4.1984,-4.2251,-4.2162,-4.2234,-4.1895,-4.1109,-4.0307,-3.9539,-3.8808,-3.7969,-3.7969,-3.8683,-3.8772,-3.9593,-4.0967,-4.1056,-4.1253,-4.1448,-4.1556,-4.1588,-4.1709,-4.3231,-4.3398,-4.289,-4.3708,-4.4005,-4.4005,-2.8652,0.0,0.0,0.0,0.0,0.0,0.0,0.0,0.0,-2.8186,-2.8024,-2.8137,-2.8646,-2.8293,-2.7941,-2.7705,-2.774,-2.774,-2.7625,-2.7625,-2.7625,-2.7625,-2.7625,-2.7625,-2.7625,-2.7625,-2.7524,-2.7401,0.0,0.0,0.0,0.0,0.0,0.0,0.0,0.0,0.0,-2.9196,-2.9939,-3.0969,-3.1424,-3.2193,-3.3175,-3.4132,-3.4834,-3.5374,-3.5374,-3.4941,-3.4341,-3.3903,-3.3953,-3.3943,-3.2698,-3.2463,-3.2437,-3.1288,-3.1476,-3.1935,-3.1387,-3.1368,-3.15,-3.1559,-3.1133,0.0,-3.1987,-3.1783,-3.1765,-3.3266,-3.3559,-3.3766,-3.4404,-3.4525,-3.4525,-3.4525,-3.5025,-3.5611,-3.6215,-3.6301,-3.6353,-3.6525,-3.6956,-3.7318,-3.7456,-3.7491,-3.7491,-3.7491,-3.8495,-3.9695,-4.0895,-4.1598,-4.176,-4.1359,-4.1948,-4.1895,-4.1109,-4.0307,-3.9539,-3.8808,-3.7969,-3.7666,-3.7844,-3.8504,-3.9307,-4.0182,-4.0824,-4.0891,-4.0599,-4.1304,-4.1484,-4.1372,-4.2332,-4.2754,-4.289,-4.3708,-4.4005,-4.4005,-2.8445,0.0,0.0,0.0,0.0,0.0,0.0,0.0,-2.8332,-2.8381,-2.8526,-2.8575,-2.8505,-2.8354,-2.8117,-2.772,-2.7675,-2.7675,-2.7625,-2.7625,-2.7625,-2.7625,-2.7625,-2.7625,-2.7625,-2.7625,-2.7524,-2.7401,0.0,0.0,0.0,0.0,0.0,0.0,0.0,0.0,-3.0235,-3.0082,-3.0251,-3.0676,-3.1815,-3.3061,-3.4337,-3.4868,-3.5537,-3.6146,-3.5757,-3.5341,-3.4941,-3.457,-3.4199,-3.3828,-3.3397,-3.3026,-3.2572,-3.1871,-3.1945,-3.2144,-3.146,-3.1406,-3.1517,-3.1538,-3.1359,0.0,0.0,-3.2059,-3.211,-3.3248,-3.3179,-3.3024,-3.3421,-3.3197,-3.3059,-3.3438,-3.4145,-3.4766,-3.5145,-3.5835,-3.6301,-3.6301,-3.6663,-3.6887,-3.6887,-3.7249,-3.7629,-3.8008,-3.8651,-3.9468,-4.0599,-4.1114,-4.1452,-4.1698,-4.2073,-4.1895,-4.1109,-4.0699,-4.011,-3.9343,-3.8576,-3.8594,-3.9325,-3.8968,-3.9432,-4.0503,-4.0503,-4.0134,-3.9605,-4.0018,-4.0185,-4.0349,-4.182,-4.2461,-4.2717,-4.3658,-4.3745,-4.3466,-2.8363,-2.8348,0.0,0.0,0.0,0.0,0.0,0.0,-2.8427,-2.8759,-2.9058,-2.9042,-2.8545,-2.8716,-2.8711,-2.8291,-2.8126,-2.8006,-2.7784,-2.7685,-2.7625,-2.7625,-2.732,-2.743,-2.7754,-2.7515,-2.7405,-2.7401,0.0,0.0,0.0,0.0,0.0,0.0,0.0,0.0,-3.1305,-3.0941,-3.0714,-3.0735,-3.2454,-3.3691,-3.452,-3.4834,-3.5453,-3.6079,-3.574,-3.5622,-3.5571,-3.5284,-3.4489,-3.3626,-3.3592,-3.3195,-3.2594,-3.2059,-3.2235,-3.2371,-3.1589,-3.1445,-3.1555,-3.1555,-3.1688,-3.1955,0.0,0.0,0.0,-3.33,-3.28,-3.2248,-3.2248,-3.1765,-3.1558,-3.2145,-3.2921,-3.3438,-3.3438,-3.4594,0.0,-3.5835,-3.6128,-3.6232,-3.6094,-3.6705,-3.7448,-3.8301,-3.8469,-3.9085,-4.0428,-4.0634,-4.1239,-4.2269,-4.2287,-4.1984,-4.1341,-4.1181,-4.077,-4.0128,-3.9379,-3.9593,-4.061,-3.9379,-3.9486,-4.0628,-3.9985,-3.9361,-3.8808,-3.8808,-3.8831,-3.9103,-4.122,-4.2169,-4.2539,-4.3564,-4.3547,-4.3113,-2.8201,-2.8266,0.0,0.0,0.0,0.0,0.0,0.0,-2.8902,-2.941,-2.94,-2.9561,-3.0084,-3.0036,-3.019,-3.0561,-3.0061,-2.9365,-2.8517,-2.7919,-2.7625,-2.7625,-2.6452,-2.6662,-2.8442,-2.732,-2.6942,-2.7401,0.0,0.0,0.0,0.0,0.0,0.0,-3.0409,-3.0902,-3.1046,-3.1349,-3.2085,-3.3009,-3.3263,-3.23,0.0,-3.2171,-3.3136,-3.3947,-3.5182,-3.5622,-3.5419,-3.41,-3.3981,-3.3931,-3.141,-3.2273,-3.377,-3.1206,-3.1896,-3.3236,-3.1935,-3.1671,-3.1763,-3.1763,-3.18,-3.1817,-3.1903,0.0,-3.0972,-3.1058,0.0,-2.9886,-2.9886,0.0,0.0,-2.9886,-3.0558,-3.1076,-3.1076,-3.1746,-3.2741,-3.418,-3.549,-3.6042,-3.5387,-3.5451,-3.6108,-3.7508,-3.7101,-3.7868,-4.0358,-4.0524,-4.1071,-4.2269,-4.2287,-4.2251,-4.2144,-4.1448,-4.1056,-4.0949,-4.0164,-3.9539,-3.9075,-3.8879,-3.8915,-3.9075,-3.8968,-3.8897,-3.8808,-3.8808,-3.838,-3.799,-3.9896,-4.1355,-4.2492,-4.3336,-4.374,-4.3875,-2.8668,-2.8716,-2.8811,0.0,0.0,0.0,0.0,0.0,-2.8697,-2.8765,-2.8762,-2.8771,-2.8976,-2.8941,-2.9264,-3.0111,-2.9652,-2.9087,-2.8622,-2.7949,-2.723,-2.6467,-2.6273,-2.6393,-2.6856,-2.6692,-2.6688,-2.6837,-2.7334,0.0,0.0,0.0,0.0,0.0,-3.0974,-3.1649,-3.2534,-3.2739,-3.2341,0.0,0.0,-3.1501,0.0,-3.3,-3.4421,-3.4776,-3.5402,-3.5622,-3.552,0.0,-3.4032,0.0,-3.3288,-3.2679,-3.1907,-3.1657,-3.1935,-3.2127,-3.131,-3.1726,-3.2173,-3.1386,-3.18,-3.2093,-3.0765,-3.0575,-3.0558,-3.0093,0.0,0.0,0.0,0.0,0.0,0.0,-2.9782,-3.0006,-3.0006,-3.0969,-3.1967,-3.262,0.0,0.0,-3.449,-3.5359,-3.6136,-3.6749,-3.6533,-3.7366,-3.9673,-3.9821,-4.0594,-4.2251,-4.2287,-4.2287,-4.2287,-4.1502,-4.1092,-4.1092,-3.986,-3.9325,-3.9414,-3.8504,-3.8362,-3.8772,-3.8308,-3.8094,-3.8094,-3.8094,-3.8183,-3.8362,-3.9172,-3.9932,-4.0662,-4.1635,-4.1852,-4.1761,-2.9044,-2.9075,-2.9075,-2.9075,0.0,0.0,0.0,-2.8545,-2.8309,-2.8301,-2.8235,-2.8262,-2.8362,-2.8829,-2.9463,-3.0448,-3.0087,-2.9741,-2.9415,-2.8248,-2.7305,-2.6722,-2.6288,-2.6168,-2.6422,-2.6363,-2.6366,-2.6414,-2.7103,0.0,0.0,0.0,0.0,0.0,0.0,-3.2207,-3.3342,-3.3512,-3.2781,-3.155,-3.2615,-3.215,-3.1106,-3.3931,-3.5267,-3.5622,-3.5622,-3.5622,-3.5554,-3.5148,-3.4066,0.0,-3.4083,-3.2983,-3.1484,-3.2344,-3.2468,-3.2093,-3.1227,-3.1726,-3.2204,-3.0971,-3.1317,-3.1593,-3.0162,-3.011,-3.0196,-2.9627,-2.9075,0.0,0.0,0.0,-2.8178,-2.9058,0.0,-2.9127,-2.8937,-2.9747,-3.057,-3.1055,-3.1296,0.0,0.0,-3.4691,-3.5555,-3.5721,-3.597,-3.6956,-3.8866,-3.923,-4.0176,-4.193,-4.218,-4.2287,-4.2287,-4.1502,-4.1092,-4.1074,-3.9753,-3.9289,-3.9575,-3.8433,-3.813,-3.8433,-3.7844,-3.7577,-3.7577,-3.7577,-3.7933,-3.8469,-3.8469,-3.8599,-3.8923,-4.0217,-4.0489,-4.0312,-2.8995,-2.9075,-2.9075,-2.892,-2.8858,-2.8747,-2.8621,-2.8062,-2.7876,-2.8496,-2.8381,-2.848,-2.9254,-3.0868,-3.2133,-3.2758,-3.2672,-3.221,-3.148,-2.9011,-2.8143,-2.94,-2.6393,-2.5884,-2.8442,-2.6632,-2.5894,-2.6408,-2.7447,0.0,0.0,0.0,0.0,0.0,-3.2009,-3.2508,-3.2656,-3.3185,-3.3838,-3.455,-3.4464,-3.481,-3.5267,0.0,-3.437,-3.5622,-3.5622,0.0,0.0,-3.3964,-3.3897,0.0,0.0,0.0,0.0,0.0,0.0,-3.4326,0.0,0.0,0.0,-3.0726,0.0,0.0,0.0,-3.0075,-2.9541,-2.9506,-2.9489,-2.9472,-2.9506,-2.9472,-2.9213,-2.8541,-2.8437,0.0,0.0,-2.7225,-2.7757,-2.9369,-3.0335,-3.1131,0.0,-3.2763,-3.3581,-3.4211,-3.5153,-3.6431,-3.8058,-3.9053,-4.0073,-4.1109,-4.1877,-4.2287,-4.2287,-4.1502,-4.1092,-4.1092,-4.0271,-3.9504,-3.8843,-3.879,-3.8344,-3.763,-3.7594,-3.7577,-3.7577,-3.7577,-3.7612,-3.763,-3.763,-3.7649,-3.7882,-3.9734,-4.0563,-4.0818,-2.8995,-2.8998,-2.892,-2.9029,-2.8982,-2.8905,-2.8621,-2.7968,-2.795,-2.9332,-2.9068,-2.9337,-3.0797,-3.1516,-3.2322,-3.3246,-3.293,-3.233,-3.1569,-2.9879,-2.8712,-2.8329,-2.6752,-2.609,-2.6455,-2.6118,-2.5803,-2.561,-2.7269,0.0,0.0,0.0,0.0,0.0,0.0,-3.2717,-3.3151,-3.3855,-3.3998,-3.3838,0.0,-3.3973,-3.4244,0.0,-3.5182,-3.5622,-3.5622,-3.5622,0.0,-3.503,-3.4387,-3.3812,-3.4049,-3.3288,-3.2449,-3.3005,-3.3257,0.0,0.0,0.0,-3.4066,-3.137,0.0,0.0,0.0,0.0,-3.0006,-2.8989,-2.9161,-2.9661,-3.0196,-2.9455,-2.8851,-2.9092,-2.8316,-2.7543,0.0,-2.712,-2.7276,-2.7839,-2.9127,-3.0041,-3.03,0.0,-3.3419,-3.4064,-3.4904,-3.618,-3.7983,-3.8438,-3.9363,-4.1056,-4.1359,-4.1752,-4.2287,-4.1502,-4.0842,-4.0307,-3.9557,-3.8772,-3.8005,-3.8005,-3.7844,-3.7577,-3.7577,-3.7577,-3.7577,-3.7577,-3.7577,-3.7577,-3.7577,-3.7577,-3.7684,-3.833,-3.8725,-3.8985,-2.8995,-2.8998,-2.892,-2.8998,-2.8794,-2.8528,-2.8264,-2.7643,-2.7797,-2.951,-2.9337,-2.9787,-3.1585,-3.2234,-3.2809,-3.3486,-3.3427,-3.2931,-3.1987,-3.0642,-2.9589,-2.8756,-2.7835,-2.7166,-2.6907,-2.6768,-2.6428,-2.5784,-2.7492,-2.8613,0.0,0.0,0.0,0.0,0.0,-3.2598,-3.3482,-3.3914,-3.415,-3.4184,0.0,-3.4184,0.0,0.0,-3.5301,-3.4939,0.0,-3.5622,-3.5622,-3.5622,-3.4979,-3.437,-3.5318,-3.432,-3.2949,-3.3999,-3.399,-3.3598,-3.3237,-3.4243,0.0,-3.2452,-3.3128,0.0,-3.0058,0.0,-3.08,0.0,-2.9558,-2.9989,-3.161,-3.0196,-2.9041,-2.9799,-2.8661,-2.7543,0.0,-2.707,-2.7103,-2.7103,-2.8092,-2.8987,-2.9489,-3.0975,-3.2553,-3.3995,-3.4604,-3.574,0.0,-3.8051,-3.8992,-4.0628,-4.0949,-4.1484,-4.2287,-4.1502,-4.0842,-4.0324,-3.9307,-3.854,-3.8005,-3.7719,-3.7577,-3.7577,-3.7577,-3.7577,-3.7577,-3.7577,-3.7577,-3.7577,-3.7577,-3.7577,-3.7577,-3.7577,-3.7757,-3.8018,-2.8948,-2.9028,-2.8997,-2.8779,-2.8171,-2.7657,-2.755,-2.7098,-2.7395,-2.9131,-2.9317,-2.9985,-3.1853,-3.3095,-3.3803,-3.3803,-3.4235,-3.4025,-3.281,-3.1372,-3.0653,-3.0749,-2.9394,-2.8936,-2.9564,-2.8387,-2.75,-2.6887,-2.8104,0.0,0.0,0.0,0.0,0.0,-3.1283,-3.2111,-3.3539,-3.3448,-3.4269,-3.5622,-3.5622,-3.5571,-3.552,-3.5588,-3.4735,-3.3677,-3.5081,-3.5622,-3.5622,-3.5622,-3.5622,-3.5622,-3.5622,-3.5622,-3.5622,-3.5773,-3.5773,-3.5511,-3.4083,-3.3891,-3.3997,-3.3847,0.0,0.0,0.0,0.0,-3.1903,0.0,0.0,-3.0593,-3.3455,-3.1558,-2.9782,-3.0455,-2.9317,-2.8027,-2.711,-2.7055,-2.7103,-2.7137,-2.7411,-2.8108,-2.9366,-2.9709,-3.1029,-3.3865,-3.4276,-3.5126,0.0,-3.7853,-3.883,-3.9786,-4.0628,-4.1431,-4.2216,-4.152,-4.1145,-4.1074,-3.9575,-3.8843,-3.8772,-3.7969,-3.7612,-3.7648,-3.7612,-3.7612,-3.7648,-3.7612,-3.7577,-3.7577,-3.7577,-3.7577,-3.7577,-3.7577,-3.7757,-3.7984,-2.8294,-2.8257,-2.8029,-2.7983,-2.7904,-2.7607,-2.6882,-2.7396,-2.8547,-3.0259,-3.1233,-3.2508,-3.4388,-3.485,-3.506,-3.506,-3.5145,-3.4666,-3.3381,-3.2452,-3.1779,-3.13,-3.0028,-2.9361,-2.9456,-2.8271,-2.7288,-2.6611,-2.7243,0.0,-2.7768,0.0,0.0,0.0,0.0,-3.123,-3.2652,-3.3169,-3.4269,-3.5622,-3.5622,-3.4945,-3.4126,0.0,-3.4735,-3.3677,-3.5081,-3.5622,-3.5622,-3.5622,-3.5622,-3.5622,-3.5622,-3.5622,-3.5622,-3.5622,-3.5667,-3.5582,-3.5314,-3.5708,-3.583,-3.4247,-3.4603,-3.4788,0.0,0.0,0.0,0.0,0.0,0.0,0.0,0.0,-3.0075,-2.9144,-2.808,-2.7295,-2.7105,-2.7055,-2.7278,-2.7892,-2.8625,-2.8776,-2.8034,-2.957,-3.1133,-3.232,-3.3515,-3.5009,-3.69,0.0,0.0,-3.902,-3.9825,-4.0592,-4.1395,-4.1787,-4.168,-4.1092,-4.0092,-3.9343,-3.8772,-3.7969,-3.7916,-3.8469,-3.7844,-3.7933,-3.8451,-3.7844,-3.7577,-3.7577,-3.7577,-3.7577,-3.7577,-3.7577,-3.7649,-3.7721,-2.8088,-2.818,-2.8107,-2.7735,-2.8186,-2.8295,-2.7412,-2.738,-2.814,-3.0129,-3.1242,-3.2479,-3.4008,-3.4981,-3.5504,-3.5504,-3.5504,-3.4801,-3.3276,-3.3051,-3.2392,-3.1207,-3.0672,-3.0376,-3.0306,-2.9431,-2.8506,-2.7606,-2.7907,-2.7892,-2.7593,0.0,0.0,0.0,0.0,-3.0281,-3.1472,-3.2814,-3.3897,-3.4709,-3.5368,-3.5115,0.0,-3.5301,-3.5098,-3.4515,-3.5318,-3.5622,-3.5622,-3.5622,-3.5622,-3.5622,-3.5622,-3.5622,-3.5622,-3.5622,-3.5622,-3.5622,-3.5667,-3.6095,-3.6287,-3.5463,-3.5985,-3.6174,-3.4169,-3.4674,-3.5352,0.0,-3.4231,-3.4128,0.0,0.0,-2.9679,-2.8161,-2.7396,-2.704,-2.7103,-2.7055,-2.7194,-2.7736,-2.8591,-2.8657,-2.7497,-2.9797,-3.1461,-3.1728,-3.2904,0.0,0.0,0.0,-3.6388,-3.7719,-3.9165,-4.0307,-4.1092,-4.1895,-4.2055,-4.1609,-4.0449,-3.97,-3.9254,-3.8112,-3.7844,-3.8255,-3.7791,-3.7844,-3.8237,-3.7773,-3.7577,-3.7577,-3.7577,-3.7577,-3.7577,-3.7577,-3.7577,-3.7577,-2.8205,-2.8558,-2.8561,-2.7721,-2.857,-2.9243,-2.8694,-2.7776,-2.7862,-2.984,-3.0895,-3.186,-3.2781,-3.4457,-3.5474,-3.5385,-3.537,-3.461,-3.2795,-3.3096,-3.2616,-3.09,-3.1282,-3.1482,-3.1482,-3.0889,-3.0066,-2.8966,-2.8989,-2.8493,0.0,0.0,0.0,0.0,-2.8744,-2.9386,-3.0632,-3.2568,-3.3525,-3.3812,-3.5098,-3.5622,-3.5622,-3.5622,-3.5622,-3.5622,-3.5622,-3.5622,-3.5622,-3.5622,-3.5622,-3.5622,-3.5622,-3.5622,-3.5622,-3.5622,-3.5622,-3.5622,-3.5622,-3.5684,-3.5943,-3.6667,-3.6983,-3.6972,-3.632,-3.6853,-3.7284,-3.6594,-3.5508,-3.5214,0.0,0.0,-2.9437,-2.7851,-2.76,-2.7621,-2.7686,-2.7654,-2.7654,-2.7801,-2.8453,0.0,-2.7757,-3.0145,-3.1683,-3.1433,-3.2159,0.0,0.0,0.0,-3.5806,-3.6506,-3.8699,-4.0253,-4.0949,0.0,-4.2234,-4.2109,-4.0628,-3.986,-3.9718,-3.8255,-3.7648,-3.7737,-3.763,-3.7648,-3.7737,-3.763,-3.7577,-3.7577,-3.7577,-3.7577,-3.7577,-3.7577,-3.7577,-3.7577,-2.8545,-2.8622,-2.8388,-2.7504,-2.8262,-2.9346,-3.0312,-3.1137,-3.1792,-3.2118,-3.3667,-3.479,-3.4951,-3.5295,-3.528,-3.4696,-3.4666,-3.4053,-3.2602,-3.2617,-3.2287,-3.139,-3.1465,-3.1482,-3.1482,-3.0603,-2.9695,-2.8841,-2.7977,-2.699,-2.5815,0.0,0.0,-2.648,-2.7094,-2.9087,-3.2072,-3.3025,0.0,-3.5267,-3.552,-3.5622,-3.5622,-3.5622,-3.5622,-3.5622,-3.5622,-3.5622,-3.5622,-3.5622,-3.5622,-3.5622,-3.5622,-3.5622,-3.5622,-3.5622,-3.5622,-3.5622,-3.5622,-3.5622,-3.5701,-3.5943,-3.6093,-3.6233,-3.62,-3.6853,-3.7439,-3.7301,-3.756,-3.7542,-3.6663,0.0,0.0,-2.9455,-3.0108,-3.0898,-3.0881,-3.0898,-3.0898,-3.0934,-3.1091,-3.0644,-2.9197,-3.0214,-3.0681,-2.9955,-3.0627,0.0,0.0,0.0,0.0,0.0,-3.8963,0.0,0.0,0.0,-4.1966,-4.1306,-4.036,-3.9593,-3.8968,-3.8023,-3.7951,-3.8558,-3.788,-3.7969,-3.854,-3.7862,-3.7577,-3.7577,-3.7577,-3.7577,-3.7577,-3.7577,-3.7577,-3.7577,-2.896,-2.8821,-2.8633,-2.871,-2.9681,0.0,0.0,-3.3382,-3.3817,-3.2721,-3.3426,-3.4025,-3.3963,-3.4891,-3.5235,-3.4532,-3.4472,-3.3918,-3.2602,-3.2512,-3.2213,-3.1497,-3.1482,-3.1482,-3.1482,-3.1009,-3.0136,-2.8904,-2.8349,-2.7203,-2.5462,0.0,0.0,-2.5965,-2.7468,-2.9089,0.0,0.0,0.0,-3.4539,-3.5318,-3.5622,-3.5622,-3.5622,-3.5622,-3.5622,-3.5622,-3.5622,-3.5622,-3.5622,-3.5622,-3.5622,-3.5622,-3.5622,-3.5622,-3.5622,-3.5622,-3.5622,-3.5622,-3.5622,-3.5622,-3.5667,-3.5817,-3.5905,-3.5993,-3.6997,-3.7851,-3.7472,-3.8326,-3.8577,-3.6646,-3.4766,0.0,0.0,0.0,-3.1225,-3.1711,-3.1726,-3.1726,-3.1763,-3.1364,-3.0676,-2.9506,-2.9472,-2.9506,-2.9438,-3.0248,0.0,0.0,0.0,0.0,0.0,0.0,0.0,0.0,0.0,0.0,-4.1092,-4.0289,-3.9521,-3.8772,-3.7969,-3.7809,-3.8148,-3.7755,-3.7809,-3.8148,-3.7755,-3.7577,-3.7577,-3.7577,-3.7577,-3.7577,-3.7577,-3.7577,-3.7577,-2.9403,-2.9304,-2.9412,-3.0243,-3.1455,-3.2596,-3.3532,-3.4715,-3.4936,-3.335,-3.3216,-3.3276,-3.3155,-3.4427,-3.5011,-3.4322,-3.4143,-3.3559,-3.2377,-3.2302,-3.2078,-3.1497,-3.1482,-3.1482,-3.1482,-3.1482,-3.0782,-2.9312,-2.8999,0.0,0.0,-2.6134,-2.6353,0.0,0.0,0.0,0.0,0.0,-3.3592,-3.3981,-3.5148,-3.5622,-3.5622,-3.5622,-3.5622,-3.5622,-3.5622,-3.5622,-3.5622,-3.5622,-3.5622,-3.5622,-3.5622,-3.5622,-3.5622,-3.5622,-3.5622,-3.5622,-3.5622,-3.5622,-3.5622,-3.5622,-3.5711,-3.5817,-3.5817,-3.7018,-3.8036,-3.7607,-3.8814,-3.925,-3.6973,-3.5714,0.0,0.0,0.0,0.0,-3.2662,-3.271,-3.262,-3.2541,-3.1797,-3.0986,-3.0246,-2.9489,-2.93,-2.9885,-3.023,0.0,-3.1896,0.0,0.0,0.0,0.0,-3.9155,-3.9412,0.0,-4.1747,-4.0842,-4.0217,-3.9432,-3.8522,-3.788,-3.7577,-3.7577,-3.7577,-3.7577,-3.7577,-3.7577,-3.7577,-3.7577,-3.7577,-3.7577,-3.7577,-3.7577,-3.7577,-3.7577,-2.9909,-3.0434,-3.1019,0.0,0.0,-3.3547,-3.3546,-3.4637,-3.5429,-3.525,-3.522,-3.522,-3.522,-3.4831,-3.4307,-3.3649,-3.3036,-3.2392,-3.1616,-3.1556,-3.1541,-3.1482,-3.1482,-3.1482,-3.1482,-3.1482,-3.1127,-3.0355,-2.9211,-2.7908,0.0,0.0,0.0,0.0,0.0,0.0,0.0,-3.333,-3.4184,-3.5436,-3.5554,-3.5622,-3.5622,-3.5622,-3.5622,-3.5622,-3.5622,-3.5622,-3.5622,-3.5622,-3.5622,-3.5622,-3.5622,-3.5622,-3.5622,-3.5622,-3.5622,-3.5622,-3.5622,-3.5622,-3.5622,-3.5622,-3.5711,-3.5817,-3.5817,-3.6625,-3.7556,-3.8156,-3.9652,-4.0077,-3.7801,-3.7801,-3.7473,0.0,0.0,0.0,0.0,-3.587,-3.5628,-3.4956,-3.4214,-3.3455,-3.2662,-3.1921,-3.1507,-3.1576,-3.0368,0.0,0.0,0.0,0.0,-3.5518,0.0,-3.7733,-3.8673,-4.0866,-4.1298,-4.0021,-3.995,-3.9129,-3.7702,-3.7612,-3.7577,-3.7577,-3.7577,-3.7577,-3.7577,-3.7577,-3.7577,-3.7577,-3.7577,-3.7577,-3.7577,-3.7577,-3.7577,-3.7577,0.0,0.0,0.0,0.0,0.0,0.0,0.0,-3.516,-3.5504,-3.5504,-3.5504,-3.5504,-3.5504,-3.525,-3.4666,-3.3589,-3.3245,-3.2662,-3.1541,-3.1482,-3.1482,-3.1482,-3.1482,-3.1482,-3.1482,-3.1482,-3.1091,-3.021,-2.9308,0.0,0.0,0.0,0.0,0.0,0.0,-3.2434,-3.3541,-3.4353,-3.5081,-3.5622,-3.5622,-3.5622,-3.5622,-3.5622,-3.5622,-3.5622,-3.5622,-3.5622,-3.5622,-3.5622,-3.5622,-3.5622,-3.5622,-3.5622,-3.5622,-3.5622,-3.5622,-3.5622,-3.5622,-3.5622,-3.5622,-3.5622,-3.5622,-3.5667,-3.5667,-3.6457,-3.7222,-3.7541,-3.8975,-3.9888,-3.8974,-3.8336,-3.7784,-3.7318,0.0,0.0,0.0,-3.7008,-3.6715,-3.5956,-3.4743,-3.3842,-3.3515,-3.2414,-3.1726,0.0,0.0,0.0,0.0,0.0,0.0,-3.4705,0.0,-3.8579,-3.9,-4.1079,-4.1403,-3.9914,-3.9914,-3.9093,-3.7577,-3.7577,-3.7577,-3.7577,-3.7577,-3.7577,-3.7577,-3.7577,-3.7862,-3.8272,-3.7773,-3.7898,-3.8255,-3.7773,-3.7577,-3.7577,-3.2915,0.0,-3.2823,0.0,-3.4222,-3.4538,-3.5355,-3.5504,-3.5504,-3.5504,-3.5504,-3.5504,-3.5504,-3.516,-3.4532,-3.3574,-3.314,-3.2527,-3.1541,-3.1482,-3.1482,-3.1482,-3.1482,0.0,-3.1482,-3.1482,-3.1117,-3.0446,-2.9701,0.0,0.0,0.0,0.0,0.0,-3.3039,-3.3727,-3.4159,-3.5182,-3.5622,-3.5622,-3.5622,-3.5622,-3.5622,-3.5622,-3.5622,-3.5622,-3.5622,-3.5622,-3.5622,-3.5622,-3.5622,-3.5622,-3.5622,-3.5622,-3.5622,-3.5622,-3.5622,-3.5622,-3.5622,-3.5622,-3.5622,-3.5622,-3.5622,-3.5622,-3.5622,-3.6305,-3.7121,-3.7684,-3.8963,-3.9996,-4.0043,-3.8819,-3.8043,-3.8784,0.0,0.0,0.0,-3.7491,-3.7025,-3.5742,-3.4599,-3.3888,-3.3888,-3.296,-3.2342,0.0,0.0,0.0,0.0,0.0,0.0,0.0,0.0,0.0,-3.9435,-4.128,-4.1403,-3.9914,-3.9914,-3.9093,-3.7577,-3.7577,-3.7577,-3.7577,-3.7577,-3.7577,-3.7577,-3.7577,-3.7916,-3.8415,-3.8076,-3.8148,-3.8415,-3.8076,-3.7791,-3.7577,-3.3411,-3.3607,-3.4042,-3.525,-3.5489,-3.5489,-3.5504,-3.5504,-3.5504,-3.5504,-3.5504,-3.5504,-3.5504,-3.4322,-3.3514,-3.3499,-3.2302,-3.1497,-3.1482,-3.1482,-3.1482,0.0,0.0,-3.1482,-3.1482,-3.1482,-3.1467,-3.1509,0.0,0.0,-3.0081,0.0,-3.1307,-3.3498,-3.3515,-3.4261,-3.5588,-3.5605,-3.5622,-3.5622,-3.5622,-3.5622,-3.5622,-3.5622,-3.5622,-3.5622,-3.5622,-3.5622,-3.5622,-3.5622,-3.5622,-3.5622,-3.5622,-3.5622,-3.5622,-3.5622,-3.5622,-3.5622,-3.5622,-3.5622,-3.5622,-3.5622,-3.5622,-3.5622,-3.5622,-3.6288,-3.7376,-3.9093,-4.013,-4.0728,-4.0871,-3.9612,-3.8819,-3.956,0.0,0.0,0.0,-3.7491,-3.6628,-3.4197,-3.3905,-3.3888,-3.3888,-3.3871,-3.3928,0.0,0.0,0.0,0.0,0.0,0.0,-3.6706,-3.6731,0.0,-3.9775,-4.1197,-4.1221,-3.9914,-3.9914,-3.9093,-3.7577,-3.7577,-3.7577,-3.7577,-3.7577,-3.7577,-3.7577,-3.7577,-3.7594,-3.7684,-3.8487,-3.8308,-3.7702,-3.8504,-3.8272,-3.7577,-3.4816,-3.4861,-3.5075,-3.5429,-3.5504,-3.5504,-3.5504,-3.5504,-3.5504,-3.5504,-3.5504,-3.5325,-3.4861,-3.4427,-3.3799,0.0,-3.2437,-3.2018,0.0,-3.1482,-3.1482,-3.1482,-3.1482,-3.1482,-3.1482,-3.1482,-3.1482,-3.1482,0.0,0.0,0.0,-3.1443,-3.2517,-3.4137,-3.4645,-3.5127,-3.552,-3.5594,-3.5622,-3.5622,-3.5622,-3.5622,-3.5622,-3.5622,-3.5622,-3.5622,-3.5622,-3.5622,-3.5622,-3.5622,-3.5622,-3.5622,-3.5622,-3.5622,-3.5622,-3.5622,-3.5622,-3.5622,-3.5622,-3.5622,-3.5622,-3.5622,-3.5622,-3.5622,-3.5622,-3.6305,-3.7291,-3.8308,-3.9299,-3.9971,-3.9954,-3.9635,-3.9422,-3.9664,-3.887,0.0,-3.8232,0.0,-3.7008,-3.5673,-3.5535,-3.5535,-3.5535,-3.5535,0.0,0.0,0.0,0.0,0.0,0.0,0.0,0.0,-3.7504,0.0,-4.0264,-4.0973,-4.0869,-3.9896,-3.9397,-3.8611,-3.7577,-3.7577,-3.7577,-3.7577,-3.7577,-3.7577,-3.7577,-3.7577,-3.7916,-3.8397,-3.8094,-3.8148,-3.838,-3.8076,-3.7809,-3.7577,-3.5504,-3.5504,-3.5504,-3.5504,-3.5504,-3.5504,-3.5504,-3.5504,-3.5504,-3.5504,-3.528,-3.4861,-3.4188,-3.3888,0.0,-3.2587,-3.2287,-3.1973,-3.1497,-3.1482,-3.1482,-3.1482,-3.1482,-3.1482,-3.1482,-3.1482,0.0,-3.1482,-3.1186,-3.1316,-3.1937,-3.2319,-3.3194,-3.4431,-3.4897,-3.5228,-3.5446,-3.5458,-3.5503,-3.5503,-3.5503,-3.5503,-3.5503,-3.5503,-3.5503,-3.5549,-3.5549,-3.5594,-3.5622,-3.5622,-3.5622,-3.5622,-3.5622,-3.5622,-3.5622,-3.5622,-3.5622,-3.5622,-3.5622,-3.5622,-3.5622,-3.5622,-3.5622,-3.569,-3.5994,-3.648,-3.7148,-3.7925,-3.8862,-3.9517,-3.9547,-3.9382,-3.937,-3.9646,-3.8836,-3.818,-3.818,0.0,-3.6973,-3.557,0.0,0.0,0.0,-3.5397,-3.5242,0.0,0.0,0.0,0.0,0.0,0.0,-3.6599,-3.8562,0.0,-4.0591,-4.0866,-4.0477,-3.9486,-3.8719,-3.8076,-3.7577,-3.7577,-3.7577,-3.7577,-3.7577,-3.7577,-3.7577,-3.7577,-3.7898,-3.8326,-3.813,-3.8165,-3.8326,-3.8112,-3.7844,-3.7577,-3.5504,-3.5504,-3.5489,0.0,-3.5429,0.0,-3.537,-3.537,-3.537,-3.537,-3.4801,-3.4158,-3.3499,-3.2886,-3.2497,-3.2452,0.0,0.0,0.0,-3.1482,-3.1482,-3.1482,-3.1482,-3.1482,-3.1482,-3.1482,-3.1482,-3.1482,-3.167,-3.2038,-3.2547,-3.2695,-3.3303,-3.4333,-3.4382,-3.4706,-3.5291,-3.5308,-3.5291,-3.5291,-3.5291,-3.5291,-3.5291,-3.5291,-3.54,-3.5492,-3.5492,-3.5566,-3.5622,-3.5622,-3.5622,-3.5622,-3.5622,-3.5622,-3.5622,-3.5622,-3.5622,-3.5622,-3.5622,-3.5622,-3.5622,-3.5622,-3.5622,-3.5808,-3.6535,-3.6705,-3.6954,-3.784,-3.8683,-3.9371,-3.9547,-3.9101,-3.8888,-3.9577,-3.8439,-3.7491,-3.7491,-3.7439,-3.6594,0.0,0.0,0.0,-3.406,-3.406,-3.4633,0.0,0.0,0.0,0.0,0.0,-3.7119,-3.8842,-3.9573,-4.0193,-4.0784,-4.0695,-4.0002,-3.8719,-3.7951,-3.7577,-3.7577,-3.7577,-3.7577,-3.7577,-3.7577,-3.7577,-3.7577,-3.7577,-3.7577,-3.7666,-3.8415,-3.8255,-3.7684,-3.8433,-3.8237,-3.7577,0.0,0.0,-3.534,-3.4816,-3.4726,-3.4547,-3.4038,-3.3963,-3.3963,-3.3963,-3.3829,-3.3484,-3.2826,-3.2617,-3.2317,-3.175,-3.1556,-3.1482,-3.1482,-3.1482,-3.1482,-3.1482,-3.1482,-3.1482,-3.1482,-3.1482,-3.1482,-3.1482,-3.1539,-3.1655,-3.1796,-3.2272,-3.2841,-3.3511,-3.402,-3.4593,-3.5152,-3.5245,-3.5291,-3.5291,-3.5291,-3.5291,-3.5291,-3.5291,-3.54,-3.5492,-3.5492,-3.5566,-3.5622,-3.5622,-3.5622,-3.5622,-3.5622,-3.5622,-3.5622,-3.5622,-3.5622,-3.5622,-3.5622,-3.5622,-3.5622,-3.5622,-3.5622,-3.5673,-3.5859,-3.5893,-3.6113,-3.6937,-3.787,-3.8709,-3.932,-3.9439,-3.9491,-3.9664,-3.8439,-3.7491,-3.7491,-3.6956,-3.637,0.0,-3.5707,-3.5707,-3.5707,-3.5707,-3.538,0.0,0.0,0.0,0.0,-3.5621,-3.6792,-3.7802,-3.8148,-3.9066,-4.0549,-3.9552,-3.8652,-3.7862,-3.7684,-3.7577,-3.7577,-3.7577,-3.7577,-3.7577,-3.7577,-3.7577,-3.7577,-3.7577,-3.7577,-3.7612,-3.7791,-3.7755,-3.7612,-3.7809,-3.7755,-3.7577,-3.4981,-3.4801,-3.4562,-3.4487,-3.4233,-3.3903,-3.3544,-3.3499,-3.3499,-3.3499,-3.323,-3.2901,-3.2557,-3.2243,-3.1928,-3.1511,-3.1482,-3.1482,-3.1482,-3.1482,-3.1482,-3.1482,-3.1482,-3.1482,-3.1482,-3.1482,-3.1482,-3.1482,-3.1482,-3.1482,-3.1539,-3.1853,-3.2272,-3.2841,-3.3198,-3.385,-3.4643,-3.4691,-3.4899,-3.5105,-3.5105,-3.5105,-3.5135,-3.5198,-3.5291,-3.54,-3.5492,-3.5566,-3.5622,-3.5622,-3.5622,-3.5622,-3.5622,-3.5622,-3.5622,-3.5622,-3.5622,-3.5622,-3.5622,-3.5622,-3.5622,-3.5622,-3.5622,-3.5622,-3.5622,-3.5622,-3.574,-3.6163,-3.7058,-3.7843,-3.8282,-3.85,-3.8636,-3.8681,-3.7129,-3.6163,-3.6853,-3.599,-3.5542,-3.6215,-3.6301,-3.6301,-3.6301,-3.6301,-3.5956,-3.507,-3.5456,0.0,-3.5036,-3.5852,-3.6663,-3.7456,-3.7915,-3.872,-3.9937,-3.9084,-3.8267,-3.7577,-3.7577,-3.7577,-3.7577,-3.7577,-3.7577,-3.7577,-3.7577,-3.7577,-3.7577,-3.7577,-3.7577,-3.7577,-3.7577,-3.7577,-3.7577,-3.7577,-3.7577,-3.7577,-3.4218,-3.3963,-3.3754,-3.4113,-3.3799,-3.3425,-3.323,-3.32,-3.32,-3.32,-3.2706,-3.2362,-3.2362,-3.1869,-3.1482,-3.1482,-3.1482,-3.1482,-3.1482,-3.1482,-3.1482,-3.1482,-3.1482,-3.1482,-3.1482,-3.1482,-3.1482,-3.1482,-3.1482,-3.1482,-3.1482,-3.1482,-3.1796,-3.2398,-3.2398,-3.298,-3.3984,-3.405,-3.4349,-3.4804,-3.4851,-3.4899,-3.4899,-3.5041,-3.5198,-3.5291,-3.5446,-3.5566,-3.5622,-3.5622,-3.5622,-3.5622,-3.5622,-3.5622,-3.5622,-3.5622,-3.5622,-3.5622,-3.5622,-3.5622,-3.5622,-3.5622,-3.5622,-3.5622,-3.5622,-3.5622,-3.5622,-3.5622,-3.6339,-3.7019,-3.7075,-3.7192,-3.7256,-3.718,-3.5611,-3.4783,-3.5818,0.0,-3.4887,-3.6146,-3.6301,-3.6301,-3.6301,-3.6301,-3.6301,-3.6301,-3.6301,-3.6301,-3.6301,-3.6301,-3.6611,-3.7284,-3.7922,-3.8469,-3.8971,-3.8844,-3.8397,-3.7577,-3.7577,-3.7577,-3.7577,-3.7577,-3.7577,-3.7577,-3.7577,-3.7577,-3.7577,-3.7577,-3.7577,-3.7577,-3.7577,-3.7577,-3.7577,-3.7577,-3.7577,-3.7577,-3.3619,-3.4008,-3.4008,-3.2991,-3.3185,-3.3125,-3.2003,-3.1839,-3.1839,-3.1839,-3.1691,-3.1689,-3.1689,-3.1541,-3.1482,-3.1482,-3.1482,-3.1482,-3.1482,-3.1482,-3.1482,-3.1482,-3.1482,-3.1482,-3.1482,-3.1482,-3.1482,-3.1482,-3.1482,-3.1482,-3.1482,-3.1482,-3.1796,-3.2398,-3.2398,-3.2749,-3.3355,-3.3866,-3.4151,-3.425,-3.4691,-3.4899,-3.4899,-3.5041,-3.5198,-3.5291,-3.5446,-3.5566,-3.5622,-3.5622,-3.5622,-3.5622,-3.5622,-3.5622,-3.5622,-3.5622,-3.5622,-3.5622,-3.5622,-3.5622,-3.5622,-3.5622,-3.5622,-3.5622,-3.5622,-3.5622,-3.5622,-3.5622,-3.6339,-3.7019,-3.7075,-3.7192,-3.6913,-3.5766,-3.5766,-3.5594,-3.4576,0.0,-3.6042,-3.6266,-3.6301,-3.6301,-3.6301,-3.6301,-3.6301,-3.6301,-3.6301,-3.6301,-3.6301,-3.6301,-3.6353,-3.6473,-3.6594,-3.6873,-3.7338,-3.8333,-3.8397,-3.7577,-3.7577,-3.7577,-3.7577,-3.7577,-3.7577,-3.7577,-3.7577,-3.7577,-3.7577,-3.7577,-3.7577,-3.7577,-3.7577,-3.7577,-3.7577,-3.7577,-3.7577,-3.7577,-3.2901,-3.2931,-3.2811,-3.2557,-3.2482,-3.2228,-3.1571,-3.1482,-3.1482,-3.1482,-3.1482,-3.1482,-3.1482,-3.1482,-3.1482,-3.1482,-3.1482,-3.1482,-3.1482,-3.1482,-3.1482,-3.1482,-3.1482,-3.1482,-3.1482,-3.1482,-3.1482,-3.1482,-3.1482,-3.1482,-3.1482,-3.1482,-3.164,-3.191,-3.191,-3.2216,-3.2788,-3.3087,-3.3507,-3.4101,-3.4349,-3.4643,-3.4899,-3.5152,-3.5245,-3.5337,-3.5503,-3.5594,-3.5622,-3.5622,-3.5622,-3.5622,-3.5622,-3.5622,-3.5622,-3.5622,-3.5622,-3.5622,-3.5622,-3.5622,-3.5622,-3.5622,-3.5622,-3.5622,-3.5622,-3.5622,-3.5622,-3.5622,-3.5955,-3.6299,-3.6461,-3.6505,-3.6353,-3.5862,-3.5363,0.0,0.0,-3.518,-3.5404,-3.6215,-3.6301,-3.6301,-3.6301,-3.6301,-3.6301,-3.6301,-3.6301,-3.6301,-3.6301,-3.6301,-3.6301,-3.6301,-3.695,-3.7173,-3.6987,-3.8209,-3.8397,-3.7577,-3.7577,-3.7577,-3.7577,-3.7577,-3.7577,-3.7577,-3.7577,-3.7577,-3.7577,-3.7577,-3.7577,-3.7577,-3.7577,-3.7577,-3.7577,-3.7577,-3.7577,-3.7577,-3.1931,-3.1753,-3.1678,-3.2169,-3.2003,-3.1704,-3.1497,-3.1482,-3.1482,-3.1482,-3.1482,-3.1482,-3.1482,-3.1482,-3.1482,-3.1482,-3.1482,-3.1482,-3.1482,-3.1482,-3.1482,-3.1482,-3.1317,-3.1317,-3.1482,-3.1375,-3.1317,-3.1482,-3.1482,-3.1482,-3.1482,-3.1482,-3.1482,-3.1482,-3.1482,-3.1754,-3.2176,-3.2342,-3.2926,-3.3729,-3.3815,-3.4234,-3.4739,-3.4977,-3.5135,-3.5291,-3.5503,-3.5594,-3.5594,-3.5577,-3.5622,-3.5622,-3.5622,-3.5622,-3.5622,-3.5622,-3.5622,-3.5622,-3.5622,-3.5622,-3.5622,-3.5622,-3.5622,-3.5622,-3.5622,-3.5622,-3.5622,-3.5622,-3.5622,-3.5667,-3.5888,-3.5888,-3.5812,-3.5752,0.0,0.0,0.0,-3.5111,-3.5025,-3.6163,-3.6301,-3.6301,-3.6301,-3.6301,-3.6301,-3.6301,-3.6301,-3.6301,-3.6301,-3.6301,-3.6301,-3.6301,-3.7271,-3.7567,-3.7027,-3.8013,-3.8201,-3.7577,-3.7577,-3.7577,-3.7577,-3.7577,-3.7577,-3.7577,-3.7577,-3.7577,-3.7577,-3.7577,-3.7577,-3.7577,-3.7577,-3.7577,-3.7577,-3.7577,-3.7577,-3.7577,-3.0522,-3.1093,-3.1494,-3.1588,-3.2078,-3.2243,-3.1571,-3.1482,-3.1482,-3.1482,-3.1482,-3.1482,-3.1482,-3.1482,-3.1482,-3.1482,-3.1482,-3.1482,-3.1482,-3.1482,-3.1482,-3.1482,-3.0926,-3.0881,-3.1467,-3.0911,-3.0896,-3.1482,-3.1482,-3.1482,-3.1482,-3.1482,-3.1482,-3.1482,-3.1482,-3.1524,-3.1582,-3.2176,-3.2453,-3.2547,-3.3055,-3.363,-3.4151,-3.4251,-3.461,-3.5152,-3.5383,-3.5492,-3.5537,-3.5594,-3.5622,-3.5622,-3.5622,-3.5622,-3.5622,-3.5622,-3.5622,-3.5622,-3.5622,-3.5622,-3.5622,-3.5622,-3.5622,-3.5622,-3.5622,-3.5622,-3.5622,-3.5622,-3.5622,-3.5622,-3.5773,-3.5905,-3.5574,-3.4294,0.0,0.0,-3.4438,-3.5335,-3.618,-3.6284,-3.6301,-3.6301,-3.6301,-3.6301,-3.6301,-3.6301,-3.6301,-3.6301,-3.6301,-3.6301,-3.6301,-3.6301,-3.6823,-3.704,-3.6987,-3.7463,-3.7648,-3.7577,-3.7577,-3.7577,-3.7577,-3.7577,-3.7577,-3.7577,-3.7577,-3.7577,-3.7577,-3.7577,-3.7577,-3.7577,-3.7577,-3.7577,-3.7577,-3.7577,-3.7577,-3.7577,-2.9827,-3.0074,-3.042,-3.0821,-3.1101,-3.1309,-3.1511,-3.1482,-3.1482,-3.1482,-3.1482,-3.1482,-3.1482,-3.1482,-3.1482,-3.1482,-3.1482,-3.1287,-3.0926,-3.0896,-3.0896,-3.0896,-3.0283,-3.0058,-3.0313,-3.0447,-3.0627,-3.0896,-3.133,-3.1482,-3.1482,-3.1482,-3.1482,-3.1482,-3.1482,-3.1482,-3.1539,-3.1739,-3.2079,-3.2453,-3.2641,-3.3055,-3.3578,-3.4036,-3.4333,-3.461,-3.5182,-3.54,-3.5383,-3.5429,-3.5475,-3.552,-3.552,-3.5549,-3.5622,-3.5622,-3.5622,-3.5622,-3.5622,-3.5622,-3.5622,-3.5622,-3.5622,-3.5622,-3.5622,-3.5622,-3.5622,-3.5622,-3.5622,-3.5622,-3.5773,-3.5756,-3.5657,-3.5351,0.0,-3.5942,-3.5542,-3.5956,-3.6301,-3.6301,-3.6301,-3.6301,-3.6301,-3.6301,-3.6301,-3.6301,-3.6301,-3.6301,-3.6301,-3.6301,-3.6301,-3.6301,-3.6626,-3.6869,-3.6987,-3.7297,-3.7484,-3.7577,-3.7577,-3.7577,-3.7577,-3.7577,-3.7577,-3.7577,-3.7577,-3.7577,-3.7577,-3.7577,-3.7577,-3.7577,-3.7577,-3.7577,-3.7577,-3.7577,-3.7577,-3.7577,-2.9142,-2.9205,-2.9393,-3.0072,-3.0208,-3.0329,-3.0777,-3.1029,-3.1219,-3.1219,-3.1351,-3.1482,-3.1482,-3.1482,-3.1482,-3.1482,-3.1482,-3.124,-3.0552,-3.0133,-2.9998,-3.0208,-2.9609,-2.937,-2.9579,-2.9998,-3.0313,-3.0507,-3.1195,-3.1482,-3.1482,-3.1482,-3.1482,-3.1482,-3.1482,-3.1482,-3.1482,-3.1482,-3.1754,-3.2135,-3.2135,-3.2422,-3.3002,-3.3459,-3.3716,-3.3969,-3.4706,-3.4977,-3.5071,-3.5291,-3.5429,-3.552,-3.552,-3.5549,-3.5622,-3.5622,-3.5622,-3.5622,-3.5622,-3.5622,-3.5622,-3.5622,-3.5622,-3.5622,-3.5622,-3.5622,-3.5622,-3.5622,-3.5622,-3.5622,-3.5728,-3.5684,-3.5756,-3.6036,-3.6079,-3.6105,-3.6233,-3.6301,-3.6301,-3.6301,-3.6301,-3.6301,-3.6301,-3.6301,-3.6301,-3.6301,-3.6301,-3.6301,-3.6301,-3.6301,-3.6301,-3.6301,-3.6544,-3.6806,-3.6987,-3.7182,-3.741,-3.7577,-3.7577,-3.7577,-3.7577,-3.7577,-3.7577,-3.7577,-3.7577,-3.7577,-3.7577,-3.7577,-3.7577,-3.7577,-3.7577,-3.7577,-3.7577,-3.7577,-3.7577,-3.7577,-2.8352,-2.8481,-2.8725,-2.9393,-2.9504,-2.9504,-2.9504,-3.0072,-3.0524,-3.0524,-3.1087,-3.1467,-3.1467,-3.1467,-3.1467,-3.1452,-3.1452,-3.1225,-3.0537,-2.9295,-2.8891,-2.9535,-2.8951,-2.8891,-2.9549,-2.9564,-2.9879,-3.0492,-3.118,-3.1467,-3.1467,-3.1467,-3.1467,-3.1482,-3.1482,-3.1482,-3.1482,-3.1482,-3.1482,-3.1482,-3.1482,-3.1853,-3.2398,-3.2398,-3.2749,-3.3287,-3.3969,-3.4284,-3.448,-3.5228,-3.5503,-3.5577,-3.5622,-3.5622,-3.5622,-3.5622,-3.5622,-3.5622,-3.5622,-3.5622,-3.5622,-3.5622,-3.5622,-3.5622,-3.5622,-3.5622,-3.5622,-3.5622,-3.5622,-3.5622,-3.5622,-3.5728,-3.5817,-3.5834,-3.6053,-3.6225,-3.6225,-3.6276,-3.6301,-3.6301,-3.6301,-3.6301,-3.6301,-3.6301,-3.6301,-3.6301,-3.6301,-3.6301,-3.6301,-3.6301,-3.6301,-3.6301,-3.6544,-3.6806,-3.6987,-3.7182,-3.741,-3.7577,-3.7577,-3.7577,-3.7577,-3.7577,-3.7577,-3.7577,-3.7577,-3.7577,-3.7577,-3.7577,-3.7577,-3.7577,-3.7577,-3.7577,-3.7577,-3.7577,-3.7577,-3.7577,-2.7789,-2.7776,-2.8026,-2.8661,-2.8776,-2.8967,-2.9442,-2.969,-2.9827,-2.9827,-2.995,-2.9975,-2.9574,-2.9871,-2.9929,-2.9589,-2.9911,-2.9879,-2.9205,-2.8816,-2.8472,-2.8188,-2.803,-2.7964,-2.821,-2.8652,-2.8981,-2.9175,-2.9834,-3.0387,-3.0806,-3.0806,-3.1061,-3.1482,-3.1482,-3.1482,-3.1482,-3.1482,-3.1482,-3.1482,-3.1482,-3.1582,-3.1796,-3.2231,-3.2492,-3.2695,-3.3303,-3.3495,-3.3649,-3.435,-3.4642,-3.488,-3.5424,-3.5622,-3.5622,-3.5622,-3.5622,-3.5622,-3.5622,-3.5622,-3.5622,-3.5622,-3.5622,-3.5622,-3.5622,-3.5622,-3.5622,-3.5622,-3.5622,-3.5622,-3.5622,-3.5622,-3.5881,-3.6604,-3.6334,-3.6311,-3.7016,-3.6663,-3.6301,-3.6301,-3.6301,-3.6301,-3.6301,-3.6301,-3.6301,-3.6301,-3.6301,-3.6301,-3.6301,-3.6301,-3.6301,-3.6301,-3.6402,-3.6609,-3.6987,-3.7182,-3.741,-3.7577,-3.7577,-3.7577,-3.7577,-3.7577,-3.7577,-3.7577,-3.7577,-3.7577,-3.7577,-3.7577,-3.7577,-3.7577,-3.7577,-3.7577,-3.7577,-3.7577,-3.7577,-3.7577,-2.7523,-2.7523,-2.7656,-2.8039,-2.8105,-2.8222,-2.8648,-2.8953,-2.9079,-2.9079,-2.9122,-2.904,-2.875,-2.8765,-2.8684,-2.8354,-2.8627,-2.8782,-2.8622,-2.8353,-2.8008,-2.764,-2.7625,-2.7625,-2.7625,-2.8248,-2.8607,-2.8607,-2.9265,-2.9894,-3.0507,-3.0507,-3.0866,-3.1482,-3.1482,-3.1482,-3.1482,-3.1482,-3.1482,-3.1452,-3.124,-3.1228,-3.1495,-3.1607,-3.1652,-3.1738,-3.2586,-3.2776,-3.2678,-3.3569,-3.4119,-3.4529,-3.5304,-3.5549,-3.5549,-3.5577,-3.5622,-3.5622,-3.5622,-3.5622,-3.5622,-3.5622,-3.5622,-3.5622,-3.5622,-3.5622,-3.5622,-3.5622,-3.5622,-3.5622,-3.5622,-3.5622,-3.5921,-3.6928,-3.6488,-3.6336,-3.7283,-3.6784,-3.6301,-3.6301,-3.6301,-3.6301,-3.6301,-3.6301,-3.6301,-3.6301,-3.6301,-3.6301,-3.6301,-3.6301,-3.6301,-3.6301,-3.6468,-3.6713,-3.6987,-3.7297,-3.7484,-3.7577,-3.7577,-3.7577,-3.7577,-3.7577,-3.7577,-3.7577,-3.7577,-3.7577,-3.7577,-3.7577,-3.7577,-3.7577,-3.7577,-3.7577,-3.7577,-3.7577,-3.7577,-3.7577,-2.7523,-2.7523,-2.7523,-2.7523,-2.7523,-2.7523,-2.7523,-2.8039,-2.8417,-2.8417,-2.8457,-2.8498,-2.8442,-2.7914,-2.7579,-2.7581,-2.7623,-2.7896,-2.8398,-2.7979,-2.7634,-2.7625,-2.7625,-2.7625,-2.7625,-2.8188,-2.8502,-2.8502,-2.9101,-2.9744,-3.0417,-3.0417,-3.0791,-3.1377,-3.1452,-3.1437,-3.1377,-3.1452,-3.1482,-3.1422,-3.0776,-3.0881,-3.1317,-3.0746,-3.0507,-3.0638,-3.1875,-3.1997,-3.1765,-3.2977,-3.3903,-3.4593,-3.5291,-3.5492,-3.5537,-3.5577,-3.5622,-3.5622,-3.5622,-3.5622,-3.5622,-3.5622,-3.5622,-3.5622,-3.5622,-3.5622,-3.5622,-3.5622,-3.5673,-3.5723,-3.5723,-3.5723,-3.6039,-3.7041,-3.6546,-3.6353,-3.7264,-3.6793,-3.6301,-3.6301,-3.6301,-3.6301,-3.6301,-3.6301,-3.6301,-3.6301,-3.6301,-3.6301,-3.6301,-3.6301,-3.6301,-3.6301,-3.6713,-3.6948,-3.6987,-3.7354,-3.754,-3.7577,-3.7577,-3.7577,-3.7577,-3.7577,-3.7577,-3.7577,-3.7577,-3.7577,-3.7577,-3.7577,-3.7577,-3.7577,-3.7577,-3.7577,-3.7577,-3.7577,-3.7577,-3.7577,-2.7523,-2.7523,-2.7523,-2.7523,-2.7523,-2.7523,-2.7523,-2.759,-2.7723,-2.7723,-2.7404,-2.6937,-2.6472,-2.6283,-2.6079,-2.5641,-2.6916,-2.753,-2.7141,-2.7899,-2.8128,-2.764,-2.7625,-2.7625,-2.7625,-2.7724,-2.7799,-2.7799,-2.7934,-2.8622,-2.9789,-2.9789,-3.0118,-3.0746,-3.13,-3.124,-3.0761,-3.13,-3.1482,-3.1422,-3.0776,-3.0597,-3.0717,-3.0567,-3.0507,-3.0597,-3.1399,-3.1607,-3.1697,-3.2977,-3.4235,-3.5291,-3.5446,-3.552,-3.5594,-3.5577,-3.5622,-3.5622,-3.5622,-3.5622,-3.5622,-3.5622,-3.5622,-3.5622,-3.5622,-3.5622,-3.5622,-3.5622,-3.6096,-3.6535,-3.6535,-3.6593,-3.7109,-3.8628,-3.7364,-3.6672,-3.8102,-3.7163,-3.6301,-3.6301,-3.6301,-3.6301,-3.6301,-3.6301,-3.6301,-3.6301,-3.6301,-3.6301,-3.6301,-3.6301,-3.6301,-3.6301,-3.6385,-3.6632,-3.6987,-3.7105,-3.7279,-3.7577,-3.7577,-3.7577,-3.7577,-3.7577,-3.7577,-3.7577,-3.7577,-3.7577,-3.7577,-3.7577,-3.7577,-3.7577,-3.7577,-3.7577,-3.7577,-3.7577,-3.7577,-3.7577,-2.7471,-2.7469,-2.7403,-2.7456,-2.7469,-2.7403,-2.7456,-2.7523,-2.7523,-2.7523,-2.7027,-2.6452,-2.589,-2.5593,-2.5293,-2.4862,-2.5827,-2.6368,-2.6204,-2.6866,-2.7243,-2.7167,-2.7152,-2.7306,-2.7575,-2.7625,-2.7625,-2.7625,-2.7625,-2.8098,-2.9116,-2.9116,-2.9445,-3.0088,-3.0746,-3.0851,-3.0552,-3.124,-3.1482,-3.1422,-3.0776,-3.0702,-3.0956,-3.0627,-3.0507,-3.0597,-3.1285,-3.133,-3.1257,-3.2251,-3.3219,-3.4213,-3.4925,-3.5337,-3.5549,-3.5577,-3.5622,-3.5622,-3.5622,-3.5622,-3.5537,-3.5165,-3.5351,-3.5622,-3.5622,-3.5622,-3.5723,-3.6096,-3.6502,-3.6891,-3.7246,-3.7055,-3.7386,-3.9058,-3.7524,-3.6697,-3.8298,-3.7223,-3.6301,-3.6301,-3.6301,-3.6301,-3.6301,-3.6301,-3.6301,-3.6301,-3.5973,-3.5921,-3.6284,-3.5973,-3.5939,-3.6284,-3.6444,-3.665,-3.6987,-3.7105,-3.7297,-3.7577,-3.7577,-3.7577,-3.7577,-3.7577,-3.7577,-3.7577,-3.7577,-3.7577,-3.7577,-3.7577,-3.7577,-3.7577,-3.7577,-3.7577,-3.7577,-3.7577,-3.7577,-3.7577,-2.6922,-2.6894,-2.6933,-2.7144,-2.7103,-2.7115,-2.743,-2.7391,-2.7285,-2.739,-2.6961,-2.6387,-2.5764,-2.5162,-2.4668,-2.4505,-2.4765,-2.5048,-2.5398,-2.5618,-2.596,-2.651,-2.651,-2.6826,-2.7408,-2.7458,-2.7509,-2.7625,-2.7625,-2.7919,-2.8607,-2.8607,-2.8951,-2.9609,-3.0223,-3.0507,-3.0552,-3.124,-3.1482,-3.1407,-3.0672,-3.0687,-3.112,-3.0432,-3.0178,-3.0268,-3.0956,-3.0934,-3.0797,-3.1374,-3.2084,-3.2867,-3.4154,-3.4947,-3.5367,-3.5441,-3.5431,-3.5419,-3.5419,-3.5334,-3.5098,-3.4455,-3.4962,-3.5622,-3.5622,-3.5622,-3.5842,-3.662,-3.6874,-3.7127,-3.7618,-3.7462,-3.7661,-3.8948,-3.7592,-3.684,-3.8197,-3.73,-3.6414,-3.6318,-3.6301,-3.6301,-3.6301,-3.6301,-3.6301,-3.6301,-3.5732,-3.5594,-3.6094,-3.5645,-3.5611,-3.6094,-3.6433,-3.6748,-3.6987,-3.7182,-3.7372,-3.7577,-3.7577,-3.7577,-3.7577,-3.7577,-3.7577,-3.7577,-3.7577,-3.7577,-3.7577,-3.7577,-3.7577,-3.7577,-3.7577,-3.7577,-3.7577,-3.7577,-3.7577,-3.7577,-2.4906,-2.5006,-2.5286,-2.5753,-2.5856,-2.6142,-2.7193,-2.6801,-2.6526,-2.7027,-2.6565,-2.5987,-2.5422,-2.442,-2.3765,-2.3734,-2.4234,-2.4567,-2.4624,-2.5119,-2.5563,-2.5728,-2.5728,-2.6068,-2.6841,-2.6826,-2.71,-2.7625,-2.7625,-2.7919,-2.8607,-2.8607,-2.8951,-2.9609,-3.0223,-3.0507,-3.0552,-3.124,-3.1482,-3.1377,-3.0193,-2.9759,-2.9774,-2.9101,-2.8861,-2.8936,-2.9609,-3.0175,-3.0737,-3.1378,-3.212,-3.2917,-3.3758,-3.4431,-3.488,-3.4927,-3.4772,-3.4641,-3.4641,-3.4184,-3.3677,-3.3575,-3.459,-3.5622,-3.5622,-3.5622,-3.5842,-3.662,-3.7297,-3.7584,-3.7043,-3.8001,-3.8979,-3.9183,-3.8461,-3.8037,-3.8334,-3.7693,-3.6947,-3.6387,-3.6301,-3.6301,-3.6301,-3.6301,-3.6301,-3.6301,-3.6215,-3.5921,-3.537,-3.5852,-3.5904,-3.537,-3.6015,-3.6568,-3.6987,-3.7027,-3.7203,-3.7577,-3.7577,-3.7577,-3.7577,-3.7577,-3.7577,-3.7577,-3.7577,-3.7577,-3.7577,-3.7577,-3.7577,-3.7577,-3.7577,-3.7577,-3.7577,-3.7577,-3.7577,-3.7577,-2.3996,-2.406,-2.415,-2.449,-2.4677,-2.5062,-2.5627,-2.5704,-2.5781,-2.6024,-2.6114,-2.5819,-2.4935,-2.4102,-2.3569,-2.3509,-2.3793,-2.3956,-2.3897,-2.4234,-2.4567,-2.4951,-2.5007,-2.5287,-2.596,-2.6283,-2.6669,-2.6982,-2.7408,-2.7724,-2.8023,-2.8023,-2.8173,-2.8487,-2.9146,-2.9445,-2.9475,-3.0148,-3.0447,-3.0387,-2.9819,-2.9579,-2.9549,-2.9265,-2.9146,-2.9146,-2.9071,-2.9516,-3.0182,-3.0509,-3.1358,-3.2501,-3.3165,-3.3834,-3.4431,-3.4721,-3.4742,-3.4722,-3.5026,-3.4895,-3.4641,-3.4641,-3.547,-3.6265,-3.6265,-3.6265,-3.6485,-3.7263,-3.7669,-3.7804,-3.7466,-3.7648,-3.8001,-3.8424,-3.7614,-3.7165,-3.7592,-3.7144,-3.6655,-3.6353,-3.6301,-3.6301,-3.6301,-3.6301,-3.6301,-3.6301,-3.5921,-3.5714,-3.5801,-3.5732,-3.5732,-3.5801,-3.6128,-3.6509,-3.6987,-3.6987,-3.7203,-3.7577,-3.7577,-3.7577,-3.7577,-3.7577,-3.7577,-3.7577,-3.7577,-3.7577,-3.7577,-3.7577,-3.7577,-3.7577,-3.7577,-3.7577,-3.7541,-3.7095,-3.7202,-3.7577]}]]